Multibeam Report for RR0901


Ship Name: Roger Revelle
Chief Scientist: Ledwell, James
Woods Hole Oceanographic Institution
Source Organization: Marine Geoscience Data System (MGDS)
Start Date: 2009-01-12
End Date: 2009-02-22


View ISO Metadata

Visit the full NCEI Bathymetry Viewer


Multibeam Bathymetry

Cruise Details

Project: Diapycnal and Isopycnal Mixing Experiment in the Southern Ocean (DIMES), Cruise US1
Instrument: Simrad EM120

Data Quality

Number of Files: 3597
Number of Records: 170427
BATHYMETRY DATA Quantity Percentage
Number of Beams 32551557 100%
Number of Good Beams 27351322 84.02%
Number of Zero Beams 5200235 15.98%
Number of Flagged Beams 0 0%

Navigation Totals

Total Time: 871.4252 hours
Total Track Length: 11332.7631 km
Average Speed: 13.005 km/hr (7.0221 knots)

Cruise Bounds

Northern Extent: -49.999317
Southern Extent: -59.990543
Western Extent: -110.10082
Eastern Extent: -74.36347

Limits

Minimum Sonar Depth 3.1 Maximum Sonar Depth 8.05
Minimum Altitude 0 Maximum Altitude 10797.4404
Minimum Depth 979.19 Maximum Depth 11904.6396

File Information

Full Resolution Bathymetry as collected (raw): 1818

Files File Size Description
0000_20090112_085215_ShipName.all.mb56.gz 366.5KB Simrad multibeam vendor format
0001_20090112_085920_ShipName.all.mb56.gz 2.8KB Simrad multibeam vendor format
0002_20090112_090156_ShipName.all.mb56.gz 2.08MB Simrad multibeam vendor format
0003_20090112_093156_ShipName.all.mb56.gz 156.3KB Simrad multibeam vendor format
0004_20090112_093634_ShipName.all.mb56.gz 2.01MB Simrad multibeam vendor format
0005_20090112_100634_ShipName.all.mb56.gz 1.98MB Simrad multibeam vendor format
0006_20090112_103634_ShipName.all.mb56.gz 1.99MB Simrad multibeam vendor format
0007_20090112_110633_ShipName.all.mb56.gz 1.93MB Simrad multibeam vendor format
0008_20090112_113633_ShipName.all.mb56.gz 1.90MB Simrad multibeam vendor format
0009_20090112_120633_ShipName.all.mb56.gz 1.93MB Simrad multibeam vendor format
0010_20090112_123633_ShipName.all.mb56.gz 1.94MB Simrad multibeam vendor format
0011_20090112_130633_ShipName.all.mb56.gz 1.96MB Simrad multibeam vendor format
0012_20090112_133633_ShipName.all.mb56.gz 2.02MB Simrad multibeam vendor format
0013_20090112_140633_ShipName.all.mb56.gz 1.98MB Simrad multibeam vendor format
0014_20090112_143633_ShipName.all.mb56.gz 2.01MB Simrad multibeam vendor format
0015_20090112_150633_ShipName.all.mb56.gz 2.17MB Simrad multibeam vendor format
0016_20090112_153633_ShipName.all.mb56.gz 407.7KB Simrad multibeam vendor format
0017_20090112_154245_ShipName.all.mb56.gz 1.23MB Simrad multibeam vendor format
0018_20090112_160410_ShipName.all.mb56.gz 1.81MB Simrad multibeam vendor format
0019_20090112_163410_ShipName.all.mb56.gz 38.4KB Simrad multibeam vendor format
0020_20090112_163459_ShipName.all.mb56.gz 0.69MB Simrad multibeam vendor format
0021_20090112_185107_ShipName.all.mb56.gz 2.06MB Simrad multibeam vendor format
0022_20090112_192107_ShipName.all.mb56.gz 0.87MB Simrad multibeam vendor format
0023_20090112_193622_ShipName.all.mb56.gz 2.2KB Simrad multibeam vendor format
0024_20090112_193639_ShipName.all.mb56.gz 143.7KB Simrad multibeam vendor format
0025_20090112_195829_ShipName.all.mb56.gz 2.22MB Simrad multibeam vendor format
0026_20090112_202829_ShipName.all.mb56.gz 2.15MB Simrad multibeam vendor format
0027_20090112_205829_ShipName.all.mb56.gz 2.16MB Simrad multibeam vendor format
0028_20090112_212829_ShipName.all.mb56.gz 2.16MB Simrad multibeam vendor format
0029_20090112_215829_ShipName.all.mb56.gz 2.14MB Simrad multibeam vendor format
0030_20090112_222829_ShipName.all.mb56.gz 2.13MB Simrad multibeam vendor format
0031_20090112_225829_ShipName.all.mb56.gz 2.14MB Simrad multibeam vendor format
0032_20090112_232829_ShipName.all.mb56.gz 2.10MB Simrad multibeam vendor format
0033_20090112_235829_ShipName.all.mb56.gz 2.10MB Simrad multibeam vendor format
0034_20090113_002829_ShipName.all.mb56.gz 2.12MB Simrad multibeam vendor format
0035_20090113_005829_ShipName.all.mb56.gz 2.05MB Simrad multibeam vendor format
0036_20090113_012829_ShipName.all.mb56.gz 2.06MB Simrad multibeam vendor format
0037_20090113_015829_ShipName.all.mb56.gz 2.08MB Simrad multibeam vendor format
0038_20090113_022829_ShipName.all.mb56.gz 2.17MB Simrad multibeam vendor format
0039_20090113_025829_ShipName.all.mb56.gz 2.11MB Simrad multibeam vendor format
0040_20090113_032829_ShipName.all.mb56.gz 2.10MB Simrad multibeam vendor format
0041_20090113_035829_ShipName.all.mb56.gz 2.09MB Simrad multibeam vendor format
0042_20090113_042829_ShipName.all.mb56.gz 2.11MB Simrad multibeam vendor format
0043_20090113_045829_ShipName.all.mb56.gz 2.00MB Simrad multibeam vendor format
0044_20090113_052829_ShipName.all.mb56.gz 1.73MB Simrad multibeam vendor format
0045_20090113_055829_ShipName.all.mb56.gz 1.91MB Simrad multibeam vendor format
0046_20090113_062829_ShipName.all.mb56.gz 1.88MB Simrad multibeam vendor format
0047_20090113_065829_ShipName.all.mb56.gz 1.87MB Simrad multibeam vendor format
0048_20090113_072829_ShipName.all.mb56.gz 1.99MB Simrad multibeam vendor format
0049_20090113_075829_ShipName.all.mb56.gz 1.89MB Simrad multibeam vendor format
0050_20090113_082829_ShipName.all.mb56.gz 1.78MB Simrad multibeam vendor format
0051_20090113_085829_ShipName.all.mb56.gz 1.84MB Simrad multibeam vendor format
0052_20090113_092829_ShipName.all.mb56.gz 1.98MB Simrad multibeam vendor format
0053_20090113_095829_ShipName.all.mb56.gz 2.02MB Simrad multibeam vendor format
0054_20090113_102828_ShipName.all.mb56.gz 2.24MB Simrad multibeam vendor format
0055_20090113_105828_ShipName.all.mb56.gz 2.08MB Simrad multibeam vendor format
0056_20090113_112828_ShipName.all.mb56.gz 1.82MB Simrad multibeam vendor format
0057_20090113_115828_ShipName.all.mb56.gz 1.81MB Simrad multibeam vendor format
0058_20090113_122828_ShipName.all.mb56.gz 1.95MB Simrad multibeam vendor format
0059_20090113_125828_ShipName.all.mb56.gz 2.01MB Simrad multibeam vendor format
0060_20090113_132828_ShipName.all.mb56.gz 1.91MB Simrad multibeam vendor format
0061_20090113_135828_ShipName.all.mb56.gz 1.77MB Simrad multibeam vendor format
0062_20090113_142828_ShipName.all.mb56.gz 1.78MB Simrad multibeam vendor format
0063_20090113_145828_ShipName.all.mb56.gz 2.09MB Simrad multibeam vendor format
0064_20090113_152828_ShipName.all.mb56.gz 1.99MB Simrad multibeam vendor format
0065_20090113_155828_ShipName.all.mb56.gz 2.16MB Simrad multibeam vendor format
0066_20090113_162828_ShipName.all.mb56.gz 2.16MB Simrad multibeam vendor format
0067_20090113_165828_ShipName.all.mb56.gz 2.14MB Simrad multibeam vendor format
0068_20090113_172828_ShipName.all.mb56.gz 2.24MB Simrad multibeam vendor format
0069_20090113_175828_ShipName.all.mb56.gz 2.13MB Simrad multibeam vendor format
0070_20090113_182828_ShipName.all.mb56.gz 2.11MB Simrad multibeam vendor format
0071_20090113_185828_ShipName.all.mb56.gz 2.04MB Simrad multibeam vendor format
0072_20090113_192828_ShipName.all.mb56.gz 1.94MB Simrad multibeam vendor format
0073_20090113_195828_ShipName.all.mb56.gz 2.08MB Simrad multibeam vendor format
0074_20090113_202828_ShipName.all.mb56.gz 1.76MB Simrad multibeam vendor format
0075_20090113_205828_ShipName.all.mb56.gz 0.66MB Simrad multibeam vendor format
0076_20090113_210954_ShipName.all.mb56.gz 2.07MB Simrad multibeam vendor format
0077_20090113_213954_ShipName.all.mb56.gz 2.11MB Simrad multibeam vendor format
0078_20090113_220954_ShipName.all.mb56.gz 2.10MB Simrad multibeam vendor format
0079_20090113_223954_ShipName.all.mb56.gz 2.06MB Simrad multibeam vendor format
0080_20090113_230954_ShipName.all.mb56.gz 2.20MB Simrad multibeam vendor format
0081_20090113_233954_ShipName.all.mb56.gz 2.13MB Simrad multibeam vendor format
0082_20090114_000954_ShipName.all.mb56.gz 2.16MB Simrad multibeam vendor format
0083_20090114_003954_ShipName.all.mb56.gz 2.19MB Simrad multibeam vendor format
0084_20090114_010954_ShipName.all.mb56.gz 2.12MB Simrad multibeam vendor format
0085_20090114_013954_ShipName.all.mb56.gz 2.11MB Simrad multibeam vendor format
0086_20090114_020954_ShipName.all.mb56.gz 2.20MB Simrad multibeam vendor format
0087_20090114_023954_ShipName.all.mb56.gz 2.09MB Simrad multibeam vendor format
0088_20090114_030954_ShipName.all.mb56.gz 2.12MB Simrad multibeam vendor format
0089_20090114_033954_ShipName.all.mb56.gz 2.13MB Simrad multibeam vendor format
0090_20090114_040954_ShipName.all.mb56.gz 2.25MB Simrad multibeam vendor format
0091_20090114_043954_ShipName.all.mb56.gz 2.08MB Simrad multibeam vendor format
0092_20090114_050954_ShipName.all.mb56.gz 1.99MB Simrad multibeam vendor format
0093_20090114_053954_ShipName.all.mb56.gz 1.98MB Simrad multibeam vendor format
0094_20090114_060953_ShipName.all.mb56.gz 1.97MB Simrad multibeam vendor format
0095_20090114_063953_ShipName.all.mb56.gz 2.15MB Simrad multibeam vendor format
0096_20090114_070953_ShipName.all.mb56.gz 2.16MB Simrad multibeam vendor format
0097_20090114_073953_ShipName.all.mb56.gz 2.15MB Simrad multibeam vendor format
0098_20090114_080953_ShipName.all.mb56.gz 2.11MB Simrad multibeam vendor format
0099_20090114_083953_ShipName.all.mb56.gz 1.95MB Simrad multibeam vendor format
0100_20090114_090953_ShipName.all.mb56.gz 2.09MB Simrad multibeam vendor format
0101_20090114_093953_ShipName.all.mb56.gz 1.97MB Simrad multibeam vendor format
0102_20090114_100953_ShipName.all.mb56.gz 1.95MB Simrad multibeam vendor format
0103_20090114_103953_ShipName.all.mb56.gz 1.87MB Simrad multibeam vendor format
0104_20090114_110953_ShipName.all.mb56.gz 1.71MB Simrad multibeam vendor format
0104_20090114_113801_ShipName.all.mb56.gz 1.96MB Simrad multibeam vendor format
0105_20090114_120801_ShipName.all.mb56.gz 2.20MB Simrad multibeam vendor format
0106_20090114_123801_ShipName.all.mb56.gz 1.45MB Simrad multibeam vendor format
0107_20090114_150916_ShipName.all.mb56.gz 2.19MB Simrad multibeam vendor format
0108_20090114_153917_ShipName.all.mb56.gz 2.16MB Simrad multibeam vendor format
0109_20090114_160917_ShipName.all.mb56.gz 0.67MB Simrad multibeam vendor format
0110_20090115_013400_ShipName.all.mb56.gz 2.14MB Simrad multibeam vendor format
0111_20090115_020400_ShipName.all.mb56.gz 2.23MB Simrad multibeam vendor format
0112_20090115_023400_ShipName.all.mb56.gz 2.13MB Simrad multibeam vendor format
0113_20090115_030400_ShipName.all.mb56.gz 2.13MB Simrad multibeam vendor format
0114_20090115_033400_ShipName.all.mb56.gz 2.11MB Simrad multibeam vendor format
0115_20090115_040400_ShipName.all.mb56.gz 2.17MB Simrad multibeam vendor format
0116_20090115_043400_ShipName.all.mb56.gz 2.14MB Simrad multibeam vendor format
0117_20090115_050400_ShipName.all.mb56.gz 2.11MB Simrad multibeam vendor format
0118_20090115_053400_ShipName.all.mb56.gz 2.14MB Simrad multibeam vendor format
0119_20090115_060400_ShipName.all.mb56.gz 2.21MB Simrad multibeam vendor format
0120_20090115_063400_ShipName.all.mb56.gz 2.09MB Simrad multibeam vendor format
0121_20090115_070400_ShipName.all.mb56.gz 2.06MB Simrad multibeam vendor format
0122_20090115_073400_ShipName.all.mb56.gz 2.06MB Simrad multibeam vendor format
0123_20090115_080400_ShipName.all.mb56.gz 2.07MB Simrad multibeam vendor format
0124_20090115_083400_ShipName.all.mb56.gz 2.06MB Simrad multibeam vendor format
0125_20090115_090400_ShipName.all.mb56.gz 2.09MB Simrad multibeam vendor format
0126_20090115_093400_ShipName.all.mb56.gz 2.06MB Simrad multibeam vendor format
0127_20090115_100400_ShipName.all.mb56.gz 2.07MB Simrad multibeam vendor format
0128_20090115_103400_ShipName.all.mb56.gz 2.12MB Simrad multibeam vendor format
0129_20090115_110400_ShipName.all.mb56.gz 2.06MB Simrad multibeam vendor format
0130_20090115_113400_ShipName.all.mb56.gz 2.00MB Simrad multibeam vendor format
0131_20090115_120400_ShipName.all.mb56.gz 2.02MB Simrad multibeam vendor format
0132_20090115_123400_ShipName.all.mb56.gz 2.03MB Simrad multibeam vendor format
0133_20090115_130400_ShipName.all.mb56.gz 2.09MB Simrad multibeam vendor format
0134_20090115_133400_ShipName.all.mb56.gz 2.03MB Simrad multibeam vendor format
0135_20090115_140400_ShipName.all.mb56.gz 2.03MB Simrad multibeam vendor format
0136_20090115_143400_ShipName.all.mb56.gz 2.03MB Simrad multibeam vendor format
0137_20090115_150400_ShipName.all.mb56.gz 2.04MB Simrad multibeam vendor format
0138_20090115_153400_ShipName.all.mb56.gz 2.06MB Simrad multibeam vendor format
0139_20090115_160400_ShipName.all.mb56.gz 2.03MB Simrad multibeam vendor format
0140_20090115_163400_ShipName.all.mb56.gz 2.07MB Simrad multibeam vendor format
0141_20090115_170400_ShipName.all.mb56.gz 2.05MB Simrad multibeam vendor format
0142_20090115_173400_ShipName.all.mb56.gz 2.05MB Simrad multibeam vendor format
0143_20090115_180400_ShipName.all.mb56.gz 2.08MB Simrad multibeam vendor format
0144_20090115_183400_ShipName.all.mb56.gz 2.18MB Simrad multibeam vendor format
0145_20090115_190400_ShipName.all.mb56.gz 2.12MB Simrad multibeam vendor format
0146_20090115_193400_ShipName.all.mb56.gz 2.02MB Simrad multibeam vendor format
0147_20090115_200400_ShipName.all.mb56.gz 2.02MB Simrad multibeam vendor format
0148_20090115_203400_ShipName.all.mb56.gz 2.00MB Simrad multibeam vendor format
0149_20090115_210400_ShipName.all.mb56.gz 2.10MB Simrad multibeam vendor format
0150_20090115_213359_ShipName.all.mb56.gz 2.08MB Simrad multibeam vendor format
0151_20090115_220359_ShipName.all.mb56.gz 2.11MB Simrad multibeam vendor format
0152_20090115_223359_ShipName.all.mb56.gz 2.06MB Simrad multibeam vendor format
0153_20090115_230359_ShipName.all.mb56.gz 2.13MB Simrad multibeam vendor format
0154_20090115_233359_ShipName.all.mb56.gz 2.05MB Simrad multibeam vendor format
0155_20090116_000759_ShipName.all.mb56.gz 0.59MB Simrad multibeam vendor format
0156_20090116_001927_ShipName.all.mb56.gz 177.7KB Simrad multibeam vendor format
0157_20090116_002421_ShipName.all.mb56.gz 66.8KB Simrad multibeam vendor format
0158_20090116_002642_ShipName.all.mb56.gz 0.53MB Simrad multibeam vendor format
0159_20090116_003646_ShipName.all.mb56.gz 72.6KB Simrad multibeam vendor format
0160_20090116_003820_ShipName.all.mb56.gz 1.88MB Simrad multibeam vendor format
0161_20090116_010820_ShipName.all.mb56.gz 2.09MB Simrad multibeam vendor format
0162_20090116_013820_ShipName.all.mb56.gz 2.06MB Simrad multibeam vendor format
0163_20090116_020820_ShipName.all.mb56.gz 2.04MB Simrad multibeam vendor format
0164_20090116_023821_ShipName.all.mb56.gz 2.06MB Simrad multibeam vendor format
0165_20090116_030820_ShipName.all.mb56.gz 2.00MB Simrad multibeam vendor format
0166_20090116_033820_ShipName.all.mb56.gz 2.04MB Simrad multibeam vendor format
0167_20090116_040820_ShipName.all.mb56.gz 1.93MB Simrad multibeam vendor format
0168_20090116_043820_ShipName.all.mb56.gz 1.90MB Simrad multibeam vendor format
0169_20090116_050820_ShipName.all.mb56.gz 2.07MB Simrad multibeam vendor format
0170_20090116_053820_ShipName.all.mb56.gz 1.99MB Simrad multibeam vendor format
0171_20090116_060820_ShipName.all.mb56.gz 2.13MB Simrad multibeam vendor format
0172_20090116_063820_ShipName.all.mb56.gz 2.10MB Simrad multibeam vendor format
0173_20090116_070820_ShipName.all.mb56.gz 2.13MB Simrad multibeam vendor format
0174_20090116_073820_ShipName.all.mb56.gz 2.16MB Simrad multibeam vendor format
0175_20090116_080820_ShipName.all.mb56.gz 2.18MB Simrad multibeam vendor format
0176_20090116_083820_ShipName.all.mb56.gz 2.08MB Simrad multibeam vendor format
0177_20090116_090820_ShipName.all.mb56.gz 2.14MB Simrad multibeam vendor format
0178_20090116_093820_ShipName.all.mb56.gz 2.14MB Simrad multibeam vendor format
0179_20090116_100820_ShipName.all.mb56.gz 2.04MB Simrad multibeam vendor format
0180_20090116_103820_ShipName.all.mb56.gz 2.13MB Simrad multibeam vendor format
0181_20090116_110820_ShipName.all.mb56.gz 2.09MB Simrad multibeam vendor format
0182_20090116_113820_ShipName.all.mb56.gz 2.08MB Simrad multibeam vendor format
0183_20090116_120820_ShipName.all.mb56.gz 2.14MB Simrad multibeam vendor format
0184_20090116_123820_ShipName.all.mb56.gz 2.16MB Simrad multibeam vendor format
0185_20090116_130820_ShipName.all.mb56.gz 2.10MB Simrad multibeam vendor format
0186_20090116_133820_ShipName.all.mb56.gz 2.18MB Simrad multibeam vendor format
0187_20090116_140820_ShipName.all.mb56.gz 2.14MB Simrad multibeam vendor format
0188_20090116_143820_ShipName.all.mb56.gz 2.09MB Simrad multibeam vendor format
0189_20090116_150820_ShipName.all.mb56.gz 2.07MB Simrad multibeam vendor format
0190_20090116_153820_ShipName.all.mb56.gz 2.11MB Simrad multibeam vendor format
0191_20090116_160820_ShipName.all.mb56.gz 2.10MB Simrad multibeam vendor format
0192_20090116_163820_ShipName.all.mb56.gz 2.11MB Simrad multibeam vendor format
0193_20090116_170820_ShipName.all.mb56.gz 2.06MB Simrad multibeam vendor format
0194_20090116_173820_ShipName.all.mb56.gz 2.02MB Simrad multibeam vendor format
0195_20090116_180820_ShipName.all.mb56.gz 2.10MB Simrad multibeam vendor format
0196_20090116_183820_ShipName.all.mb56.gz 2.09MB Simrad multibeam vendor format
0197_20090116_190820_ShipName.all.mb56.gz 2.04MB Simrad multibeam vendor format
0198_20090116_193820_ShipName.all.mb56.gz 2.04MB Simrad multibeam vendor format
0199_20090116_200820_ShipName.all.mb56.gz 2.03MB Simrad multibeam vendor format
0200_20090116_203820_ShipName.all.mb56.gz 2.19MB Simrad multibeam vendor format
0201_20090116_210820_ShipName.all.mb56.gz 2.17MB Simrad multibeam vendor format
0202_20090116_213819_ShipName.all.mb56.gz 2.11MB Simrad multibeam vendor format
0203_20090116_220819_ShipName.all.mb56.gz 2.12MB Simrad multibeam vendor format
0204_20090116_223819_ShipName.all.mb56.gz 2.09MB Simrad multibeam vendor format
0205_20090116_230819_ShipName.all.mb56.gz 2.07MB Simrad multibeam vendor format
0206_20090116_233819_ShipName.all.mb56.gz 2.05MB Simrad multibeam vendor format
0207_20090117_000819_ShipName.all.mb56.gz 2.19MB Simrad multibeam vendor format
0208_20090117_003819_ShipName.all.mb56.gz 2.09MB Simrad multibeam vendor format
0209_20090117_010819_ShipName.all.mb56.gz 2.21MB Simrad multibeam vendor format
0210_20090117_013819_ShipName.all.mb56.gz 2.20MB Simrad multibeam vendor format
0211_20090117_020819_ShipName.all.mb56.gz 2.13MB Simrad multibeam vendor format
0212_20090117_023819_ShipName.all.mb56.gz 1.96MB Simrad multibeam vendor format
0213_20090117_030819_ShipName.all.mb56.gz 2.15MB Simrad multibeam vendor format
0214_20090117_033819_ShipName.all.mb56.gz 2.19MB Simrad multibeam vendor format
0215_20090117_040819_ShipName.all.mb56.gz 2.20MB Simrad multibeam vendor format
0216_20090117_043819_ShipName.all.mb56.gz 2.13MB Simrad multibeam vendor format
0217_20090117_050819_ShipName.all.mb56.gz 2.10MB Simrad multibeam vendor format
0218_20090117_053819_ShipName.all.mb56.gz 2.15MB Simrad multibeam vendor format
0219_20090117_060819_ShipName.all.mb56.gz 2.08MB Simrad multibeam vendor format
0220_20090117_063819_ShipName.all.mb56.gz 1.99MB Simrad multibeam vendor format
0221_20090117_070819_ShipName.all.mb56.gz 1.89MB Simrad multibeam vendor format
0222_20090117_073819_ShipName.all.mb56.gz 2.16MB Simrad multibeam vendor format
0223_20090117_080819_ShipName.all.mb56.gz 1.69MB Simrad multibeam vendor format
0224_20090117_083819_ShipName.all.mb56.gz 1.71MB Simrad multibeam vendor format
0225_20090117_090819_ShipName.all.mb56.gz 1.61MB Simrad multibeam vendor format
0226_20090117_093819_ShipName.all.mb56.gz 1.65MB Simrad multibeam vendor format
0227_20090117_100819_ShipName.all.mb56.gz 1.90MB Simrad multibeam vendor format
0228_20090117_103819_ShipName.all.mb56.gz 2.00MB Simrad multibeam vendor format
0229_20090117_110819_ShipName.all.mb56.gz 1.81MB Simrad multibeam vendor format
0230_20090117_113819_ShipName.all.mb56.gz 2.13MB Simrad multibeam vendor format
0231_20090117_120819_ShipName.all.mb56.gz 2.17MB Simrad multibeam vendor format
0232_20090117_123819_ShipName.all.mb56.gz 2.14MB Simrad multibeam vendor format
0233_20090117_130819_ShipName.all.mb56.gz 2.09MB Simrad multibeam vendor format
0234_20090117_133819_ShipName.all.mb56.gz 2.18MB Simrad multibeam vendor format
0235_20090117_140819_ShipName.all.mb56.gz 2.08MB Simrad multibeam vendor format
0236_20090117_143819_ShipName.all.mb56.gz 2.03MB Simrad multibeam vendor format
0237_20090117_150819_ShipName.all.mb56.gz 2.06MB Simrad multibeam vendor format
0238_20090117_153820_ShipName.all.mb56.gz 2.07MB Simrad multibeam vendor format
0239_20090117_160820_ShipName.all.mb56.gz 2.06MB Simrad multibeam vendor format
0240_20090117_163820_ShipName.all.mb56.gz 2.04MB Simrad multibeam vendor format
0241_20090117_170820_ShipName.all.mb56.gz 2.09MB Simrad multibeam vendor format
0242_20090117_173821_ShipName.all.mb56.gz 2.08MB Simrad multibeam vendor format
0243_20090117_180821_ShipName.all.mb56.gz 2.12MB Simrad multibeam vendor format
0244_20090117_183821_ShipName.all.mb56.gz 2.10MB Simrad multibeam vendor format
0245_20090117_190821_ShipName.all.mb56.gz 2.04MB Simrad multibeam vendor format
0246_20090117_193822_ShipName.all.mb56.gz 12.4KB Simrad multibeam vendor format
0247_20090117_193912_ShipName.all.mb56.gz 111.2KB Simrad multibeam vendor format
0248_20090117_194338_ShipName.all.mb56.gz 480.2KB Simrad multibeam vendor format
0249_20090117_201343_ShipName.all.mb56.gz 0.73MB Simrad multibeam vendor format
0250_20090117_202622_ShipName.all.mb56.gz 1.53MB Simrad multibeam vendor format
0251_20090117_204803_ShipName.all.mb56.gz 1.96MB Simrad multibeam vendor format
0252_20090117_211804_ShipName.all.mb56.gz 1.94MB Simrad multibeam vendor format
0253_20090117_214804_ShipName.all.mb56.gz 2.04MB Simrad multibeam vendor format
0254_20090117_221804_ShipName.all.mb56.gz 2.06MB Simrad multibeam vendor format
0255_20090117_224805_ShipName.all.mb56.gz 2.00MB Simrad multibeam vendor format
0256_20090117_231805_ShipName.all.mb56.gz 1.87MB Simrad multibeam vendor format
0257_20090117_234805_ShipName.all.mb56.gz 1.91MB Simrad multibeam vendor format
0258_20090118_001805_ShipName.all.mb56.gz 1.94MB Simrad multibeam vendor format
0259_20090118_004806_ShipName.all.mb56.gz 2.00MB Simrad multibeam vendor format
0260_20090118_011806_ShipName.all.mb56.gz 2.02MB Simrad multibeam vendor format
0261_20090118_014806_ShipName.all.mb56.gz 2.01MB Simrad multibeam vendor format
0262_20090118_021806_ShipName.all.mb56.gz 2.10MB Simrad multibeam vendor format
0263_20090118_024807_ShipName.all.mb56.gz 2.01MB Simrad multibeam vendor format
0264_20090118_031807_ShipName.all.mb56.gz 2.14MB Simrad multibeam vendor format
0265_20090118_034806_ShipName.all.mb56.gz 2.09MB Simrad multibeam vendor format
0266_20090118_041806_ShipName.all.mb56.gz 2.04MB Simrad multibeam vendor format
0267_20090118_044806_ShipName.all.mb56.gz 1.95MB Simrad multibeam vendor format
0268_20090118_051806_ShipName.all.mb56.gz 1.97MB Simrad multibeam vendor format
0269_20090118_054806_ShipName.all.mb56.gz 1.99MB Simrad multibeam vendor format
0270_20090118_061806_ShipName.all.mb56.gz 1.98MB Simrad multibeam vendor format
0271_20090118_064806_ShipName.all.mb56.gz 1.92MB Simrad multibeam vendor format
0272_20090118_071806_ShipName.all.mb56.gz 2.00MB Simrad multibeam vendor format
0273_20090118_074806_ShipName.all.mb56.gz 1.96MB Simrad multibeam vendor format
0274_20090118_081806_ShipName.all.mb56.gz 1.97MB Simrad multibeam vendor format
0275_20090118_084806_ShipName.all.mb56.gz 2.00MB Simrad multibeam vendor format
0276_20090118_091806_ShipName.all.mb56.gz 1.95MB Simrad multibeam vendor format
0277_20090118_094806_ShipName.all.mb56.gz 1.92MB Simrad multibeam vendor format
0278_20090118_101806_ShipName.all.mb56.gz 1.95MB Simrad multibeam vendor format
0279_20090118_104806_ShipName.all.mb56.gz 1.90MB Simrad multibeam vendor format
0280_20090118_111806_ShipName.all.mb56.gz 1.89MB Simrad multibeam vendor format
0281_20090118_114806_ShipName.all.mb56.gz 1.89MB Simrad multibeam vendor format
0282_20090118_121806_ShipName.all.mb56.gz 1.89MB Simrad multibeam vendor format
0283_20090118_124806_ShipName.all.mb56.gz 1.88MB Simrad multibeam vendor format
0284_20090118_131806_ShipName.all.mb56.gz 1.85MB Simrad multibeam vendor format
0285_20090118_134806_ShipName.all.mb56.gz 1.84MB Simrad multibeam vendor format
0286_20090118_141806_ShipName.all.mb56.gz 1.88MB Simrad multibeam vendor format
0287_20090118_144806_ShipName.all.mb56.gz 1.88MB Simrad multibeam vendor format
0288_20090118_151806_ShipName.all.mb56.gz 1.87MB Simrad multibeam vendor format
0289_20090118_154806_ShipName.all.mb56.gz 1.89MB Simrad multibeam vendor format
0290_20090118_161806_ShipName.all.mb56.gz 1.92MB Simrad multibeam vendor format
0291_20090118_164806_ShipName.all.mb56.gz 1.93MB Simrad multibeam vendor format
0292_20090118_171806_ShipName.all.mb56.gz 1.94MB Simrad multibeam vendor format
0293_20090118_174806_ShipName.all.mb56.gz 1.92MB Simrad multibeam vendor format
0294_20090118_181806_ShipName.all.mb56.gz 1.95MB Simrad multibeam vendor format
0295_20090118_184806_ShipName.all.mb56.gz 1.95MB Simrad multibeam vendor format
0296_20090118_191806_ShipName.all.mb56.gz 1.87MB Simrad multibeam vendor format
0297_20090118_194806_ShipName.all.mb56.gz 1.86MB Simrad multibeam vendor format
0298_20090118_201806_ShipName.all.mb56.gz 1.92MB Simrad multibeam vendor format
0299_20090118_204806_ShipName.all.mb56.gz 2.04MB Simrad multibeam vendor format
0300_20090118_211806_ShipName.all.mb56.gz 1.88MB Simrad multibeam vendor format
0301_20090118_214806_ShipName.all.mb56.gz 1.95MB Simrad multibeam vendor format
0302_20090118_221806_ShipName.all.mb56.gz 1.94MB Simrad multibeam vendor format
0303_20090118_224806_ShipName.all.mb56.gz 1.92MB Simrad multibeam vendor format
0304_20090118_231806_ShipName.all.mb56.gz 1.85MB Simrad multibeam vendor format
0305_20090118_234806_ShipName.all.mb56.gz 1.81MB Simrad multibeam vendor format
0306_20090119_001806_ShipName.all.mb56.gz 1.82MB Simrad multibeam vendor format
0307_20090119_004806_ShipName.all.mb56.gz 1.80MB Simrad multibeam vendor format
0308_20090119_011806_ShipName.all.mb56.gz 1.80MB Simrad multibeam vendor format
0309_20090119_014806_ShipName.all.mb56.gz 1.80MB Simrad multibeam vendor format
0310_20090119_021806_ShipName.all.mb56.gz 1.79MB Simrad multibeam vendor format
0311_20090119_024806_ShipName.all.mb56.gz 1.78MB Simrad multibeam vendor format
0312_20090119_031806_ShipName.all.mb56.gz 1.90MB Simrad multibeam vendor format
0313_20090119_034806_ShipName.all.mb56.gz 1.92MB Simrad multibeam vendor format
0314_20090119_041806_ShipName.all.mb56.gz 1.95MB Simrad multibeam vendor format
0315_20090119_044805_ShipName.all.mb56.gz 1.94MB Simrad multibeam vendor format
0316_20090119_051805_ShipName.all.mb56.gz 1.99MB Simrad multibeam vendor format
0317_20090119_054805_ShipName.all.mb56.gz 2.03MB Simrad multibeam vendor format
0318_20090119_061805_ShipName.all.mb56.gz 2.00MB Simrad multibeam vendor format
0319_20090119_064805_ShipName.all.mb56.gz 2.01MB Simrad multibeam vendor format
0320_20090119_071805_ShipName.all.mb56.gz 1.98MB Simrad multibeam vendor format
0321_20090119_074805_ShipName.all.mb56.gz 1.98MB Simrad multibeam vendor format
0322_20090119_081805_ShipName.all.mb56.gz 2.03MB Simrad multibeam vendor format
0323_20090119_084805_ShipName.all.mb56.gz 2.02MB Simrad multibeam vendor format
0324_20090119_091805_ShipName.all.mb56.gz 2.01MB Simrad multibeam vendor format
0325_20090119_094805_ShipName.all.mb56.gz 1.94MB Simrad multibeam vendor format
0326_20090119_101805_ShipName.all.mb56.gz 1.95MB Simrad multibeam vendor format
0327_20090119_104805_ShipName.all.mb56.gz 2.00MB Simrad multibeam vendor format
0328_20090119_111805_ShipName.all.mb56.gz 1.96MB Simrad multibeam vendor format
0329_20090119_114805_ShipName.all.mb56.gz 1.94MB Simrad multibeam vendor format
0330_20090119_121805_ShipName.all.mb56.gz 1.94MB Simrad multibeam vendor format
0331_20090119_124805_ShipName.all.mb56.gz 1.97MB Simrad multibeam vendor format
0332_20090119_131805_ShipName.all.mb56.gz 1.96MB Simrad multibeam vendor format
0333_20090119_134805_ShipName.all.mb56.gz 1.97MB Simrad multibeam vendor format
0334_20090119_141805_ShipName.all.mb56.gz 1.96MB Simrad multibeam vendor format
0335_20090119_144805_ShipName.all.mb56.gz 1.97MB Simrad multibeam vendor format
0336_20090119_151805_ShipName.all.mb56.gz 1.98MB Simrad multibeam vendor format
0337_20090119_154805_ShipName.all.mb56.gz 1.98MB Simrad multibeam vendor format
0338_20090119_161805_ShipName.all.mb56.gz 1.93MB Simrad multibeam vendor format
0339_20090119_164805_ShipName.all.mb56.gz 1.98MB Simrad multibeam vendor format
0340_20090119_171805_ShipName.all.mb56.gz 1.95MB Simrad multibeam vendor format
0341_20090119_174805_ShipName.all.mb56.gz 1.94MB Simrad multibeam vendor format
0342_20090119_181805_ShipName.all.mb56.gz 1.96MB Simrad multibeam vendor format
0343_20090119_184805_ShipName.all.mb56.gz 1.97MB Simrad multibeam vendor format
0344_20090119_191805_ShipName.all.mb56.gz 1.94MB Simrad multibeam vendor format
0345_20090119_194805_ShipName.all.mb56.gz 1.98MB Simrad multibeam vendor format
0346_20090119_201805_ShipName.all.mb56.gz 2.00MB Simrad multibeam vendor format
0347_20090119_204805_ShipName.all.mb56.gz 1.88MB Simrad multibeam vendor format
0348_20090119_211805_ShipName.all.mb56.gz 1.88MB Simrad multibeam vendor format
0349_20090119_214805_ShipName.all.mb56.gz 1.88MB Simrad multibeam vendor format
0350_20090119_221805_ShipName.all.mb56.gz 1.95MB Simrad multibeam vendor format
0351_20090119_224805_ShipName.all.mb56.gz 1.92MB Simrad multibeam vendor format
0352_20090119_231805_ShipName.all.mb56.gz 1.95MB Simrad multibeam vendor format
0353_20090119_234805_ShipName.all.mb56.gz 1.92MB Simrad multibeam vendor format
0354_20090120_001805_ShipName.all.mb56.gz 1.94MB Simrad multibeam vendor format
0355_20090120_004805_ShipName.all.mb56.gz 1.88MB Simrad multibeam vendor format
0356_20090120_011805_ShipName.all.mb56.gz 1.90MB Simrad multibeam vendor format
0357_20090120_014805_ShipName.all.mb56.gz 1.92MB Simrad multibeam vendor format
0358_20090120_021805_ShipName.all.mb56.gz 1.98MB Simrad multibeam vendor format
0359_20090120_024805_ShipName.all.mb56.gz 1.97MB Simrad multibeam vendor format
0360_20090120_031805_ShipName.all.mb56.gz 1.96MB Simrad multibeam vendor format
0361_20090120_034805_ShipName.all.mb56.gz 2.04MB Simrad multibeam vendor format
0362_20090120_041805_ShipName.all.mb56.gz 2.03MB Simrad multibeam vendor format
0363_20090120_044805_ShipName.all.mb56.gz 2.05MB Simrad multibeam vendor format
0364_20090120_051804_ShipName.all.mb56.gz 2.05MB Simrad multibeam vendor format
0365_20090120_054804_ShipName.all.mb56.gz 2.01MB Simrad multibeam vendor format
0366_20090120_061804_ShipName.all.mb56.gz 2.06MB Simrad multibeam vendor format
0367_20090120_064804_ShipName.all.mb56.gz 2.06MB Simrad multibeam vendor format
0368_20090120_071804_ShipName.all.mb56.gz 2.00MB Simrad multibeam vendor format
0369_20090120_074804_ShipName.all.mb56.gz 1.92MB Simrad multibeam vendor format
0370_20090120_081804_ShipName.all.mb56.gz 2.03MB Simrad multibeam vendor format
0371_20090120_084804_ShipName.all.mb56.gz 2.05MB Simrad multibeam vendor format
0372_20090120_091804_ShipName.all.mb56.gz 2.14MB Simrad multibeam vendor format
0373_20090120_094804_ShipName.all.mb56.gz 2.15MB Simrad multibeam vendor format
0374_20090120_101804_ShipName.all.mb56.gz 2.13MB Simrad multibeam vendor format
0375_20090120_104804_ShipName.all.mb56.gz 2.09MB Simrad multibeam vendor format
0376_20090120_111804_ShipName.all.mb56.gz 2.13MB Simrad multibeam vendor format
0377_20090120_114804_ShipName.all.mb56.gz 2.12MB Simrad multibeam vendor format
0378_20090120_121804_ShipName.all.mb56.gz 2.16MB Simrad multibeam vendor format
0379_20090120_124804_ShipName.all.mb56.gz 2.13MB Simrad multibeam vendor format
0380_20090120_131804_ShipName.all.mb56.gz 2.17MB Simrad multibeam vendor format
0381_20090120_134804_ShipName.all.mb56.gz 2.16MB Simrad multibeam vendor format
0382_20090120_141804_ShipName.all.mb56.gz 2.13MB Simrad multibeam vendor format
0383_20090120_144801_ShipName.all.mb56.gz 2.22MB Simrad multibeam vendor format
0384_20090120_151801_ShipName.all.mb56.gz 2.27MB Simrad multibeam vendor format
0385_20090120_154801_ShipName.all.mb56.gz 2.18MB Simrad multibeam vendor format
0386_20090120_161801_ShipName.all.mb56.gz 2.23MB Simrad multibeam vendor format
0387_20090120_164802_ShipName.all.mb56.gz 2.24MB Simrad multibeam vendor format
0388_20090120_171802_ShipName.all.mb56.gz 2.26MB Simrad multibeam vendor format
0389_20090120_174802_ShipName.all.mb56.gz 2.15MB Simrad multibeam vendor format
0390_20090120_181802_ShipName.all.mb56.gz 2.11MB Simrad multibeam vendor format
0391_20090120_184803_ShipName.all.mb56.gz 2.16MB Simrad multibeam vendor format
0392_20090120_191803_ShipName.all.mb56.gz 2.17MB Simrad multibeam vendor format
0393_20090120_194803_ShipName.all.mb56.gz 2.10MB Simrad multibeam vendor format
0394_20090120_201803_ShipName.all.mb56.gz 2.20MB Simrad multibeam vendor format
0395_20090120_204804_ShipName.all.mb56.gz 2.24MB Simrad multibeam vendor format
0396_20090120_211804_ShipName.all.mb56.gz 2.21MB Simrad multibeam vendor format
0397_20090120_214804_ShipName.all.mb56.gz 2.15MB Simrad multibeam vendor format
0398_20090120_221804_ShipName.all.mb56.gz 2.07MB Simrad multibeam vendor format
0399_20090120_224805_ShipName.all.mb56.gz 2.21MB Simrad multibeam vendor format
0400_20090120_231805_ShipName.all.mb56.gz 2.20MB Simrad multibeam vendor format
0401_20090120_234805_ShipName.all.mb56.gz 2.24MB Simrad multibeam vendor format
0402_20090121_001805_ShipName.all.mb56.gz 2.19MB Simrad multibeam vendor format
0403_20090121_004806_ShipName.all.mb56.gz 2.24MB Simrad multibeam vendor format
0404_20090121_011806_ShipName.all.mb56.gz 2.21MB Simrad multibeam vendor format
0405_20090121_014806_ShipName.all.mb56.gz 2.17MB Simrad multibeam vendor format
0406_20090121_021806_ShipName.all.mb56.gz 2.25MB Simrad multibeam vendor format
0407_20090121_024807_ShipName.all.mb56.gz 2.17MB Simrad multibeam vendor format
0408_20090121_031807_ShipName.all.mb56.gz 2.19MB Simrad multibeam vendor format
0409_20090121_034807_ShipName.all.mb56.gz 2.18MB Simrad multibeam vendor format
0410_20090121_041808_ShipName.all.mb56.gz 2.21MB Simrad multibeam vendor format
0411_20090121_044808_ShipName.all.mb56.gz 2.19MB Simrad multibeam vendor format
0412_20090121_051808_ShipName.all.mb56.gz 2.22MB Simrad multibeam vendor format
0413_20090121_054808_ShipName.all.mb56.gz 2.21MB Simrad multibeam vendor format
0414_20090121_061808_ShipName.all.mb56.gz 2.16MB Simrad multibeam vendor format
0415_20090121_064807_ShipName.all.mb56.gz 2.19MB Simrad multibeam vendor format
0416_20090121_071807_ShipName.all.mb56.gz 2.19MB Simrad multibeam vendor format
0417_20090121_074807_ShipName.all.mb56.gz 2.17MB Simrad multibeam vendor format
0418_20090121_081807_ShipName.all.mb56.gz 2.19MB Simrad multibeam vendor format
0419_20090121_084807_ShipName.all.mb56.gz 2.16MB Simrad multibeam vendor format
0420_20090121_091807_ShipName.all.mb56.gz 2.31MB Simrad multibeam vendor format
0421_20090121_094807_ShipName.all.mb56.gz 2.17MB Simrad multibeam vendor format
0422_20090121_101807_ShipName.all.mb56.gz 2.23MB Simrad multibeam vendor format
0423_20090121_104807_ShipName.all.mb56.gz 2.22MB Simrad multibeam vendor format
0424_20090121_111807_ShipName.all.mb56.gz 2.20MB Simrad multibeam vendor format
0425_20090121_114807_ShipName.all.mb56.gz 2.18MB Simrad multibeam vendor format
0426_20090121_121807_ShipName.all.mb56.gz 2.19MB Simrad multibeam vendor format
0427_20090121_124807_ShipName.all.mb56.gz 2.24MB Simrad multibeam vendor format
0428_20090121_131807_ShipName.all.mb56.gz 2.21MB Simrad multibeam vendor format
0429_20090121_134807_ShipName.all.mb56.gz 2.18MB Simrad multibeam vendor format
0430_20090121_141807_ShipName.all.mb56.gz 2.20MB Simrad multibeam vendor format
0431_20090121_144807_ShipName.all.mb56.gz 2.16MB Simrad multibeam vendor format
0432_20090121_151807_ShipName.all.mb56.gz 2.21MB Simrad multibeam vendor format
0433_20090121_154807_ShipName.all.mb56.gz 2.14MB Simrad multibeam vendor format
0434_20090121_161807_ShipName.all.mb56.gz 2.19MB Simrad multibeam vendor format
0435_20090121_164807_ShipName.all.mb56.gz 2.11MB Simrad multibeam vendor format
0436_20090121_171807_ShipName.all.mb56.gz 2.17MB Simrad multibeam vendor format
0437_20090121_174807_ShipName.all.mb56.gz 2.17MB Simrad multibeam vendor format
0438_20090121_181807_ShipName.all.mb56.gz 2.20MB Simrad multibeam vendor format
0439_20090121_184807_ShipName.all.mb56.gz 2.23MB Simrad multibeam vendor format
0440_20090121_191807_ShipName.all.mb56.gz 2.22MB Simrad multibeam vendor format
0441_20090121_194807_ShipName.all.mb56.gz 2.17MB Simrad multibeam vendor format
0442_20090121_201807_ShipName.all.mb56.gz 2.15MB Simrad multibeam vendor format
0443_20090121_204807_ShipName.all.mb56.gz 2.20MB Simrad multibeam vendor format
0444_20090121_211807_ShipName.all.mb56.gz 2.21MB Simrad multibeam vendor format
0445_20090121_214807_ShipName.all.mb56.gz 2.19MB Simrad multibeam vendor format
0446_20090121_221807_ShipName.all.mb56.gz 2.19MB Simrad multibeam vendor format
0447_20090121_224807_ShipName.all.mb56.gz 2.22MB Simrad multibeam vendor format
0448_20090121_231807_ShipName.all.mb56.gz 2.21MB Simrad multibeam vendor format
0449_20090121_234807_ShipName.all.mb56.gz 2.11MB Simrad multibeam vendor format
0450_20090122_001807_ShipName.all.mb56.gz 2.18MB Simrad multibeam vendor format
0451_20090122_004807_ShipName.all.mb56.gz 2.19MB Simrad multibeam vendor format
0452_20090122_011807_ShipName.all.mb56.gz 2.20MB Simrad multibeam vendor format
0453_20090122_014807_ShipName.all.mb56.gz 2.11MB Simrad multibeam vendor format
0454_20090122_021807_ShipName.all.mb56.gz 2.20MB Simrad multibeam vendor format
0455_20090122_024807_ShipName.all.mb56.gz 2.15MB Simrad multibeam vendor format
0456_20090122_031807_ShipName.all.mb56.gz 2.14MB Simrad multibeam vendor format
0457_20090122_034807_ShipName.all.mb56.gz 2.22MB Simrad multibeam vendor format
0458_20090122_041807_ShipName.all.mb56.gz 2.21MB Simrad multibeam vendor format
0459_20090122_044807_ShipName.all.mb56.gz 2.16MB Simrad multibeam vendor format
0460_20090122_051807_ShipName.all.mb56.gz 2.14MB Simrad multibeam vendor format
0461_20090122_054807_ShipName.all.mb56.gz 2.17MB Simrad multibeam vendor format
0462_20090122_061807_ShipName.all.mb56.gz 2.21MB Simrad multibeam vendor format
0463_20090122_064807_ShipName.all.mb56.gz 2.22MB Simrad multibeam vendor format
0464_20090122_071807_ShipName.all.mb56.gz 2.32MB Simrad multibeam vendor format
0465_20090122_074806_ShipName.all.mb56.gz 2.27MB Simrad multibeam vendor format
0466_20090122_081806_ShipName.all.mb56.gz 2.36MB Simrad multibeam vendor format
0467_20090122_084806_ShipName.all.mb56.gz 2.36MB Simrad multibeam vendor format
0468_20090122_091806_ShipName.all.mb56.gz 2.10MB Simrad multibeam vendor format
0469_20090122_094806_ShipName.all.mb56.gz 2.32MB Simrad multibeam vendor format
0470_20090122_101806_ShipName.all.mb56.gz 2.21MB Simrad multibeam vendor format
0471_20090122_104806_ShipName.all.mb56.gz 2.19MB Simrad multibeam vendor format
0472_20090122_111806_ShipName.all.mb56.gz 2.33MB Simrad multibeam vendor format
0473_20090122_114806_ShipName.all.mb56.gz 2.27MB Simrad multibeam vendor format
0474_20090122_121806_ShipName.all.mb56.gz 2.29MB Simrad multibeam vendor format
0475_20090122_124806_ShipName.all.mb56.gz 2.31MB Simrad multibeam vendor format
0476_20090122_131806_ShipName.all.mb56.gz 2.34MB Simrad multibeam vendor format
0477_20090122_134806_ShipName.all.mb56.gz 2.22MB Simrad multibeam vendor format
0478_20090122_141806_ShipName.all.mb56.gz 2.16MB Simrad multibeam vendor format
0479_20090122_144806_ShipName.all.mb56.gz 1.89MB Simrad multibeam vendor format
0480_20090122_151806_ShipName.all.mb56.gz 2.23MB Simrad multibeam vendor format
0481_20090122_154806_ShipName.all.mb56.gz 2.27MB Simrad multibeam vendor format
0482_20090122_161806_ShipName.all.mb56.gz 2.22MB Simrad multibeam vendor format
0483_20090122_164806_ShipName.all.mb56.gz 2.22MB Simrad multibeam vendor format
0484_20090122_171806_ShipName.all.mb56.gz 2.17MB Simrad multibeam vendor format
0485_20090122_174806_ShipName.all.mb56.gz 2.18MB Simrad multibeam vendor format
0486_20090122_181806_ShipName.all.mb56.gz 2.23MB Simrad multibeam vendor format
0487_20090122_184806_ShipName.all.mb56.gz 2.20MB Simrad multibeam vendor format
0488_20090122_191806_ShipName.all.mb56.gz 2.20MB Simrad multibeam vendor format
0489_20090122_194806_ShipName.all.mb56.gz 2.29MB Simrad multibeam vendor format
0490_20090122_201806_ShipName.all.mb56.gz 2.16MB Simrad multibeam vendor format
0491_20090122_204806_ShipName.all.mb56.gz 2.22MB Simrad multibeam vendor format
0492_20090122_211806_ShipName.all.mb56.gz 2.24MB Simrad multibeam vendor format
0493_20090122_214806_ShipName.all.mb56.gz 2.28MB Simrad multibeam vendor format
0494_20090122_221806_ShipName.all.mb56.gz 2.13MB Simrad multibeam vendor format
0495_20090122_224806_ShipName.all.mb56.gz 2.19MB Simrad multibeam vendor format
0496_20090122_231806_ShipName.all.mb56.gz 2.15MB Simrad multibeam vendor format
0497_20090122_234806_ShipName.all.mb56.gz 2.11MB Simrad multibeam vendor format
0498_20090123_001806_ShipName.all.mb56.gz 2.08MB Simrad multibeam vendor format
0499_20090123_004806_ShipName.all.mb56.gz 2.12MB Simrad multibeam vendor format
0500_20090123_011806_ShipName.all.mb56.gz 2.19MB Simrad multibeam vendor format
0501_20090123_014806_ShipName.all.mb56.gz 2.13MB Simrad multibeam vendor format
0502_20090123_021806_ShipName.all.mb56.gz 2.17MB Simrad multibeam vendor format
0503_20090123_024806_ShipName.all.mb56.gz 2.18MB Simrad multibeam vendor format
0504_20090123_031806_ShipName.all.mb56.gz 2.31MB Simrad multibeam vendor format
0505_20090123_034806_ShipName.all.mb56.gz 2.26MB Simrad multibeam vendor format
0506_20090123_041806_ShipName.all.mb56.gz 2.19MB Simrad multibeam vendor format
0507_20090123_044806_ShipName.all.mb56.gz 2.08MB Simrad multibeam vendor format
0508_20090123_051806_ShipName.all.mb56.gz 2.10MB Simrad multibeam vendor format
0509_20090123_054806_ShipName.all.mb56.gz 2.09MB Simrad multibeam vendor format
0510_20090123_061806_ShipName.all.mb56.gz 2.10MB Simrad multibeam vendor format
0511_20090123_064806_ShipName.all.mb56.gz 2.07MB Simrad multibeam vendor format
0512_20090123_071806_ShipName.all.mb56.gz 2.07MB Simrad multibeam vendor format
0513_20090123_074806_ShipName.all.mb56.gz 2.12MB Simrad multibeam vendor format
0514_20090123_081806_ShipName.all.mb56.gz 2.19MB Simrad multibeam vendor format
0515_20090123_084806_ShipName.all.mb56.gz 2.22MB Simrad multibeam vendor format
0516_20090123_091806_ShipName.all.mb56.gz 2.12MB Simrad multibeam vendor format
0517_20090123_094805_ShipName.all.mb56.gz 2.15MB Simrad multibeam vendor format
0518_20090123_101805_ShipName.all.mb56.gz 2.16MB Simrad multibeam vendor format
0519_20090123_104805_ShipName.all.mb56.gz 2.15MB Simrad multibeam vendor format
0520_20090123_111805_ShipName.all.mb56.gz 2.07MB Simrad multibeam vendor format
0521_20090123_114805_ShipName.all.mb56.gz 2.16MB Simrad multibeam vendor format
0522_20090123_121805_ShipName.all.mb56.gz 2.21MB Simrad multibeam vendor format
0523_20090123_124805_ShipName.all.mb56.gz 2.16MB Simrad multibeam vendor format
0524_20090123_131805_ShipName.all.mb56.gz 2.12MB Simrad multibeam vendor format
0525_20090123_134805_ShipName.all.mb56.gz 2.08MB Simrad multibeam vendor format
0526_20090123_141805_ShipName.all.mb56.gz 2.13MB Simrad multibeam vendor format
0527_20090123_144805_ShipName.all.mb56.gz 2.16MB Simrad multibeam vendor format
0528_20090123_151805_ShipName.all.mb56.gz 2.10MB Simrad multibeam vendor format
0529_20090123_154805_ShipName.all.mb56.gz 2.09MB Simrad multibeam vendor format
0530_20090123_161805_ShipName.all.mb56.gz 2.12MB Simrad multibeam vendor format
0531_20090123_164805_ShipName.all.mb56.gz 2.16MB Simrad multibeam vendor format
0532_20090123_171805_ShipName.all.mb56.gz 2.23MB Simrad multibeam vendor format
0533_20090123_174805_ShipName.all.mb56.gz 2.25MB Simrad multibeam vendor format
0534_20090123_181805_ShipName.all.mb56.gz 2.18MB Simrad multibeam vendor format
0535_20090123_184805_ShipName.all.mb56.gz 2.23MB Simrad multibeam vendor format
0536_20090123_191805_ShipName.all.mb56.gz 2.26MB Simrad multibeam vendor format
0537_20090123_194805_ShipName.all.mb56.gz 2.19MB Simrad multibeam vendor format
0538_20090123_201805_ShipName.all.mb56.gz 2.29MB Simrad multibeam vendor format
0539_20090123_204805_ShipName.all.mb56.gz 2.19MB Simrad multibeam vendor format
0540_20090123_211805_ShipName.all.mb56.gz 2.12MB Simrad multibeam vendor format
0541_20090123_214805_ShipName.all.mb56.gz 2.19MB Simrad multibeam vendor format
0542_20090123_221805_ShipName.all.mb56.gz 2.14MB Simrad multibeam vendor format
0543_20090123_224805_ShipName.all.mb56.gz 2.12MB Simrad multibeam vendor format
0544_20090123_231805_ShipName.all.mb56.gz 2.11MB Simrad multibeam vendor format
0545_20090123_234805_ShipName.all.mb56.gz 2.13MB Simrad multibeam vendor format
0546_20090124_001805_ShipName.all.mb56.gz 2.13MB Simrad multibeam vendor format
0547_20090124_004805_ShipName.all.mb56.gz 2.11MB Simrad multibeam vendor format
0548_20090124_011805_ShipName.all.mb56.gz 2.11MB Simrad multibeam vendor format
0549_20090124_014805_ShipName.all.mb56.gz 2.23MB Simrad multibeam vendor format
0550_20090124_021805_ShipName.all.mb56.gz 2.17MB Simrad multibeam vendor format
0551_20090124_024805_ShipName.all.mb56.gz 2.14MB Simrad multibeam vendor format
0552_20090124_031805_ShipName.all.mb56.gz 2.10MB Simrad multibeam vendor format
0553_20090124_034805_ShipName.all.mb56.gz 2.21MB Simrad multibeam vendor format
0554_20090124_041805_ShipName.all.mb56.gz 2.25MB Simrad multibeam vendor format
0555_20090124_044805_ShipName.all.mb56.gz 2.16MB Simrad multibeam vendor format
0556_20090124_051805_ShipName.all.mb56.gz 2.13MB Simrad multibeam vendor format
0557_20090124_054805_ShipName.all.mb56.gz 2.16MB Simrad multibeam vendor format
0558_20090124_061805_ShipName.all.mb56.gz 2.21MB Simrad multibeam vendor format
0559_20090124_064805_ShipName.all.mb56.gz 2.26MB Simrad multibeam vendor format
0560_20090124_071805_ShipName.all.mb56.gz 2.15MB Simrad multibeam vendor format
0561_20090124_074805_ShipName.all.mb56.gz 2.14MB Simrad multibeam vendor format
0562_20090124_081805_ShipName.all.mb56.gz 2.07MB Simrad multibeam vendor format
0563_20090124_084805_ShipName.all.mb56.gz 2.09MB Simrad multibeam vendor format
0564_20090124_091805_ShipName.all.mb56.gz 2.07MB Simrad multibeam vendor format
0565_20090124_094805_ShipName.all.mb56.gz 2.07MB Simrad multibeam vendor format
0566_20090124_101804_ShipName.all.mb56.gz 2.07MB Simrad multibeam vendor format
0567_20090124_104804_ShipName.all.mb56.gz 2.06MB Simrad multibeam vendor format
0568_20090124_111804_ShipName.all.mb56.gz 2.14MB Simrad multibeam vendor format
0569_20090124_114804_ShipName.all.mb56.gz 2.17MB Simrad multibeam vendor format
0570_20090124_121804_ShipName.all.mb56.gz 2.15MB Simrad multibeam vendor format
0571_20090124_124804_ShipName.all.mb56.gz 2.24MB Simrad multibeam vendor format
0572_20090124_131804_ShipName.all.mb56.gz 2.10MB Simrad multibeam vendor format
0573_20090124_134804_ShipName.all.mb56.gz 2.13MB Simrad multibeam vendor format
0574_20090124_141804_ShipName.all.mb56.gz 2.26MB Simrad multibeam vendor format
0575_20090124_144804_ShipName.all.mb56.gz 2.21MB Simrad multibeam vendor format
0576_20090124_151804_ShipName.all.mb56.gz 2.17MB Simrad multibeam vendor format
0577_20090124_154804_ShipName.all.mb56.gz 2.12MB Simrad multibeam vendor format
0578_20090124_161804_ShipName.all.mb56.gz 2.16MB Simrad multibeam vendor format
0579_20090124_164804_ShipName.all.mb56.gz 2.20MB Simrad multibeam vendor format
0580_20090124_171804_ShipName.all.mb56.gz 2.22MB Simrad multibeam vendor format
0581_20090124_174804_ShipName.all.mb56.gz 2.17MB Simrad multibeam vendor format
0582_20090124_181805_ShipName.all.mb56.gz 2.13MB Simrad multibeam vendor format
0583_20090124_184804_ShipName.all.mb56.gz 2.10MB Simrad multibeam vendor format
0584_20090124_191804_ShipName.all.mb56.gz 2.08MB Simrad multibeam vendor format
0585_20090124_194804_ShipName.all.mb56.gz 2.08MB Simrad multibeam vendor format
0586_20090124_201804_ShipName.all.mb56.gz 2.06MB Simrad multibeam vendor format
0587_20090124_204804_ShipName.all.mb56.gz 2.13MB Simrad multibeam vendor format
0588_20090124_211804_ShipName.all.mb56.gz 2.16MB Simrad multibeam vendor format
0589_20090124_214804_ShipName.all.mb56.gz 2.21MB Simrad multibeam vendor format
0590_20090124_221804_ShipName.all.mb56.gz 2.21MB Simrad multibeam vendor format
0591_20090124_224804_ShipName.all.mb56.gz 2.19MB Simrad multibeam vendor format
0592_20090124_231804_ShipName.all.mb56.gz 2.09MB Simrad multibeam vendor format
0593_20090124_234804_ShipName.all.mb56.gz 2.03MB Simrad multibeam vendor format
0594_20090125_001804_ShipName.all.mb56.gz 2.12MB Simrad multibeam vendor format
0595_20090125_004804_ShipName.all.mb56.gz 2.15MB Simrad multibeam vendor format
0596_20090125_011804_ShipName.all.mb56.gz 2.10MB Simrad multibeam vendor format
0597_20090125_014804_ShipName.all.mb56.gz 2.13MB Simrad multibeam vendor format
0598_20090125_021804_ShipName.all.mb56.gz 2.16MB Simrad multibeam vendor format
0599_20090125_024804_ShipName.all.mb56.gz 2.16MB Simrad multibeam vendor format
0600_20090125_031804_ShipName.all.mb56.gz 2.03MB Simrad multibeam vendor format
0601_20090125_034804_ShipName.all.mb56.gz 2.03MB Simrad multibeam vendor format
0602_20090125_041804_ShipName.all.mb56.gz 2.02MB Simrad multibeam vendor format
0603_20090125_044804_ShipName.all.mb56.gz 2.02MB Simrad multibeam vendor format
0604_20090125_051804_ShipName.all.mb56.gz 2.01MB Simrad multibeam vendor format
0605_20090125_054804_ShipName.all.mb56.gz 2.01MB Simrad multibeam vendor format
0606_20090125_061804_ShipName.all.mb56.gz 1.97MB Simrad multibeam vendor format
0607_20090125_064804_ShipName.all.mb56.gz 2.06MB Simrad multibeam vendor format
0608_20090125_071804_ShipName.all.mb56.gz 2.09MB Simrad multibeam vendor format
0609_20090125_074804_ShipName.all.mb56.gz 2.10MB Simrad multibeam vendor format
0610_20090125_081804_ShipName.all.mb56.gz 2.11MB Simrad multibeam vendor format
0611_20090125_084804_ShipName.all.mb56.gz 2.08MB Simrad multibeam vendor format
0612_20090125_091804_ShipName.all.mb56.gz 2.09MB Simrad multibeam vendor format
0613_20090125_094804_ShipName.all.mb56.gz 2.08MB Simrad multibeam vendor format
0614_20090125_101804_ShipName.all.mb56.gz 2.05MB Simrad multibeam vendor format
0615_20090125_104804_ShipName.all.mb56.gz 2.04MB Simrad multibeam vendor format
0616_20090125_111804_ShipName.all.mb56.gz 2.07MB Simrad multibeam vendor format
0617_20090125_114804_ShipName.all.mb56.gz 2.03MB Simrad multibeam vendor format
0618_20090125_121804_ShipName.all.mb56.gz 2.03MB Simrad multibeam vendor format
0619_20090125_124804_ShipName.all.mb56.gz 1.99MB Simrad multibeam vendor format
0620_20090125_131804_ShipName.all.mb56.gz 1.89MB Simrad multibeam vendor format
0621_20090125_134804_ShipName.all.mb56.gz 1.91MB Simrad multibeam vendor format
0622_20090125_141804_ShipName.all.mb56.gz 1.89MB Simrad multibeam vendor format
0623_20090125_144803_ShipName.all.mb56.gz 1.91MB Simrad multibeam vendor format
0624_20090125_151803_ShipName.all.mb56.gz 1.88MB Simrad multibeam vendor format
0625_20090125_154803_ShipName.all.mb56.gz 1.93MB Simrad multibeam vendor format
0626_20090125_161803_ShipName.all.mb56.gz 1.87MB Simrad multibeam vendor format
0627_20090125_164803_ShipName.all.mb56.gz 1.87MB Simrad multibeam vendor format
0628_20090125_171803_ShipName.all.mb56.gz 1.88MB Simrad multibeam vendor format
0629_20090125_174803_ShipName.all.mb56.gz 1.91MB Simrad multibeam vendor format
0630_20090125_181803_ShipName.all.mb56.gz 1.92MB Simrad multibeam vendor format
0631_20090125_184803_ShipName.all.mb56.gz 1.86MB Simrad multibeam vendor format
0632_20090125_191803_ShipName.all.mb56.gz 1.91MB Simrad multibeam vendor format
0633_20090125_194803_ShipName.all.mb56.gz 1.88MB Simrad multibeam vendor format
0634_20090125_201803_ShipName.all.mb56.gz 1.89MB Simrad multibeam vendor format
0635_20090125_204803_ShipName.all.mb56.gz 1.90MB Simrad multibeam vendor format
0636_20090125_211803_ShipName.all.mb56.gz 1.89MB Simrad multibeam vendor format
0637_20090125_214803_ShipName.all.mb56.gz 1.87MB Simrad multibeam vendor format
0638_20090125_221803_ShipName.all.mb56.gz 1.89MB Simrad multibeam vendor format
0639_20090125_224803_ShipName.all.mb56.gz 1.89MB Simrad multibeam vendor format
0640_20090125_231803_ShipName.all.mb56.gz 1.91MB Simrad multibeam vendor format
0641_20090125_234803_ShipName.all.mb56.gz 2.06MB Simrad multibeam vendor format
0642_20090126_001803_ShipName.all.mb56.gz 2.05MB Simrad multibeam vendor format
0643_20090126_004803_ShipName.all.mb56.gz 1.96MB Simrad multibeam vendor format
0644_20090126_011803_ShipName.all.mb56.gz 1.90MB Simrad multibeam vendor format
0645_20090126_014803_ShipName.all.mb56.gz 1.89MB Simrad multibeam vendor format
0646_20090126_021803_ShipName.all.mb56.gz 1.87MB Simrad multibeam vendor format
0647_20090126_024803_ShipName.all.mb56.gz 1.87MB Simrad multibeam vendor format
0648_20090126_031803_ShipName.all.mb56.gz 1.84MB Simrad multibeam vendor format
0649_20090126_034803_ShipName.all.mb56.gz 1.85MB Simrad multibeam vendor format
0650_20090126_041803_ShipName.all.mb56.gz 1.90MB Simrad multibeam vendor format
0651_20090126_044803_ShipName.all.mb56.gz 1.85MB Simrad multibeam vendor format
0652_20090126_051803_ShipName.all.mb56.gz 1.88MB Simrad multibeam vendor format
0653_20090126_054803_ShipName.all.mb56.gz 1.93MB Simrad multibeam vendor format
0654_20090126_061803_ShipName.all.mb56.gz 1.89MB Simrad multibeam vendor format
0655_20090126_064803_ShipName.all.mb56.gz 1.88MB Simrad multibeam vendor format
0656_20090126_071803_ShipName.all.mb56.gz 1.88MB Simrad multibeam vendor format
0657_20090126_074803_ShipName.all.mb56.gz 1.90MB Simrad multibeam vendor format
0658_20090126_081803_ShipName.all.mb56.gz 1.94MB Simrad multibeam vendor format
0659_20090126_084803_ShipName.all.mb56.gz 1.96MB Simrad multibeam vendor format
0660_20090126_091803_ShipName.all.mb56.gz 1.92MB Simrad multibeam vendor format
0661_20090126_094803_ShipName.all.mb56.gz 1.92MB Simrad multibeam vendor format
0662_20090126_101803_ShipName.all.mb56.gz 1.88MB Simrad multibeam vendor format
0663_20090126_104803_ShipName.all.mb56.gz 1.89MB Simrad multibeam vendor format
0664_20090126_111803_ShipName.all.mb56.gz 1.88MB Simrad multibeam vendor format
0665_20090126_114803_ShipName.all.mb56.gz 1.88MB Simrad multibeam vendor format
0666_20090126_121803_ShipName.all.mb56.gz 1.91MB Simrad multibeam vendor format
0667_20090126_124803_ShipName.all.mb56.gz 1.89MB Simrad multibeam vendor format
0668_20090126_131803_ShipName.all.mb56.gz 1.88MB Simrad multibeam vendor format
0669_20090126_134803_ShipName.all.mb56.gz 1.93MB Simrad multibeam vendor format
0670_20090126_141803_ShipName.all.mb56.gz 1.92MB Simrad multibeam vendor format
0671_20090126_144803_ShipName.all.mb56.gz 1.93MB Simrad multibeam vendor format
0672_20090126_151803_ShipName.all.mb56.gz 1.89MB Simrad multibeam vendor format
0673_20090126_154803_ShipName.all.mb56.gz 1.94MB Simrad multibeam vendor format
0674_20090126_161803_ShipName.all.mb56.gz 1.89MB Simrad multibeam vendor format
0675_20090126_164803_ShipName.all.mb56.gz 1.96MB Simrad multibeam vendor format
0676_20090126_171803_ShipName.all.mb56.gz 2.00MB Simrad multibeam vendor format
0677_20090126_174803_ShipName.all.mb56.gz 2.03MB Simrad multibeam vendor format
0678_20090126_181803_ShipName.all.mb56.gz 1.95MB Simrad multibeam vendor format
0679_20090126_184803_ShipName.all.mb56.gz 1.96MB Simrad multibeam vendor format
0680_20090126_191803_ShipName.all.mb56.gz 1.89MB Simrad multibeam vendor format
0681_20090126_194803_ShipName.all.mb56.gz 1.89MB Simrad multibeam vendor format
0682_20090126_201802_ShipName.all.mb56.gz 1.91MB Simrad multibeam vendor format
0683_20090126_204802_ShipName.all.mb56.gz 1.93MB Simrad multibeam vendor format
0684_20090126_211802_ShipName.all.mb56.gz 1.93MB Simrad multibeam vendor format
0685_20090126_214802_ShipName.all.mb56.gz 1.96MB Simrad multibeam vendor format
0686_20090126_221802_ShipName.all.mb56.gz 1.99MB Simrad multibeam vendor format
0687_20090126_224802_ShipName.all.mb56.gz 2.04MB Simrad multibeam vendor format
0688_20090126_231802_ShipName.all.mb56.gz 2.02MB Simrad multibeam vendor format
0689_20090126_234802_ShipName.all.mb56.gz 2.01MB Simrad multibeam vendor format
0690_20090127_001802_ShipName.all.mb56.gz 2.07MB Simrad multibeam vendor format
0691_20090127_004802_ShipName.all.mb56.gz 2.08MB Simrad multibeam vendor format
0692_20090127_011802_ShipName.all.mb56.gz 2.12MB Simrad multibeam vendor format
0693_20090127_014802_ShipName.all.mb56.gz 2.16MB Simrad multibeam vendor format
0694_20090127_021802_ShipName.all.mb56.gz 2.13MB Simrad multibeam vendor format
0695_20090127_024802_ShipName.all.mb56.gz 2.03MB Simrad multibeam vendor format
0696_20090127_031802_ShipName.all.mb56.gz 1.96MB Simrad multibeam vendor format
0697_20090127_034802_ShipName.all.mb56.gz 2.03MB Simrad multibeam vendor format
0698_20090127_041802_ShipName.all.mb56.gz 2.15MB Simrad multibeam vendor format
0699_20090127_044802_ShipName.all.mb56.gz 2.13MB Simrad multibeam vendor format
0700_20090127_051802_ShipName.all.mb56.gz 2.08MB Simrad multibeam vendor format
0701_20090127_054802_ShipName.all.mb56.gz 2.06MB Simrad multibeam vendor format
0702_20090127_061802_ShipName.all.mb56.gz 2.06MB Simrad multibeam vendor format
0703_20090127_064802_ShipName.all.mb56.gz 2.02MB Simrad multibeam vendor format
0704_20090127_071802_ShipName.all.mb56.gz 1.97MB Simrad multibeam vendor format
0705_20090127_074802_ShipName.all.mb56.gz 2.00MB Simrad multibeam vendor format
0706_20090127_081802_ShipName.all.mb56.gz 2.03MB Simrad multibeam vendor format
0707_20090127_084802_ShipName.all.mb56.gz 2.03MB Simrad multibeam vendor format
0708_20090127_091802_ShipName.all.mb56.gz 2.03MB Simrad multibeam vendor format
0709_20090127_094802_ShipName.all.mb56.gz 2.03MB Simrad multibeam vendor format
0710_20090127_101802_ShipName.all.mb56.gz 2.07MB Simrad multibeam vendor format
0711_20090127_104802_ShipName.all.mb56.gz 2.00MB Simrad multibeam vendor format
0712_20090127_111802_ShipName.all.mb56.gz 2.03MB Simrad multibeam vendor format
0713_20090127_114802_ShipName.all.mb56.gz 1.98MB Simrad multibeam vendor format
0714_20090127_121802_ShipName.all.mb56.gz 2.02MB Simrad multibeam vendor format
0715_20090127_124802_ShipName.all.mb56.gz 2.08MB Simrad multibeam vendor format
0716_20090127_131802_ShipName.all.mb56.gz 2.04MB Simrad multibeam vendor format
0717_20090127_134802_ShipName.all.mb56.gz 2.05MB Simrad multibeam vendor format
0718_20090127_141802_ShipName.all.mb56.gz 2.07MB Simrad multibeam vendor format
0719_20090127_144802_ShipName.all.mb56.gz 2.07MB Simrad multibeam vendor format
0720_20090127_151802_ShipName.all.mb56.gz 2.02MB Simrad multibeam vendor format
0721_20090127_154801_ShipName.all.mb56.gz 2.11MB Simrad multibeam vendor format
0722_20090127_161801_ShipName.all.mb56.gz 2.05MB Simrad multibeam vendor format
0723_20090127_164801_ShipName.all.mb56.gz 2.07MB Simrad multibeam vendor format
0724_20090127_171802_ShipName.all.mb56.gz 1.99MB Simrad multibeam vendor format
0725_20090127_174802_ShipName.all.mb56.gz 2.04MB Simrad multibeam vendor format
0726_20090127_181802_ShipName.all.mb56.gz 2.03MB Simrad multibeam vendor format
0727_20090127_184802_ShipName.all.mb56.gz 2.04MB Simrad multibeam vendor format
0728_20090127_191802_ShipName.all.mb56.gz 2.06MB Simrad multibeam vendor format
0729_20090127_194802_ShipName.all.mb56.gz 2.05MB Simrad multibeam vendor format
0730_20090127_201803_ShipName.all.mb56.gz 2.03MB Simrad multibeam vendor format
0731_20090127_204803_ShipName.all.mb56.gz 2.01MB Simrad multibeam vendor format
0732_20090127_211803_ShipName.all.mb56.gz 2.02MB Simrad multibeam vendor format
0733_20090127_214803_ShipName.all.mb56.gz 2.00MB Simrad multibeam vendor format
0734_20090127_221803_ShipName.all.mb56.gz 2.06MB Simrad multibeam vendor format
0735_20090127_224804_ShipName.all.mb56.gz 2.10MB Simrad multibeam vendor format
0736_20090127_231804_ShipName.all.mb56.gz 2.11MB Simrad multibeam vendor format
0737_20090127_234804_ShipName.all.mb56.gz 2.10MB Simrad multibeam vendor format
0738_20090128_001804_ShipName.all.mb56.gz 2.10MB Simrad multibeam vendor format
0739_20090128_004805_ShipName.all.mb56.gz 2.11MB Simrad multibeam vendor format
0740_20090128_011805_ShipName.all.mb56.gz 2.06MB Simrad multibeam vendor format
0741_20090128_014805_ShipName.all.mb56.gz 2.00MB Simrad multibeam vendor format
0742_20090128_021805_ShipName.all.mb56.gz 2.10MB Simrad multibeam vendor format
0743_20090128_024805_ShipName.all.mb56.gz 2.16MB Simrad multibeam vendor format
0744_20090128_031806_ShipName.all.mb56.gz 2.17MB Simrad multibeam vendor format
0745_20090128_034806_ShipName.all.mb56.gz 2.15MB Simrad multibeam vendor format
0746_20090128_041806_ShipName.all.mb56.gz 2.19MB Simrad multibeam vendor format
0747_20090128_044806_ShipName.all.mb56.gz 0.81MB Simrad multibeam vendor format
0748_20090131_014750_ShipName.all.mb56.gz 2.06MB Simrad multibeam vendor format
0749_20090131_021750_ShipName.all.mb56.gz 2.18MB Simrad multibeam vendor format
0750_20090131_024750_ShipName.all.mb56.gz 2.05MB Simrad multibeam vendor format
0751_20090131_031750_ShipName.all.mb56.gz 1.94MB Simrad multibeam vendor format
0752_20090131_034750_ShipName.all.mb56.gz 2.04MB Simrad multibeam vendor format
0753_20090131_041750_ShipName.all.mb56.gz 2.06MB Simrad multibeam vendor format
0754_20090131_044750_ShipName.all.mb56.gz 1.98MB Simrad multibeam vendor format
0755_20090131_051750_ShipName.all.mb56.gz 2.10MB Simrad multibeam vendor format
0756_20090131_054750_ShipName.all.mb56.gz 2.16MB Simrad multibeam vendor format
0757_20090131_061750_ShipName.all.mb56.gz 2.13MB Simrad multibeam vendor format
0758_20090131_064750_ShipName.all.mb56.gz 2.11MB Simrad multibeam vendor format
0759_20090131_071750_ShipName.all.mb56.gz 2.08MB Simrad multibeam vendor format
0760_20090131_074750_ShipName.all.mb56.gz 2.08MB Simrad multibeam vendor format
0761_20090131_081750_ShipName.all.mb56.gz 2.10MB Simrad multibeam vendor format
0762_20090131_084750_ShipName.all.mb56.gz 2.04MB Simrad multibeam vendor format
0763_20090131_091750_ShipName.all.mb56.gz 2.10MB Simrad multibeam vendor format
0764_20090131_094750_ShipName.all.mb56.gz 2.09MB Simrad multibeam vendor format
0765_20090131_101750_ShipName.all.mb56.gz 2.07MB Simrad multibeam vendor format
0766_20090131_104750_ShipName.all.mb56.gz 2.03MB Simrad multibeam vendor format
0767_20090131_111750_ShipName.all.mb56.gz 2.03MB Simrad multibeam vendor format
0768_20090131_114750_ShipName.all.mb56.gz 2.07MB Simrad multibeam vendor format
0769_20090131_121750_ShipName.all.mb56.gz 2.11MB Simrad multibeam vendor format
0770_20090131_124750_ShipName.all.mb56.gz 2.13MB Simrad multibeam vendor format
0771_20090131_131750_ShipName.all.mb56.gz 2.04MB Simrad multibeam vendor format
0772_20090131_134750_ShipName.all.mb56.gz 2.12MB Simrad multibeam vendor format
0773_20090131_141750_ShipName.all.mb56.gz 2.22MB Simrad multibeam vendor format
0774_20090131_144750_ShipName.all.mb56.gz 2.13MB Simrad multibeam vendor format
0775_20090131_151750_ShipName.all.mb56.gz 2.12MB Simrad multibeam vendor format
0776_20090131_154750_ShipName.all.mb56.gz 2.09MB Simrad multibeam vendor format
0777_20090131_161750_ShipName.all.mb56.gz 2.17MB Simrad multibeam vendor format
0778_20090131_164750_ShipName.all.mb56.gz 2.10MB Simrad multibeam vendor format
0779_20090131_171750_ShipName.all.mb56.gz 2.14MB Simrad multibeam vendor format
0780_20090131_174750_ShipName.all.mb56.gz 2.19MB Simrad multibeam vendor format
0781_20090131_181750_ShipName.all.mb56.gz 2.12MB Simrad multibeam vendor format
0782_20090131_184750_ShipName.all.mb56.gz 2.11MB Simrad multibeam vendor format
0783_20090131_191750_ShipName.all.mb56.gz 2.08MB Simrad multibeam vendor format
0784_20090131_194750_ShipName.all.mb56.gz 2.02MB Simrad multibeam vendor format
0785_20090131_201750_ShipName.all.mb56.gz 2.05MB Simrad multibeam vendor format
0786_20090131_204749_ShipName.all.mb56.gz 2.00MB Simrad multibeam vendor format
0787_20090131_211749_ShipName.all.mb56.gz 1.95MB Simrad multibeam vendor format
0788_20090131_214749_ShipName.all.mb56.gz 1.99MB Simrad multibeam vendor format
0789_20090131_221749_ShipName.all.mb56.gz 2.00MB Simrad multibeam vendor format
0790_20090131_224749_ShipName.all.mb56.gz 2.13MB Simrad multibeam vendor format
0791_20090131_231749_ShipName.all.mb56.gz 2.08MB Simrad multibeam vendor format
0792_20090131_234749_ShipName.all.mb56.gz 2.04MB Simrad multibeam vendor format
0793_20090201_001749_ShipName.all.mb56.gz 2.04MB Simrad multibeam vendor format
0794_20090201_004749_ShipName.all.mb56.gz 1.98MB Simrad multibeam vendor format
0795_20090201_011749_ShipName.all.mb56.gz 2.03MB Simrad multibeam vendor format
0796_20090201_014749_ShipName.all.mb56.gz 2.02MB Simrad multibeam vendor format
0797_20090201_021749_ShipName.all.mb56.gz 2.09MB Simrad multibeam vendor format
0798_20090201_024749_ShipName.all.mb56.gz 2.15MB Simrad multibeam vendor format
0799_20090201_031749_ShipName.all.mb56.gz 2.13MB Simrad multibeam vendor format
0800_20090201_034749_ShipName.all.mb56.gz 2.08MB Simrad multibeam vendor format
0801_20090201_041749_ShipName.all.mb56.gz 2.05MB Simrad multibeam vendor format
0802_20090201_044749_ShipName.all.mb56.gz 2.09MB Simrad multibeam vendor format
0803_20090201_051749_ShipName.all.mb56.gz 2.00MB Simrad multibeam vendor format
0804_20090201_054749_ShipName.all.mb56.gz 1.99MB Simrad multibeam vendor format
0805_20090201_061749_ShipName.all.mb56.gz 1.97MB Simrad multibeam vendor format
0806_20090201_064749_ShipName.all.mb56.gz 1.98MB Simrad multibeam vendor format
0807_20090201_071749_ShipName.all.mb56.gz 1.98MB Simrad multibeam vendor format
0808_20090201_074749_ShipName.all.mb56.gz 2.00MB Simrad multibeam vendor format
0809_20090201_081749_ShipName.all.mb56.gz 2.07MB Simrad multibeam vendor format
0810_20090201_084749_ShipName.all.mb56.gz 1.94MB Simrad multibeam vendor format
0811_20090201_091749_ShipName.all.mb56.gz 1.98MB Simrad multibeam vendor format
0812_20090201_094749_ShipName.all.mb56.gz 2.03MB Simrad multibeam vendor format
0813_20090201_101749_ShipName.all.mb56.gz 1.98MB Simrad multibeam vendor format
0814_20090201_104749_ShipName.all.mb56.gz 2.06MB Simrad multibeam vendor format
0815_20090201_111749_ShipName.all.mb56.gz 2.03MB Simrad multibeam vendor format
0816_20090201_114749_ShipName.all.mb56.gz 1.99MB Simrad multibeam vendor format
0817_20090201_121749_ShipName.all.mb56.gz 1.96MB Simrad multibeam vendor format
0818_20090201_124749_ShipName.all.mb56.gz 1.95MB Simrad multibeam vendor format
0819_20090201_131749_ShipName.all.mb56.gz 1.93MB Simrad multibeam vendor format
0820_20090201_134749_ShipName.all.mb56.gz 1.96MB Simrad multibeam vendor format
0821_20090201_141749_ShipName.all.mb56.gz 1.92MB Simrad multibeam vendor format
0822_20090201_144749_ShipName.all.mb56.gz 1.95MB Simrad multibeam vendor format
0823_20090201_151749_ShipName.all.mb56.gz 1.91MB Simrad multibeam vendor format
0824_20090201_154749_ShipName.all.mb56.gz 1.90MB Simrad multibeam vendor format
0825_20090201_161749_ShipName.all.mb56.gz 1.93MB Simrad multibeam vendor format
0826_20090201_164749_ShipName.all.mb56.gz 1.96MB Simrad multibeam vendor format
0827_20090201_171749_ShipName.all.mb56.gz 1.94MB Simrad multibeam vendor format
0828_20090201_174749_ShipName.all.mb56.gz 1.88MB Simrad multibeam vendor format
0829_20090201_181749_ShipName.all.mb56.gz 1.92MB Simrad multibeam vendor format
0830_20090201_184749_ShipName.all.mb56.gz 1.93MB Simrad multibeam vendor format
0831_20090201_191749_ShipName.all.mb56.gz 1.94MB Simrad multibeam vendor format
0832_20090201_194749_ShipName.all.mb56.gz 1.91MB Simrad multibeam vendor format
0833_20090201_201749_ShipName.all.mb56.gz 1.97MB Simrad multibeam vendor format
0834_20090201_204749_ShipName.all.mb56.gz 1.95MB Simrad multibeam vendor format
0835_20090201_211749_ShipName.all.mb56.gz 1.92MB Simrad multibeam vendor format
0836_20090201_214749_ShipName.all.mb56.gz 1.93MB Simrad multibeam vendor format
0837_20090201_221749_ShipName.all.mb56.gz 1.92MB Simrad multibeam vendor format
0838_20090201_224749_ShipName.all.mb56.gz 1.88MB Simrad multibeam vendor format
0839_20090201_231749_ShipName.all.mb56.gz 1.91MB Simrad multibeam vendor format
0840_20090201_234749_ShipName.all.mb56.gz 1.91MB Simrad multibeam vendor format
0841_20090202_001749_ShipName.all.mb56.gz 1.90MB Simrad multibeam vendor format
0842_20090202_004748_ShipName.all.mb56.gz 1.84MB Simrad multibeam vendor format
0843_20090202_011748_ShipName.all.mb56.gz 1.87MB Simrad multibeam vendor format
0844_20090202_014748_ShipName.all.mb56.gz 1.83MB Simrad multibeam vendor format
0845_20090202_021748_ShipName.all.mb56.gz 1.88MB Simrad multibeam vendor format
0846_20090202_024748_ShipName.all.mb56.gz 1.87MB Simrad multibeam vendor format
0847_20090202_031748_ShipName.all.mb56.gz 1.87MB Simrad multibeam vendor format
0848_20090202_034748_ShipName.all.mb56.gz 1.90MB Simrad multibeam vendor format
0849_20090202_041748_ShipName.all.mb56.gz 1.87MB Simrad multibeam vendor format
0850_20090202_044748_ShipName.all.mb56.gz 1.83MB Simrad multibeam vendor format
0851_20090202_051748_ShipName.all.mb56.gz 1.83MB Simrad multibeam vendor format
0852_20090202_054748_ShipName.all.mb56.gz 1.94MB Simrad multibeam vendor format
0853_20090202_061748_ShipName.all.mb56.gz 1.91MB Simrad multibeam vendor format
0854_20090202_064748_ShipName.all.mb56.gz 1.97MB Simrad multibeam vendor format
0855_20090202_071748_ShipName.all.mb56.gz 1.90MB Simrad multibeam vendor format
0856_20090202_074748_ShipName.all.mb56.gz 1.98MB Simrad multibeam vendor format
0857_20090202_081748_ShipName.all.mb56.gz 1.97MB Simrad multibeam vendor format
0858_20090202_084748_ShipName.all.mb56.gz 2.01MB Simrad multibeam vendor format
0859_20090202_091748_ShipName.all.mb56.gz 1.98MB Simrad multibeam vendor format
0860_20090202_094748_ShipName.all.mb56.gz 1.93MB Simrad multibeam vendor format
0861_20090202_101748_ShipName.all.mb56.gz 2.01MB Simrad multibeam vendor format
0862_20090202_104748_ShipName.all.mb56.gz 2.02MB Simrad multibeam vendor format
0863_20090202_111748_ShipName.all.mb56.gz 1.98MB Simrad multibeam vendor format
0864_20090202_114748_ShipName.all.mb56.gz 1.99MB Simrad multibeam vendor format
0865_20090202_121748_ShipName.all.mb56.gz 2.05MB Simrad multibeam vendor format
0866_20090202_124748_ShipName.all.mb56.gz 2.08MB Simrad multibeam vendor format
0867_20090202_131748_ShipName.all.mb56.gz 2.01MB Simrad multibeam vendor format
0868_20090202_134748_ShipName.all.mb56.gz 2.00MB Simrad multibeam vendor format
0869_20090202_141748_ShipName.all.mb56.gz 2.03MB Simrad multibeam vendor format
0870_20090202_144748_ShipName.all.mb56.gz 2.02MB Simrad multibeam vendor format
0871_20090202_151748_ShipName.all.mb56.gz 1.98MB Simrad multibeam vendor format
0872_20090202_154748_ShipName.all.mb56.gz 2.03MB Simrad multibeam vendor format
0873_20090202_161748_ShipName.all.mb56.gz 2.12MB Simrad multibeam vendor format
0874_20090202_164748_ShipName.all.mb56.gz 2.05MB Simrad multibeam vendor format
0875_20090202_171748_ShipName.all.mb56.gz 2.01MB Simrad multibeam vendor format
0876_20090202_174748_ShipName.all.mb56.gz 2.03MB Simrad multibeam vendor format
0877_20090202_181748_ShipName.all.mb56.gz 1.98MB Simrad multibeam vendor format
0878_20090202_184748_ShipName.all.mb56.gz 2.04MB Simrad multibeam vendor format
0879_20090202_191748_ShipName.all.mb56.gz 1.98MB Simrad multibeam vendor format
0880_20090202_194748_ShipName.all.mb56.gz 2.04MB Simrad multibeam vendor format
0881_20090202_201748_ShipName.all.mb56.gz 1.99MB Simrad multibeam vendor format
0882_20090202_204748_ShipName.all.mb56.gz 2.00MB Simrad multibeam vendor format
0883_20090202_211748_ShipName.all.mb56.gz 2.01MB Simrad multibeam vendor format
0884_20090202_214748_ShipName.all.mb56.gz 1.99MB Simrad multibeam vendor format
0885_20090202_221747_ShipName.all.mb56.gz 2.06MB Simrad multibeam vendor format
0886_20090202_224747_ShipName.all.mb56.gz 1.99MB Simrad multibeam vendor format
0887_20090202_231747_ShipName.all.mb56.gz 1.98MB Simrad multibeam vendor format
0888_20090202_234747_ShipName.all.mb56.gz 2.06MB Simrad multibeam vendor format
0889_20090203_001747_ShipName.all.mb56.gz 1.86MB Simrad multibeam vendor format
0890_20090203_004747_ShipName.all.mb56.gz 1.84MB Simrad multibeam vendor format
0891_20090203_011747_ShipName.all.mb56.gz 1.85MB Simrad multibeam vendor format
0892_20090203_014747_ShipName.all.mb56.gz 1.83MB Simrad multibeam vendor format
0893_20090203_021747_ShipName.all.mb56.gz 1.84MB Simrad multibeam vendor format
0894_20090203_024747_ShipName.all.mb56.gz 1.84MB Simrad multibeam vendor format
0895_20090203_031747_ShipName.all.mb56.gz 1.82MB Simrad multibeam vendor format
0896_20090203_034747_ShipName.all.mb56.gz 1.83MB Simrad multibeam vendor format
0897_20090203_041747_ShipName.all.mb56.gz 1.84MB Simrad multibeam vendor format
0898_20090203_044747_ShipName.all.mb56.gz 1.83MB Simrad multibeam vendor format
0899_20090203_051747_ShipName.all.mb56.gz 1.83MB Simrad multibeam vendor format
0900_20090203_054747_ShipName.all.mb56.gz 1.82MB Simrad multibeam vendor format
0901_20090203_061747_ShipName.all.mb56.gz 1.84MB Simrad multibeam vendor format
0902_20090203_064747_ShipName.all.mb56.gz 1.83MB Simrad multibeam vendor format
0903_20090203_071747_ShipName.all.mb56.gz 1.86MB Simrad multibeam vendor format
0904_20090203_074747_ShipName.all.mb56.gz 1.78MB Simrad multibeam vendor format
0905_20090203_081747_ShipName.all.mb56.gz 1.79MB Simrad multibeam vendor format
0906_20090203_084747_ShipName.all.mb56.gz 1.79MB Simrad multibeam vendor format
0907_20090203_091747_ShipName.all.mb56.gz 1.80MB Simrad multibeam vendor format
0908_20090203_094747_ShipName.all.mb56.gz 1.77MB Simrad multibeam vendor format
0909_20090203_101747_ShipName.all.mb56.gz 1.86MB Simrad multibeam vendor format
0910_20090203_104747_ShipName.all.mb56.gz 1.76MB Simrad multibeam vendor format
0911_20090203_111747_ShipName.all.mb56.gz 1.78MB Simrad multibeam vendor format
0912_20090203_114747_ShipName.all.mb56.gz 1.80MB Simrad multibeam vendor format
0913_20090203_121747_ShipName.all.mb56.gz 1.76MB Simrad multibeam vendor format
0914_20090203_124747_ShipName.all.mb56.gz 1.80MB Simrad multibeam vendor format
0915_20090203_131747_ShipName.all.mb56.gz 1.83MB Simrad multibeam vendor format
0916_20090203_134747_ShipName.all.mb56.gz 1.78MB Simrad multibeam vendor format
0917_20090203_141747_ShipName.all.mb56.gz 1.82MB Simrad multibeam vendor format
0918_20090203_144750_ShipName.all.mb56.gz 1.79MB Simrad multibeam vendor format
0919_20090203_151750_ShipName.all.mb56.gz 1.83MB Simrad multibeam vendor format
0920_20090203_154750_ShipName.all.mb56.gz 1.90MB Simrad multibeam vendor format
0921_20090203_161750_ShipName.all.mb56.gz 1.93MB Simrad multibeam vendor format
0922_20090203_164750_ShipName.all.mb56.gz 1.82MB Simrad multibeam vendor format
0923_20090203_171750_ShipName.all.mb56.gz 1.92MB Simrad multibeam vendor format
0924_20090203_174750_ShipName.all.mb56.gz 1.88MB Simrad multibeam vendor format
0925_20090203_181750_ShipName.all.mb56.gz 1.88MB Simrad multibeam vendor format
0926_20090203_184750_ShipName.all.mb56.gz 1.85MB Simrad multibeam vendor format
0927_20090203_191750_ShipName.all.mb56.gz 1.85MB Simrad multibeam vendor format
0928_20090203_194749_ShipName.all.mb56.gz 1.86MB Simrad multibeam vendor format
0929_20090203_201749_ShipName.all.mb56.gz 1.86MB Simrad multibeam vendor format
0930_20090203_204749_ShipName.all.mb56.gz 1.87MB Simrad multibeam vendor format
0931_20090203_211749_ShipName.all.mb56.gz 1.89MB Simrad multibeam vendor format
0932_20090203_214749_ShipName.all.mb56.gz 1.88MB Simrad multibeam vendor format
0933_20090203_221749_ShipName.all.mb56.gz 1.89MB Simrad multibeam vendor format
0934_20090203_224749_ShipName.all.mb56.gz 1.89MB Simrad multibeam vendor format
0935_20090203_231749_ShipName.all.mb56.gz 1.89MB Simrad multibeam vendor format
0936_20090203_234749_ShipName.all.mb56.gz 1.89MB Simrad multibeam vendor format
0937_20090204_001749_ShipName.all.mb56.gz 1.90MB Simrad multibeam vendor format
0938_20090204_004749_ShipName.all.mb56.gz 1.88MB Simrad multibeam vendor format
0939_20090204_011749_ShipName.all.mb56.gz 1.90MB Simrad multibeam vendor format
0940_20090204_014749_ShipName.all.mb56.gz 1.91MB Simrad multibeam vendor format
0941_20090204_021749_ShipName.all.mb56.gz 1.90MB Simrad multibeam vendor format
0942_20090204_024749_ShipName.all.mb56.gz 1.89MB Simrad multibeam vendor format
0943_20090204_031749_ShipName.all.mb56.gz 1.91MB Simrad multibeam vendor format
0944_20090204_034749_ShipName.all.mb56.gz 1.86MB Simrad multibeam vendor format
0945_20090204_041749_ShipName.all.mb56.gz 1.85MB Simrad multibeam vendor format
0946_20090204_044749_ShipName.all.mb56.gz 1.86MB Simrad multibeam vendor format
0947_20090204_051749_ShipName.all.mb56.gz 1.85MB Simrad multibeam vendor format
0948_20090204_054749_ShipName.all.mb56.gz 1.84MB Simrad multibeam vendor format
0949_20090204_061749_ShipName.all.mb56.gz 1.87MB Simrad multibeam vendor format
0950_20090204_064749_ShipName.all.mb56.gz 1.85MB Simrad multibeam vendor format
0951_20090204_071749_ShipName.all.mb56.gz 1.81MB Simrad multibeam vendor format
0952_20090204_074749_ShipName.all.mb56.gz 1.82MB Simrad multibeam vendor format
0953_20090204_081749_ShipName.all.mb56.gz 1.84MB Simrad multibeam vendor format
0954_20090204_084749_ShipName.all.mb56.gz 1.84MB Simrad multibeam vendor format
0955_20090204_091749_ShipName.all.mb56.gz 1.84MB Simrad multibeam vendor format
0956_20090204_094749_ShipName.all.mb56.gz 1.84MB Simrad multibeam vendor format
0957_20090204_101749_ShipName.all.mb56.gz 1.86MB Simrad multibeam vendor format
0958_20090204_104749_ShipName.all.mb56.gz 1.96MB Simrad multibeam vendor format
0959_20090204_111749_ShipName.all.mb56.gz 1.92MB Simrad multibeam vendor format
0960_20090204_114749_ShipName.all.mb56.gz 1.89MB Simrad multibeam vendor format
0961_20090204_121749_ShipName.all.mb56.gz 1.88MB Simrad multibeam vendor format
0962_20090204_124749_ShipName.all.mb56.gz 1.89MB Simrad multibeam vendor format
0963_20090204_131749_ShipName.all.mb56.gz 1.91MB Simrad multibeam vendor format
0964_20090204_134749_ShipName.all.mb56.gz 1.89MB Simrad multibeam vendor format
0965_20090204_141749_ShipName.all.mb56.gz 1.84MB Simrad multibeam vendor format
0966_20090204_144749_ShipName.all.mb56.gz 1.82MB Simrad multibeam vendor format
0967_20090204_151749_ShipName.all.mb56.gz 1.82MB Simrad multibeam vendor format
0968_20090204_154749_ShipName.all.mb56.gz 1.81MB Simrad multibeam vendor format
0969_20090204_161749_ShipName.all.mb56.gz 1.85MB Simrad multibeam vendor format
0970_20090204_164749_ShipName.all.mb56.gz 1.86MB Simrad multibeam vendor format
0971_20090204_171749_ShipName.all.mb56.gz 1.86MB Simrad multibeam vendor format
0972_20090204_174749_ShipName.all.mb56.gz 1.86MB Simrad multibeam vendor format
0973_20090204_181749_ShipName.all.mb56.gz 1.93MB Simrad multibeam vendor format
0974_20090204_184749_ShipName.all.mb56.gz 1.95MB Simrad multibeam vendor format
0975_20090204_191749_ShipName.all.mb56.gz 1.97MB Simrad multibeam vendor format
0976_20090204_194749_ShipName.all.mb56.gz 1.95MB Simrad multibeam vendor format
0977_20090204_201748_ShipName.all.mb56.gz 1.92MB Simrad multibeam vendor format
0978_20090204_204748_ShipName.all.mb56.gz 1.92MB Simrad multibeam vendor format
0979_20090204_211748_ShipName.all.mb56.gz 1.94MB Simrad multibeam vendor format
0980_20090204_214748_ShipName.all.mb56.gz 1.99MB Simrad multibeam vendor format
0981_20090204_221748_ShipName.all.mb56.gz 2.01MB Simrad multibeam vendor format
0982_20090204_224748_ShipName.all.mb56.gz 1.94MB Simrad multibeam vendor format
0983_20090204_231748_ShipName.all.mb56.gz 2.00MB Simrad multibeam vendor format
0984_20090204_234748_ShipName.all.mb56.gz 2.04MB Simrad multibeam vendor format
0985_20090205_001748_ShipName.all.mb56.gz 1.99MB Simrad multibeam vendor format
0986_20090205_004748_ShipName.all.mb56.gz 1.96MB Simrad multibeam vendor format
0987_20090205_011748_ShipName.all.mb56.gz 2.01MB Simrad multibeam vendor format
0988_20090205_014748_ShipName.all.mb56.gz 2.01MB Simrad multibeam vendor format
0989_20090205_021748_ShipName.all.mb56.gz 2.09MB Simrad multibeam vendor format
0990_20090205_024748_ShipName.all.mb56.gz 2.05MB Simrad multibeam vendor format
0991_20090205_031748_ShipName.all.mb56.gz 2.08MB Simrad multibeam vendor format
0992_20090205_034748_ShipName.all.mb56.gz 2.19MB Simrad multibeam vendor format
0993_20090205_041748_ShipName.all.mb56.gz 2.22MB Simrad multibeam vendor format
0994_20090205_044748_ShipName.all.mb56.gz 2.00MB Simrad multibeam vendor format
0995_20090205_051748_ShipName.all.mb56.gz 1.95MB Simrad multibeam vendor format
0996_20090205_054748_ShipName.all.mb56.gz 1.95MB Simrad multibeam vendor format
0997_20090205_061748_ShipName.all.mb56.gz 1.98MB Simrad multibeam vendor format
0998_20090205_064748_ShipName.all.mb56.gz 1.94MB Simrad multibeam vendor format
0999_20090205_071748_ShipName.all.mb56.gz 1.93MB Simrad multibeam vendor format
1000_20090205_074748_ShipName.all.mb56.gz 2.00MB Simrad multibeam vendor format
1001_20090205_081748_ShipName.all.mb56.gz 2.14MB Simrad multibeam vendor format
1002_20090205_084748_ShipName.all.mb56.gz 2.08MB Simrad multibeam vendor format
1003_20090205_091748_ShipName.all.mb56.gz 2.07MB Simrad multibeam vendor format
1004_20090205_094748_ShipName.all.mb56.gz 2.05MB Simrad multibeam vendor format
1005_20090205_101748_ShipName.all.mb56.gz 2.06MB Simrad multibeam vendor format
1006_20090205_104748_ShipName.all.mb56.gz 2.03MB Simrad multibeam vendor format
1007_20090205_111748_ShipName.all.mb56.gz 2.03MB Simrad multibeam vendor format
1008_20090205_114748_ShipName.all.mb56.gz 2.03MB Simrad multibeam vendor format
1009_20090205_121748_ShipName.all.mb56.gz 2.04MB Simrad multibeam vendor format
1010_20090205_124748_ShipName.all.mb56.gz 2.03MB Simrad multibeam vendor format
1011_20090205_131748_ShipName.all.mb56.gz 2.03MB Simrad multibeam vendor format
1012_20090205_134748_ShipName.all.mb56.gz 2.08MB Simrad multibeam vendor format
1013_20090205_141748_ShipName.all.mb56.gz 2.03MB Simrad multibeam vendor format
1014_20090205_144748_ShipName.all.mb56.gz 2.05MB Simrad multibeam vendor format
1015_20090205_151748_ShipName.all.mb56.gz 2.15MB Simrad multibeam vendor format
1016_20090205_154748_ShipName.all.mb56.gz 2.10MB Simrad multibeam vendor format
1017_20090205_161748_ShipName.all.mb56.gz 2.08MB Simrad multibeam vendor format
1018_20090205_164748_ShipName.all.mb56.gz 2.03MB Simrad multibeam vendor format
1019_20090205_171748_ShipName.all.mb56.gz 2.05MB Simrad multibeam vendor format
1020_20090205_174748_ShipName.all.mb56.gz 2.05MB Simrad multibeam vendor format
1021_20090205_181748_ShipName.all.mb56.gz 2.00MB Simrad multibeam vendor format
1022_20090205_184748_ShipName.all.mb56.gz 2.02MB Simrad multibeam vendor format
1023_20090205_191747_ShipName.all.mb56.gz 2.05MB Simrad multibeam vendor format
1024_20090205_194747_ShipName.all.mb56.gz 2.06MB Simrad multibeam vendor format
1025_20090205_201747_ShipName.all.mb56.gz 2.08MB Simrad multibeam vendor format
1026_20090205_204747_ShipName.all.mb56.gz 1.95MB Simrad multibeam vendor format
1027_20090205_211748_ShipName.all.mb56.gz 1.97MB Simrad multibeam vendor format
1028_20090205_214747_ShipName.all.mb56.gz 1.95MB Simrad multibeam vendor format
1029_20090205_221747_ShipName.all.mb56.gz 1.95MB Simrad multibeam vendor format
1030_20090205_224747_ShipName.all.mb56.gz 1.96MB Simrad multibeam vendor format
1031_20090205_231747_ShipName.all.mb56.gz 1.97MB Simrad multibeam vendor format
1032_20090205_234747_ShipName.all.mb56.gz 1.98MB Simrad multibeam vendor format
1033_20090206_001747_ShipName.all.mb56.gz 1.97MB Simrad multibeam vendor format
1034_20090206_004747_ShipName.all.mb56.gz 1.95MB Simrad multibeam vendor format
1035_20090206_011747_ShipName.all.mb56.gz 1.97MB Simrad multibeam vendor format
1036_20090206_014747_ShipName.all.mb56.gz 2.02MB Simrad multibeam vendor format
1037_20090206_021747_ShipName.all.mb56.gz 2.11MB Simrad multibeam vendor format
1038_20090206_024747_ShipName.all.mb56.gz 2.07MB Simrad multibeam vendor format
1039_20090206_031747_ShipName.all.mb56.gz 2.08MB Simrad multibeam vendor format
1040_20090206_034747_ShipName.all.mb56.gz 2.00MB Simrad multibeam vendor format
1041_20090206_041747_ShipName.all.mb56.gz 1.94MB Simrad multibeam vendor format
1042_20090206_044747_ShipName.all.mb56.gz 1.93MB Simrad multibeam vendor format
1043_20090206_051747_ShipName.all.mb56.gz 1.96MB Simrad multibeam vendor format
1044_20090206_054747_ShipName.all.mb56.gz 1.96MB Simrad multibeam vendor format
1045_20090206_061747_ShipName.all.mb56.gz 1.94MB Simrad multibeam vendor format
1046_20090206_064747_ShipName.all.mb56.gz 1.95MB Simrad multibeam vendor format
1047_20090206_071747_ShipName.all.mb56.gz 1.94MB Simrad multibeam vendor format
1048_20090206_074747_ShipName.all.mb56.gz 1.94MB Simrad multibeam vendor format
1049_20090206_081747_ShipName.all.mb56.gz 1.96MB Simrad multibeam vendor format
1050_20090206_084747_ShipName.all.mb56.gz 1.96MB Simrad multibeam vendor format
1051_20090206_091747_ShipName.all.mb56.gz 1.93MB Simrad multibeam vendor format
1052_20090206_094747_ShipName.all.mb56.gz 1.94MB Simrad multibeam vendor format
1053_20090206_101747_ShipName.all.mb56.gz 2.01MB Simrad multibeam vendor format
1054_20090206_104747_ShipName.all.mb56.gz 2.00MB Simrad multibeam vendor format
1055_20090206_111747_ShipName.all.mb56.gz 1.98MB Simrad multibeam vendor format
1056_20090206_114747_ShipName.all.mb56.gz 1.98MB Simrad multibeam vendor format
1057_20090206_121747_ShipName.all.mb56.gz 2.00MB Simrad multibeam vendor format
1058_20090206_124747_ShipName.all.mb56.gz 2.02MB Simrad multibeam vendor format
1059_20090206_131747_ShipName.all.mb56.gz 2.00MB Simrad multibeam vendor format
1060_20090206_134747_ShipName.all.mb56.gz 2.05MB Simrad multibeam vendor format
1061_20090206_141747_ShipName.all.mb56.gz 2.04MB Simrad multibeam vendor format
1062_20090206_144747_ShipName.all.mb56.gz 2.04MB Simrad multibeam vendor format
1063_20090206_151747_ShipName.all.mb56.gz 2.11MB Simrad multibeam vendor format
1064_20090206_154747_ShipName.all.mb56.gz 2.10MB Simrad multibeam vendor format
1065_20090206_161747_ShipName.all.mb56.gz 2.08MB Simrad multibeam vendor format
1066_20090206_164747_ShipName.all.mb56.gz 2.07MB Simrad multibeam vendor format
1067_20090206_171747_ShipName.all.mb56.gz 2.07MB Simrad multibeam vendor format
1068_20090206_174747_ShipName.all.mb56.gz 2.06MB Simrad multibeam vendor format
1069_20090206_181746_ShipName.all.mb56.gz 2.07MB Simrad multibeam vendor format
1070_20090206_184746_ShipName.all.mb56.gz 2.03MB Simrad multibeam vendor format
1071_20090206_191746_ShipName.all.mb56.gz 2.01MB Simrad multibeam vendor format
1072_20090206_194746_ShipName.all.mb56.gz 2.05MB Simrad multibeam vendor format
1073_20090206_201746_ShipName.all.mb56.gz 1.99MB Simrad multibeam vendor format
1074_20090206_204746_ShipName.all.mb56.gz 1.98MB Simrad multibeam vendor format
1075_20090206_211746_ShipName.all.mb56.gz 1.98MB Simrad multibeam vendor format
1076_20090206_214746_ShipName.all.mb56.gz 2.05MB Simrad multibeam vendor format
1077_20090206_221746_ShipName.all.mb56.gz 2.04MB Simrad multibeam vendor format
1078_20090206_224746_ShipName.all.mb56.gz 2.06MB Simrad multibeam vendor format
1079_20090206_231746_ShipName.all.mb56.gz 2.03MB Simrad multibeam vendor format
1080_20090206_234746_ShipName.all.mb56.gz 2.02MB Simrad multibeam vendor format
1081_20090207_001746_ShipName.all.mb56.gz 2.04MB Simrad multibeam vendor format
1082_20090207_004746_ShipName.all.mb56.gz 2.05MB Simrad multibeam vendor format
1083_20090207_011746_ShipName.all.mb56.gz 2.05MB Simrad multibeam vendor format
1084_20090207_014746_ShipName.all.mb56.gz 2.01MB Simrad multibeam vendor format
1085_20090207_021746_ShipName.all.mb56.gz 2.02MB Simrad multibeam vendor format
1086_20090207_024746_ShipName.all.mb56.gz 1.92MB Simrad multibeam vendor format
1087_20090207_031746_ShipName.all.mb56.gz 2.03MB Simrad multibeam vendor format
1088_20090207_034746_ShipName.all.mb56.gz 2.01MB Simrad multibeam vendor format
1089_20090207_041746_ShipName.all.mb56.gz 2.02MB Simrad multibeam vendor format
1090_20090207_044746_ShipName.all.mb56.gz 2.02MB Simrad multibeam vendor format
1091_20090207_051746_ShipName.all.mb56.gz 2.03MB Simrad multibeam vendor format
1092_20090207_054746_ShipName.all.mb56.gz 2.03MB Simrad multibeam vendor format
1093_20090207_061746_ShipName.all.mb56.gz 2.03MB Simrad multibeam vendor format
1094_20090207_064746_ShipName.all.mb56.gz 2.02MB Simrad multibeam vendor format
1095_20090207_071746_ShipName.all.mb56.gz 2.07MB Simrad multibeam vendor format
1096_20090207_074746_ShipName.all.mb56.gz 2.04MB Simrad multibeam vendor format
1097_20090207_081746_ShipName.all.mb56.gz 2.05MB Simrad multibeam vendor format
1098_20090207_084746_ShipName.all.mb56.gz 2.12MB Simrad multibeam vendor format
1099_20090207_091746_ShipName.all.mb56.gz 2.03MB Simrad multibeam vendor format
1100_20090207_094746_ShipName.all.mb56.gz 2.13MB Simrad multibeam vendor format
1101_20090207_101746_ShipName.all.mb56.gz 2.11MB Simrad multibeam vendor format
1102_20090207_104746_ShipName.all.mb56.gz 2.12MB Simrad multibeam vendor format
1103_20090207_111746_ShipName.all.mb56.gz 2.11MB Simrad multibeam vendor format
1104_20090207_114746_ShipName.all.mb56.gz 2.15MB Simrad multibeam vendor format
1105_20090207_121746_ShipName.all.mb56.gz 2.14MB Simrad multibeam vendor format
1106_20090207_124746_ShipName.all.mb56.gz 2.17MB Simrad multibeam vendor format
1107_20090207_131746_ShipName.all.mb56.gz 2.13MB Simrad multibeam vendor format
1108_20090207_134746_ShipName.all.mb56.gz 1.92MB Simrad multibeam vendor format
1109_20090207_141746_ShipName.all.mb56.gz 1.89MB Simrad multibeam vendor format
1110_20090207_144746_ShipName.all.mb56.gz 1.50MB Simrad multibeam vendor format
1111_20090207_151746_ShipName.all.mb56.gz 1.49MB Simrad multibeam vendor format
1112_20090207_154746_ShipName.all.mb56.gz 1.42MB Simrad multibeam vendor format
1113_20090207_161746_ShipName.all.mb56.gz 1.48MB Simrad multibeam vendor format
1114_20090207_164746_ShipName.all.mb56.gz 1.47MB Simrad multibeam vendor format
1115_20090207_171745_ShipName.all.mb56.gz 1.49MB Simrad multibeam vendor format
1116_20090207_174745_ShipName.all.mb56.gz 1.18MB Simrad multibeam vendor format
1117_20090207_231538_ShipName.all.mb56.gz 2.20MB Simrad multibeam vendor format
1118_20090207_234538_ShipName.all.mb56.gz 1.86MB Simrad multibeam vendor format
1119_20090208_001538_ShipName.all.mb56.gz 1.92MB Simrad multibeam vendor format
1120_20090208_004538_ShipName.all.mb56.gz 2.06MB Simrad multibeam vendor format
1121_20090208_011538_ShipName.all.mb56.gz 1.82MB Simrad multibeam vendor format
1122_20090208_014538_ShipName.all.mb56.gz 2.12MB Simrad multibeam vendor format
1123_20090208_021538_ShipName.all.mb56.gz 2.12MB Simrad multibeam vendor format
1124_20090208_024538_ShipName.all.mb56.gz 2.15MB Simrad multibeam vendor format
1125_20090208_031538_ShipName.all.mb56.gz 2.04MB Simrad multibeam vendor format
1126_20090208_034538_ShipName.all.mb56.gz 2.11MB Simrad multibeam vendor format
1127_20090208_041538_ShipName.all.mb56.gz 2.23MB Simrad multibeam vendor format
1128_20090208_044538_ShipName.all.mb56.gz 2.26MB Simrad multibeam vendor format
1129_20090208_051538_ShipName.all.mb56.gz 2.26MB Simrad multibeam vendor format
1130_20090208_054538_ShipName.all.mb56.gz 2.17MB Simrad multibeam vendor format
1131_20090208_061538_ShipName.all.mb56.gz 2.22MB Simrad multibeam vendor format
1132_20090208_064538_ShipName.all.mb56.gz 2.22MB Simrad multibeam vendor format
1133_20090208_071537_ShipName.all.mb56.gz 2.25MB Simrad multibeam vendor format
1134_20090208_074537_ShipName.all.mb56.gz 1.95MB Simrad multibeam vendor format
1135_20090208_081537_ShipName.all.mb56.gz 1.66MB Simrad multibeam vendor format
1136_20090208_084537_ShipName.all.mb56.gz 1.75MB Simrad multibeam vendor format
1137_20090208_091537_ShipName.all.mb56.gz 1.73MB Simrad multibeam vendor format
1138_20090208_094537_ShipName.all.mb56.gz 1.77MB Simrad multibeam vendor format
1139_20090208_101537_ShipName.all.mb56.gz 1.77MB Simrad multibeam vendor format
1140_20090208_104537_ShipName.all.mb56.gz 2.18MB Simrad multibeam vendor format
1141_20090208_111537_ShipName.all.mb56.gz 2.15MB Simrad multibeam vendor format
1142_20090208_114537_ShipName.all.mb56.gz 2.25MB Simrad multibeam vendor format
1143_20090208_121537_ShipName.all.mb56.gz 2.12MB Simrad multibeam vendor format
1144_20090208_124537_ShipName.all.mb56.gz 2.11MB Simrad multibeam vendor format
1145_20090208_131537_ShipName.all.mb56.gz 2.20MB Simrad multibeam vendor format
1146_20090208_134537_ShipName.all.mb56.gz 2.13MB Simrad multibeam vendor format
1147_20090208_141537_ShipName.all.mb56.gz 1.98MB Simrad multibeam vendor format
1148_20090208_144537_ShipName.all.mb56.gz 2.10MB Simrad multibeam vendor format
1149_20090208_151537_ShipName.all.mb56.gz 1.98MB Simrad multibeam vendor format
1150_20090208_154537_ShipName.all.mb56.gz 2.11MB Simrad multibeam vendor format
1151_20090208_161537_ShipName.all.mb56.gz 2.16MB Simrad multibeam vendor format
1152_20090208_164537_ShipName.all.mb56.gz 2.17MB Simrad multibeam vendor format
1153_20090208_171537_ShipName.all.mb56.gz 2.21MB Simrad multibeam vendor format
1154_20090208_174537_ShipName.all.mb56.gz 2.15MB Simrad multibeam vendor format
1155_20090208_181537_ShipName.all.mb56.gz 2.00MB Simrad multibeam vendor format
1156_20090208_184537_ShipName.all.mb56.gz 2.25MB Simrad multibeam vendor format
1157_20090208_191537_ShipName.all.mb56.gz 2.09MB Simrad multibeam vendor format
1158_20090208_194537_ShipName.all.mb56.gz 2.11MB Simrad multibeam vendor format
1159_20090208_201537_ShipName.all.mb56.gz 1.33MB Simrad multibeam vendor format
1160_20090208_203440_ShipName.all.mb56.gz 11.06MB Simrad multibeam vendor format
1161_20090208_232814_ShipName.all.mb56.gz 1.4KB Simrad multibeam vendor format
1162_20090209_003039_ShipName.all.mb56.gz 1.94MB Simrad multibeam vendor format
1163_20090209_010039_ShipName.all.mb56.gz 2.03MB Simrad multibeam vendor format
1164_20090209_013039_ShipName.all.mb56.gz 1.79MB Simrad multibeam vendor format
1165_20090209_020039_ShipName.all.mb56.gz 1.66MB Simrad multibeam vendor format
1166_20090209_023039_ShipName.all.mb56.gz 1.61MB Simrad multibeam vendor format
1167_20090209_030039_ShipName.all.mb56.gz 1.90MB Simrad multibeam vendor format
1168_20090209_033039_ShipName.all.mb56.gz 2.24MB Simrad multibeam vendor format
1169_20090209_040039_ShipName.all.mb56.gz 2.15MB Simrad multibeam vendor format
1170_20090209_043039_ShipName.all.mb56.gz 2.13MB Simrad multibeam vendor format
1171_20090209_050039_ShipName.all.mb56.gz 2.16MB Simrad multibeam vendor format
1172_20090209_053039_ShipName.all.mb56.gz 2.19MB Simrad multibeam vendor format
1173_20090209_060039_ShipName.all.mb56.gz 2.10MB Simrad multibeam vendor format
1174_20090209_063039_ShipName.all.mb56.gz 2.19MB Simrad multibeam vendor format
1175_20090209_070039_ShipName.all.mb56.gz 2.19MB Simrad multibeam vendor format
1176_20090209_073039_ShipName.all.mb56.gz 2.16MB Simrad multibeam vendor format
1177_20090209_080039_ShipName.all.mb56.gz 2.17MB Simrad multibeam vendor format
1178_20090209_083039_ShipName.all.mb56.gz 2.14MB Simrad multibeam vendor format
1179_20090209_090039_ShipName.all.mb56.gz 2.15MB Simrad multibeam vendor format
1180_20090209_093039_ShipName.all.mb56.gz 2.02MB Simrad multibeam vendor format
1181_20090209_100039_ShipName.all.mb56.gz 2.12MB Simrad multibeam vendor format
1182_20090209_103039_ShipName.all.mb56.gz 2.06MB Simrad multibeam vendor format
1183_20090209_110039_ShipName.all.mb56.gz 2.10MB Simrad multibeam vendor format
1184_20090209_113039_ShipName.all.mb56.gz 2.10MB Simrad multibeam vendor format
1185_20090209_120039_ShipName.all.mb56.gz 2.09MB Simrad multibeam vendor format
1186_20090209_123039_ShipName.all.mb56.gz 2.15MB Simrad multibeam vendor format
1187_20090209_130039_ShipName.all.mb56.gz 2.13MB Simrad multibeam vendor format
1188_20090209_133039_ShipName.all.mb56.gz 2.16MB Simrad multibeam vendor format
1189_20090209_140039_ShipName.all.mb56.gz 2.14MB Simrad multibeam vendor format
1190_20090209_143039_ShipName.all.mb56.gz 2.16MB Simrad multibeam vendor format
1191_20090209_150039_ShipName.all.mb56.gz 205.2KB Simrad multibeam vendor format
1191_20090209_150448_ShipName.all.mb56.gz 2.06MB Simrad multibeam vendor format
1192_20090209_153448_ShipName.all.mb56.gz 2.19MB Simrad multibeam vendor format
1193_20090209_160448_ShipName.all.mb56.gz 2.16MB Simrad multibeam vendor format
1194_20090209_163448_ShipName.all.mb56.gz 2.26MB Simrad multibeam vendor format
1195_20090209_170448_ShipName.all.mb56.gz 2.18MB Simrad multibeam vendor format
1196_20090209_173448_ShipName.all.mb56.gz 2.14MB Simrad multibeam vendor format
1197_20090209_180448_ShipName.all.mb56.gz 1.89MB Simrad multibeam vendor format
1198_20090209_183448_ShipName.all.mb56.gz 2.16MB Simrad multibeam vendor format
1199_20090209_190448_ShipName.all.mb56.gz 2.19MB Simrad multibeam vendor format
1200_20090209_193448_ShipName.all.mb56.gz 2.22MB Simrad multibeam vendor format
1201_20090209_200448_ShipName.all.mb56.gz 2.15MB Simrad multibeam vendor format
1202_20090209_203448_ShipName.all.mb56.gz 2.09MB Simrad multibeam vendor format
1203_20090209_210448_ShipName.all.mb56.gz 2.09MB Simrad multibeam vendor format
1204_20090209_213448_ShipName.all.mb56.gz 2.06MB Simrad multibeam vendor format
1205_20090209_220448_ShipName.all.mb56.gz 2.09MB Simrad multibeam vendor format
1206_20090209_223448_ShipName.all.mb56.gz 2.09MB Simrad multibeam vendor format
1207_20090209_230448_ShipName.all.mb56.gz 2.05MB Simrad multibeam vendor format
1208_20090209_233448_ShipName.all.mb56.gz 2.06MB Simrad multibeam vendor format
1209_20090210_000448_ShipName.all.mb56.gz 2.01MB Simrad multibeam vendor format
1210_20090210_003448_ShipName.all.mb56.gz 2.01MB Simrad multibeam vendor format
1211_20090210_010447_ShipName.all.mb56.gz 2.04MB Simrad multibeam vendor format
1212_20090210_013447_ShipName.all.mb56.gz 2.00MB Simrad multibeam vendor format
1213_20090210_020447_ShipName.all.mb56.gz 2.02MB Simrad multibeam vendor format
1214_20090210_023447_ShipName.all.mb56.gz 2.04MB Simrad multibeam vendor format
1215_20090210_030447_ShipName.all.mb56.gz 2.05MB Simrad multibeam vendor format
1216_20090210_033447_ShipName.all.mb56.gz 2.06MB Simrad multibeam vendor format
1217_20090210_040447_ShipName.all.mb56.gz 2.01MB Simrad multibeam vendor format
1218_20090210_043447_ShipName.all.mb56.gz 2.00MB Simrad multibeam vendor format
1219_20090210_050447_ShipName.all.mb56.gz 2.01MB Simrad multibeam vendor format
1220_20090210_053447_ShipName.all.mb56.gz 2.00MB Simrad multibeam vendor format
1221_20090210_060447_ShipName.all.mb56.gz 2.01MB Simrad multibeam vendor format
1222_20090210_063447_ShipName.all.mb56.gz 2.00MB Simrad multibeam vendor format
1223_20090210_070447_ShipName.all.mb56.gz 1.98MB Simrad multibeam vendor format
1224_20090210_073447_ShipName.all.mb56.gz 2.00MB Simrad multibeam vendor format
1225_20090210_080447_ShipName.all.mb56.gz 2.00MB Simrad multibeam vendor format
1226_20090210_083447_ShipName.all.mb56.gz 1.98MB Simrad multibeam vendor format
1227_20090210_090447_ShipName.all.mb56.gz 1.98MB Simrad multibeam vendor format
1228_20090210_093447_ShipName.all.mb56.gz 1.95MB Simrad multibeam vendor format
1229_20090210_100447_ShipName.all.mb56.gz 1.95MB Simrad multibeam vendor format
1230_20090210_103447_ShipName.all.mb56.gz 1.95MB Simrad multibeam vendor format
1231_20090210_110447_ShipName.all.mb56.gz 1.94MB Simrad multibeam vendor format
1232_20090210_113447_ShipName.all.mb56.gz 1.90MB Simrad multibeam vendor format
1233_20090210_120447_ShipName.all.mb56.gz 2.00MB Simrad multibeam vendor format
1234_20090210_123447_ShipName.all.mb56.gz 1.95MB Simrad multibeam vendor format
1235_20090210_130447_ShipName.all.mb56.gz 1.96MB Simrad multibeam vendor format
1236_20090210_133447_ShipName.all.mb56.gz 2.00MB Simrad multibeam vendor format
1237_20090210_140447_ShipName.all.mb56.gz 2.01MB Simrad multibeam vendor format
1238_20090210_143447_ShipName.all.mb56.gz 2.08MB Simrad multibeam vendor format
1239_20090210_150451_ShipName.all.mb56.gz 2.02MB Simrad multibeam vendor format
1240_20090210_153451_ShipName.all.mb56.gz 2.03MB Simrad multibeam vendor format
1241_20090210_160451_ShipName.all.mb56.gz 2.05MB Simrad multibeam vendor format
1242_20090210_163451_ShipName.all.mb56.gz 2.05MB Simrad multibeam vendor format
1243_20090210_170451_ShipName.all.mb56.gz 2.12MB Simrad multibeam vendor format
1244_20090210_173451_ShipName.all.mb56.gz 2.04MB Simrad multibeam vendor format
1245_20090210_180451_ShipName.all.mb56.gz 2.07MB Simrad multibeam vendor format
1246_20090210_183450_ShipName.all.mb56.gz 2.07MB Simrad multibeam vendor format
1247_20090210_190450_ShipName.all.mb56.gz 2.12MB Simrad multibeam vendor format
1248_20090210_193450_ShipName.all.mb56.gz 2.14MB Simrad multibeam vendor format
1249_20090210_200450_ShipName.all.mb56.gz 2.09MB Simrad multibeam vendor format
1250_20090210_203450_ShipName.all.mb56.gz 2.07MB Simrad multibeam vendor format
1251_20090210_210450_ShipName.all.mb56.gz 2.08MB Simrad multibeam vendor format
1252_20090210_213450_ShipName.all.mb56.gz 2.03MB Simrad multibeam vendor format
1253_20090210_220450_ShipName.all.mb56.gz 2.12MB Simrad multibeam vendor format
1254_20090210_223450_ShipName.all.mb56.gz 2.12MB Simrad multibeam vendor format
1255_20090210_230450_ShipName.all.mb56.gz 2.10MB Simrad multibeam vendor format
1256_20090210_233450_ShipName.all.mb56.gz 2.07MB Simrad multibeam vendor format
1257_20090211_000450_ShipName.all.mb56.gz 2.10MB Simrad multibeam vendor format
1258_20090211_003450_ShipName.all.mb56.gz 2.08MB Simrad multibeam vendor format
1259_20090211_010450_ShipName.all.mb56.gz 2.07MB Simrad multibeam vendor format
1260_20090211_013450_ShipName.all.mb56.gz 2.09MB Simrad multibeam vendor format
1261_20090211_020450_ShipName.all.mb56.gz 2.09MB Simrad multibeam vendor format
1262_20090211_023450_ShipName.all.mb56.gz 2.05MB Simrad multibeam vendor format
1263_20090211_030450_ShipName.all.mb56.gz 2.12MB Simrad multibeam vendor format
1264_20090211_033450_ShipName.all.mb56.gz 2.14MB Simrad multibeam vendor format
1265_20090211_040450_ShipName.all.mb56.gz 2.17MB Simrad multibeam vendor format
1266_20090211_043450_ShipName.all.mb56.gz 2.15MB Simrad multibeam vendor format
1267_20090211_050450_ShipName.all.mb56.gz 2.18MB Simrad multibeam vendor format
1268_20090211_053450_ShipName.all.mb56.gz 2.12MB Simrad multibeam vendor format
1269_20090211_060450_ShipName.all.mb56.gz 2.17MB Simrad multibeam vendor format
1270_20090211_063450_ShipName.all.mb56.gz 2.11MB Simrad multibeam vendor format
1271_20090211_070450_ShipName.all.mb56.gz 2.12MB Simrad multibeam vendor format
1272_20090211_073450_ShipName.all.mb56.gz 2.14MB Simrad multibeam vendor format
1273_20090211_080450_ShipName.all.mb56.gz 2.15MB Simrad multibeam vendor format
1274_20090211_083450_ShipName.all.mb56.gz 2.13MB Simrad multibeam vendor format
1275_20090211_090450_ShipName.all.mb56.gz 2.16MB Simrad multibeam vendor format
1276_20090211_093450_ShipName.all.mb56.gz 2.17MB Simrad multibeam vendor format
1277_20090211_100450_ShipName.all.mb56.gz 2.15MB Simrad multibeam vendor format
1278_20090211_103450_ShipName.all.mb56.gz 2.14MB Simrad multibeam vendor format
1279_20090211_110450_ShipName.all.mb56.gz 2.13MB Simrad multibeam vendor format
1280_20090211_113450_ShipName.all.mb56.gz 2.17MB Simrad multibeam vendor format
1281_20090211_120450_ShipName.all.mb56.gz 2.13MB Simrad multibeam vendor format
1282_20090211_123450_ShipName.all.mb56.gz 2.09MB Simrad multibeam vendor format
1283_20090211_130450_ShipName.all.mb56.gz 2.09MB Simrad multibeam vendor format
1284_20090211_133450_ShipName.all.mb56.gz 2.16MB Simrad multibeam vendor format
1285_20090211_140450_ShipName.all.mb56.gz 2.11MB Simrad multibeam vendor format
1286_20090211_143450_ShipName.all.mb56.gz 2.07MB Simrad multibeam vendor format
1287_20090211_150450_ShipName.all.mb56.gz 2.04MB Simrad multibeam vendor format
1288_20090211_153450_ShipName.all.mb56.gz 2.05MB Simrad multibeam vendor format
1289_20090211_160450_ShipName.all.mb56.gz 1.98MB Simrad multibeam vendor format
1290_20090211_163449_ShipName.all.mb56.gz 2.09MB Simrad multibeam vendor format
1291_20090211_170449_ShipName.all.mb56.gz 2.18MB Simrad multibeam vendor format
1292_20090211_173449_ShipName.all.mb56.gz 2.07MB Simrad multibeam vendor format
1293_20090211_180449_ShipName.all.mb56.gz 2.07MB Simrad multibeam vendor format
1294_20090211_183449_ShipName.all.mb56.gz 2.04MB Simrad multibeam vendor format
1295_20090211_190449_ShipName.all.mb56.gz 2.10MB Simrad multibeam vendor format
1296_20090211_193449_ShipName.all.mb56.gz 2.02MB Simrad multibeam vendor format
1297_20090211_200449_ShipName.all.mb56.gz 2.03MB Simrad multibeam vendor format
1298_20090211_203449_ShipName.all.mb56.gz 2.07MB Simrad multibeam vendor format
1299_20090211_210449_ShipName.all.mb56.gz 2.08MB Simrad multibeam vendor format
1300_20090211_213449_ShipName.all.mb56.gz 2.08MB Simrad multibeam vendor format
1301_20090211_220449_ShipName.all.mb56.gz 2.06MB Simrad multibeam vendor format
1302_20090211_223449_ShipName.all.mb56.gz 1.95MB Simrad multibeam vendor format
1303_20090211_230449_ShipName.all.mb56.gz 1.95MB Simrad multibeam vendor format
1304_20090211_233449_ShipName.all.mb56.gz 1.95MB Simrad multibeam vendor format
1305_20090212_000449_ShipName.all.mb56.gz 1.98MB Simrad multibeam vendor format
1306_20090212_003449_ShipName.all.mb56.gz 2.05MB Simrad multibeam vendor format
1307_20090212_010449_ShipName.all.mb56.gz 2.06MB Simrad multibeam vendor format
1308_20090212_013449_ShipName.all.mb56.gz 2.15MB Simrad multibeam vendor format
1309_20090212_020449_ShipName.all.mb56.gz 2.15MB Simrad multibeam vendor format
1310_20090212_023449_ShipName.all.mb56.gz 2.07MB Simrad multibeam vendor format
1311_20090212_030449_ShipName.all.mb56.gz 1.99MB Simrad multibeam vendor format
1312_20090212_033449_ShipName.all.mb56.gz 2.07MB Simrad multibeam vendor format
1313_20090212_040449_ShipName.all.mb56.gz 2.04MB Simrad multibeam vendor format
1314_20090212_043449_ShipName.all.mb56.gz 2.08MB Simrad multibeam vendor format
1315_20090212_050449_ShipName.all.mb56.gz 2.05MB Simrad multibeam vendor format
1316_20090212_053449_ShipName.all.mb56.gz 2.03MB Simrad multibeam vendor format
1317_20090212_060449_ShipName.all.mb56.gz 2.02MB Simrad multibeam vendor format
1318_20090212_063449_ShipName.all.mb56.gz 2.03MB Simrad multibeam vendor format
1319_20090212_070449_ShipName.all.mb56.gz 2.06MB Simrad multibeam vendor format
1320_20090212_073449_ShipName.all.mb56.gz 2.05MB Simrad multibeam vendor format
1321_20090212_080449_ShipName.all.mb56.gz 2.07MB Simrad multibeam vendor format
1322_20090212_083449_ShipName.all.mb56.gz 2.11MB Simrad multibeam vendor format
1323_20090212_090449_ShipName.all.mb56.gz 2.02MB Simrad multibeam vendor format
1324_20090212_093449_ShipName.all.mb56.gz 1.97MB Simrad multibeam vendor format
1325_20090212_100449_ShipName.all.mb56.gz 1.97MB Simrad multibeam vendor format
1326_20090212_103449_ShipName.all.mb56.gz 2.09MB Simrad multibeam vendor format
1327_20090212_110449_ShipName.all.mb56.gz 2.07MB Simrad multibeam vendor format
1328_20090212_113449_ShipName.all.mb56.gz 2.07MB Simrad multibeam vendor format
1329_20090212_120449_ShipName.all.mb56.gz 2.06MB Simrad multibeam vendor format
1330_20090212_123449_ShipName.all.mb56.gz 2.10MB Simrad multibeam vendor format
1331_20090212_130449_ShipName.all.mb56.gz 2.10MB Simrad multibeam vendor format
1332_20090212_133449_ShipName.all.mb56.gz 2.12MB Simrad multibeam vendor format
1333_20090212_140449_ShipName.all.mb56.gz 2.11MB Simrad multibeam vendor format
1334_20090212_143449_ShipName.all.mb56.gz 2.14MB Simrad multibeam vendor format
1335_20090212_150449_ShipName.all.mb56.gz 2.07MB Simrad multibeam vendor format
1336_20090212_153449_ShipName.all.mb56.gz 2.15MB Simrad multibeam vendor format
1337_20090212_160448_ShipName.all.mb56.gz 2.08MB Simrad multibeam vendor format
1338_20090212_163448_ShipName.all.mb56.gz 2.13MB Simrad multibeam vendor format
1339_20090212_170448_ShipName.all.mb56.gz 2.15MB Simrad multibeam vendor format
1340_20090212_173448_ShipName.all.mb56.gz 2.13MB Simrad multibeam vendor format
1341_20090212_180448_ShipName.all.mb56.gz 2.07MB Simrad multibeam vendor format
1342_20090212_183448_ShipName.all.mb56.gz 2.09MB Simrad multibeam vendor format
1343_20090212_190448_ShipName.all.mb56.gz 2.10MB Simrad multibeam vendor format
1344_20090212_193448_ShipName.all.mb56.gz 2.08MB Simrad multibeam vendor format
1345_20090212_200448_ShipName.all.mb56.gz 2.05MB Simrad multibeam vendor format
1346_20090212_203448_ShipName.all.mb56.gz 2.06MB Simrad multibeam vendor format
1347_20090212_210448_ShipName.all.mb56.gz 2.07MB Simrad multibeam vendor format
1348_20090212_213448_ShipName.all.mb56.gz 2.07MB Simrad multibeam vendor format
1349_20090212_220448_ShipName.all.mb56.gz 2.08MB Simrad multibeam vendor format
1350_20090212_223448_ShipName.all.mb56.gz 2.06MB Simrad multibeam vendor format
1351_20090212_230448_ShipName.all.mb56.gz 2.05MB Simrad multibeam vendor format
1352_20090212_233448_ShipName.all.mb56.gz 2.08MB Simrad multibeam vendor format
1353_20090213_000448_ShipName.all.mb56.gz 2.08MB Simrad multibeam vendor format
1354_20090213_003448_ShipName.all.mb56.gz 2.09MB Simrad multibeam vendor format
1355_20090213_010448_ShipName.all.mb56.gz 2.00MB Simrad multibeam vendor format
1356_20090213_013448_ShipName.all.mb56.gz 2.07MB Simrad multibeam vendor format
1357_20090213_020448_ShipName.all.mb56.gz 2.06MB Simrad multibeam vendor format
1358_20090213_023448_ShipName.all.mb56.gz 2.05MB Simrad multibeam vendor format
1359_20090213_030448_ShipName.all.mb56.gz 2.05MB Simrad multibeam vendor format
1360_20090213_033448_ShipName.all.mb56.gz 2.05MB Simrad multibeam vendor format
1361_20090213_040448_ShipName.all.mb56.gz 2.08MB Simrad multibeam vendor format
1362_20090213_043448_ShipName.all.mb56.gz 2.06MB Simrad multibeam vendor format
1363_20090213_050448_ShipName.all.mb56.gz 2.08MB Simrad multibeam vendor format
1364_20090213_053448_ShipName.all.mb56.gz 2.07MB Simrad multibeam vendor format
1365_20090213_060448_ShipName.all.mb56.gz 2.05MB Simrad multibeam vendor format
1366_20090213_063448_ShipName.all.mb56.gz 2.10MB Simrad multibeam vendor format
1367_20090213_070448_ShipName.all.mb56.gz 2.09MB Simrad multibeam vendor format
1368_20090213_073448_ShipName.all.mb56.gz 1.99MB Simrad multibeam vendor format
1369_20090213_080448_ShipName.all.mb56.gz 2.06MB Simrad multibeam vendor format
1370_20090213_083448_ShipName.all.mb56.gz 2.03MB Simrad multibeam vendor format
1371_20090213_090448_ShipName.all.mb56.gz 2.03MB Simrad multibeam vendor format
1372_20090213_093448_ShipName.all.mb56.gz 2.04MB Simrad multibeam vendor format
1373_20090213_100448_ShipName.all.mb56.gz 2.04MB Simrad multibeam vendor format
1374_20090213_103448_ShipName.all.mb56.gz 2.04MB Simrad multibeam vendor format
1375_20090213_110448_ShipName.all.mb56.gz 2.07MB Simrad multibeam vendor format
1376_20090213_113448_ShipName.all.mb56.gz 2.08MB Simrad multibeam vendor format
1377_20090213_120448_ShipName.all.mb56.gz 2.03MB Simrad multibeam vendor format
1378_20090213_123448_ShipName.all.mb56.gz 2.01MB Simrad multibeam vendor format
1379_20090213_130448_ShipName.all.mb56.gz 2.01MB Simrad multibeam vendor format
1380_20090213_133448_ShipName.all.mb56.gz 2.02MB Simrad multibeam vendor format
1381_20090213_140448_ShipName.all.mb56.gz 2.04MB Simrad multibeam vendor format
1382_20090213_143448_ShipName.all.mb56.gz 2.00MB Simrad multibeam vendor format
1383_20090213_150447_ShipName.all.mb56.gz 2.03MB Simrad multibeam vendor format
1384_20090213_153447_ShipName.all.mb56.gz 2.00MB Simrad multibeam vendor format
1385_20090213_160447_ShipName.all.mb56.gz 1.99MB Simrad multibeam vendor format
1386_20090213_163447_ShipName.all.mb56.gz 1.97MB Simrad multibeam vendor format
1387_20090213_170447_ShipName.all.mb56.gz 1.97MB Simrad multibeam vendor format
1388_20090213_173447_ShipName.all.mb56.gz 1.97MB Simrad multibeam vendor format
1389_20090213_180447_ShipName.all.mb56.gz 1.94MB Simrad multibeam vendor format
1390_20090213_183447_ShipName.all.mb56.gz 2.01MB Simrad multibeam vendor format
1391_20090213_190447_ShipName.all.mb56.gz 1.90MB Simrad multibeam vendor format
1392_20090213_193447_ShipName.all.mb56.gz 1.95MB Simrad multibeam vendor format
1393_20090213_200447_ShipName.all.mb56.gz 1.95MB Simrad multibeam vendor format
1394_20090213_203447_ShipName.all.mb56.gz 1.90MB Simrad multibeam vendor format
1395_20090213_210447_ShipName.all.mb56.gz 1.96MB Simrad multibeam vendor format
1396_20090213_213447_ShipName.all.mb56.gz 1.93MB Simrad multibeam vendor format
1397_20090213_220447_ShipName.all.mb56.gz 1.93MB Simrad multibeam vendor format
1398_20090213_223447_ShipName.all.mb56.gz 1.92MB Simrad multibeam vendor format
1399_20090213_230447_ShipName.all.mb56.gz 1.90MB Simrad multibeam vendor format
1400_20090213_233447_ShipName.all.mb56.gz 1.89MB Simrad multibeam vendor format
1401_20090214_000447_ShipName.all.mb56.gz 1.92MB Simrad multibeam vendor format
1402_20090214_003447_ShipName.all.mb56.gz 1.89MB Simrad multibeam vendor format
1403_20090214_010447_ShipName.all.mb56.gz 1.89MB Simrad multibeam vendor format
1404_20090214_013447_ShipName.all.mb56.gz 1.85MB Simrad multibeam vendor format
1405_20090214_020447_ShipName.all.mb56.gz 1.83MB Simrad multibeam vendor format
1406_20090214_023447_ShipName.all.mb56.gz 1.86MB Simrad multibeam vendor format
1407_20090214_030447_ShipName.all.mb56.gz 1.86MB Simrad multibeam vendor format
1408_20090214_033447_ShipName.all.mb56.gz 1.85MB Simrad multibeam vendor format
1409_20090214_040447_ShipName.all.mb56.gz 1.84MB Simrad multibeam vendor format
1410_20090214_043447_ShipName.all.mb56.gz 1.86MB Simrad multibeam vendor format
1411_20090214_050447_ShipName.all.mb56.gz 1.87MB Simrad multibeam vendor format
1412_20090214_053447_ShipName.all.mb56.gz 1.89MB Simrad multibeam vendor format
1413_20090214_060447_ShipName.all.mb56.gz 1.92MB Simrad multibeam vendor format
1414_20090214_063447_ShipName.all.mb56.gz 1.86MB Simrad multibeam vendor format
1415_20090214_070447_ShipName.all.mb56.gz 1.87MB Simrad multibeam vendor format
1416_20090214_073447_ShipName.all.mb56.gz 1.90MB Simrad multibeam vendor format
1417_20090214_080447_ShipName.all.mb56.gz 1.89MB Simrad multibeam vendor format
1418_20090214_083447_ShipName.all.mb56.gz 1.88MB Simrad multibeam vendor format
1419_20090214_090447_ShipName.all.mb56.gz 1.86MB Simrad multibeam vendor format
1420_20090214_093447_ShipName.all.mb56.gz 1.90MB Simrad multibeam vendor format
1421_20090214_100447_ShipName.all.mb56.gz 1.89MB Simrad multibeam vendor format
1422_20090214_103447_ShipName.all.mb56.gz 1.82MB Simrad multibeam vendor format
1423_20090214_110447_ShipName.all.mb56.gz 1.85MB Simrad multibeam vendor format
1424_20090214_113447_ShipName.all.mb56.gz 1.84MB Simrad multibeam vendor format
1425_20090214_120447_ShipName.all.mb56.gz 1.88MB Simrad multibeam vendor format
1426_20090214_123447_ShipName.all.mb56.gz 1.82MB Simrad multibeam vendor format
1427_20090214_130446_ShipName.all.mb56.gz 1.82MB Simrad multibeam vendor format
1428_20090214_133446_ShipName.all.mb56.gz 1.86MB Simrad multibeam vendor format
1429_20090214_140446_ShipName.all.mb56.gz 1.90MB Simrad multibeam vendor format
1430_20090214_143446_ShipName.all.mb56.gz 1.81MB Simrad multibeam vendor format
1431_20090214_150446_ShipName.all.mb56.gz 1.83MB Simrad multibeam vendor format
1432_20090214_153446_ShipName.all.mb56.gz 1.80MB Simrad multibeam vendor format
1433_20090214_160446_ShipName.all.mb56.gz 1.83MB Simrad multibeam vendor format
1434_20090214_163446_ShipName.all.mb56.gz 1.79MB Simrad multibeam vendor format
1435_20090214_170446_ShipName.all.mb56.gz 1.78MB Simrad multibeam vendor format
1436_20090214_173446_ShipName.all.mb56.gz 1.75MB Simrad multibeam vendor format
1437_20090214_180446_ShipName.all.mb56.gz 1.83MB Simrad multibeam vendor format
1438_20090214_183446_ShipName.all.mb56.gz 1.84MB Simrad multibeam vendor format
1439_20090214_190446_ShipName.all.mb56.gz 1.77MB Simrad multibeam vendor format
1440_20090214_193446_ShipName.all.mb56.gz 1.84MB Simrad multibeam vendor format
1441_20090214_200446_ShipName.all.mb56.gz 1.79MB Simrad multibeam vendor format
1442_20090214_203446_ShipName.all.mb56.gz 1.78MB Simrad multibeam vendor format
1443_20090214_210446_ShipName.all.mb56.gz 1.84MB Simrad multibeam vendor format
1444_20090214_213446_ShipName.all.mb56.gz 1.82MB Simrad multibeam vendor format
1445_20090214_220446_ShipName.all.mb56.gz 1.83MB Simrad multibeam vendor format
1446_20090214_223446_ShipName.all.mb56.gz 1.80MB Simrad multibeam vendor format
1447_20090214_230446_ShipName.all.mb56.gz 1.80MB Simrad multibeam vendor format
1448_20090214_233446_ShipName.all.mb56.gz 1.81MB Simrad multibeam vendor format
1449_20090215_000446_ShipName.all.mb56.gz 1.83MB Simrad multibeam vendor format
1450_20090215_003446_ShipName.all.mb56.gz 1.81MB Simrad multibeam vendor format
1451_20090215_010446_ShipName.all.mb56.gz 1.80MB Simrad multibeam vendor format
1452_20090215_013446_ShipName.all.mb56.gz 1.79MB Simrad multibeam vendor format
1453_20090215_020446_ShipName.all.mb56.gz 1.79MB Simrad multibeam vendor format
1454_20090215_023446_ShipName.all.mb56.gz 1.78MB Simrad multibeam vendor format
1455_20090215_030446_ShipName.all.mb56.gz 1.77MB Simrad multibeam vendor format
1456_20090215_033446_ShipName.all.mb56.gz 1.78MB Simrad multibeam vendor format
1457_20090215_040446_ShipName.all.mb56.gz 1.79MB Simrad multibeam vendor format
1458_20090215_043446_ShipName.all.mb56.gz 1.77MB Simrad multibeam vendor format
1459_20090215_050446_ShipName.all.mb56.gz 1.78MB Simrad multibeam vendor format
1460_20090215_053446_ShipName.all.mb56.gz 1.81MB Simrad multibeam vendor format
1461_20090215_060446_ShipName.all.mb56.gz 1.80MB Simrad multibeam vendor format
1462_20090215_063446_ShipName.all.mb56.gz 1.83MB Simrad multibeam vendor format
1463_20090215_070446_ShipName.all.mb56.gz 1.79MB Simrad multibeam vendor format
1464_20090215_073446_ShipName.all.mb56.gz 1.83MB Simrad multibeam vendor format
1465_20090215_080446_ShipName.all.mb56.gz 1.82MB Simrad multibeam vendor format
1466_20090215_083446_ShipName.all.mb56.gz 1.82MB Simrad multibeam vendor format
1467_20090215_090446_ShipName.all.mb56.gz 1.84MB Simrad multibeam vendor format
1468_20090215_093446_ShipName.all.mb56.gz 1.87MB Simrad multibeam vendor format
1469_20090215_100446_ShipName.all.mb56.gz 1.85MB Simrad multibeam vendor format
1470_20090215_103446_ShipName.all.mb56.gz 1.89MB Simrad multibeam vendor format
1471_20090215_110446_ShipName.all.mb56.gz 1.88MB Simrad multibeam vendor format
1472_20090215_113445_ShipName.all.mb56.gz 1.92MB Simrad multibeam vendor format
1473_20090215_120445_ShipName.all.mb56.gz 1.91MB Simrad multibeam vendor format
1474_20090215_123445_ShipName.all.mb56.gz 1.93MB Simrad multibeam vendor format
1475_20090215_130445_ShipName.all.mb56.gz 1.97MB Simrad multibeam vendor format
1476_20090215_133445_ShipName.all.mb56.gz 1.94MB Simrad multibeam vendor format
1477_20090215_140445_ShipName.all.mb56.gz 1.98MB Simrad multibeam vendor format
1478_20090215_143445_ShipName.all.mb56.gz 2.12MB Simrad multibeam vendor format
1479_20090215_150445_ShipName.all.mb56.gz 2.07MB Simrad multibeam vendor format
1480_20090215_153445_ShipName.all.mb56.gz 2.02MB Simrad multibeam vendor format
1481_20090215_160445_ShipName.all.mb56.gz 2.03MB Simrad multibeam vendor format
1482_20090215_163445_ShipName.all.mb56.gz 2.04MB Simrad multibeam vendor format
1483_20090215_170445_ShipName.all.mb56.gz 2.05MB Simrad multibeam vendor format
1484_20090215_173445_ShipName.all.mb56.gz 2.07MB Simrad multibeam vendor format
1485_20090215_180445_ShipName.all.mb56.gz 2.05MB Simrad multibeam vendor format
1486_20090215_183445_ShipName.all.mb56.gz 2.14MB Simrad multibeam vendor format
1487_20090215_190445_ShipName.all.mb56.gz 2.11MB Simrad multibeam vendor format
1488_20090215_193445_ShipName.all.mb56.gz 2.05MB Simrad multibeam vendor format
1489_20090215_200445_ShipName.all.mb56.gz 2.12MB Simrad multibeam vendor format
1490_20090215_203445_ShipName.all.mb56.gz 2.07MB Simrad multibeam vendor format
1491_20090215_210445_ShipName.all.mb56.gz 2.12MB Simrad multibeam vendor format
1492_20090215_213445_ShipName.all.mb56.gz 2.08MB Simrad multibeam vendor format
1493_20090215_220445_ShipName.all.mb56.gz 2.07MB Simrad multibeam vendor format
1494_20090215_223445_ShipName.all.mb56.gz 2.10MB Simrad multibeam vendor format
1495_20090215_230445_ShipName.all.mb56.gz 2.05MB Simrad multibeam vendor format
1496_20090215_233445_ShipName.all.mb56.gz 2.13MB Simrad multibeam vendor format
1497_20090216_000445_ShipName.all.mb56.gz 2.06MB Simrad multibeam vendor format
1498_20090216_003445_ShipName.all.mb56.gz 2.05MB Simrad multibeam vendor format
1499_20090216_010445_ShipName.all.mb56.gz 2.13MB Simrad multibeam vendor format
1500_20090216_013445_ShipName.all.mb56.gz 2.02MB Simrad multibeam vendor format
1501_20090216_020445_ShipName.all.mb56.gz 2.09MB Simrad multibeam vendor format
1502_20090216_023445_ShipName.all.mb56.gz 2.03MB Simrad multibeam vendor format
1503_20090216_030445_ShipName.all.mb56.gz 2.12MB Simrad multibeam vendor format
1504_20090216_033445_ShipName.all.mb56.gz 2.08MB Simrad multibeam vendor format
1505_20090216_040445_ShipName.all.mb56.gz 2.02MB Simrad multibeam vendor format
1506_20090216_043445_ShipName.all.mb56.gz 2.01MB Simrad multibeam vendor format
1507_20090216_050445_ShipName.all.mb56.gz 2.01MB Simrad multibeam vendor format
1508_20090216_053445_ShipName.all.mb56.gz 2.04MB Simrad multibeam vendor format
1509_20090216_060445_ShipName.all.mb56.gz 2.01MB Simrad multibeam vendor format
1510_20090216_063445_ShipName.all.mb56.gz 2.01MB Simrad multibeam vendor format
1511_20090216_070445_ShipName.all.mb56.gz 2.03MB Simrad multibeam vendor format
1512_20090216_073445_ShipName.all.mb56.gz 4.98MB Simrad multibeam vendor format
1513_20090216_084859_ShipName.all.mb56.gz 297.6KB Simrad multibeam vendor format
1514_20090216_091610_ShipName.all.mb56.gz 2.03MB Simrad multibeam vendor format
1515_20090216_094610_ShipName.all.mb56.gz 1.98MB Simrad multibeam vendor format
1516_20090216_101610_ShipName.all.mb56.gz 2.02MB Simrad multibeam vendor format
1517_20090216_104610_ShipName.all.mb56.gz 1.99MB Simrad multibeam vendor format
1518_20090216_111610_ShipName.all.mb56.gz 1.96MB Simrad multibeam vendor format
1519_20090216_114610_ShipName.all.mb56.gz 1.97MB Simrad multibeam vendor format
1520_20090216_121610_ShipName.all.mb56.gz 2.01MB Simrad multibeam vendor format
1521_20090216_124609_ShipName.all.mb56.gz 2.09MB Simrad multibeam vendor format
1522_20090216_131609_ShipName.all.mb56.gz 1.99MB Simrad multibeam vendor format
1523_20090216_134609_ShipName.all.mb56.gz 1.98MB Simrad multibeam vendor format
1524_20090216_141609_ShipName.all.mb56.gz 1.98MB Simrad multibeam vendor format
1525_20090216_144609_ShipName.all.mb56.gz 2.05MB Simrad multibeam vendor format
1526_20090216_151609_ShipName.all.mb56.gz 2.02MB Simrad multibeam vendor format
1527_20090216_154609_ShipName.all.mb56.gz 2.02MB Simrad multibeam vendor format
1528_20090216_161609_ShipName.all.mb56.gz 2.07MB Simrad multibeam vendor format
1529_20090216_164609_ShipName.all.mb56.gz 2.09MB Simrad multibeam vendor format
1530_20090216_171609_ShipName.all.mb56.gz 2.03MB Simrad multibeam vendor format
1531_20090216_174609_ShipName.all.mb56.gz 2.08MB Simrad multibeam vendor format
1532_20090216_181609_ShipName.all.mb56.gz 1.97MB Simrad multibeam vendor format
1533_20090216_184609_ShipName.all.mb56.gz 2.00MB Simrad multibeam vendor format
1534_20090216_191609_ShipName.all.mb56.gz 1.98MB Simrad multibeam vendor format
1535_20090216_194609_ShipName.all.mb56.gz 2.03MB Simrad multibeam vendor format
1536_20090216_201609_ShipName.all.mb56.gz 2.06MB Simrad multibeam vendor format
1537_20090216_204609_ShipName.all.mb56.gz 2.01MB Simrad multibeam vendor format
1538_20090216_211609_ShipName.all.mb56.gz 2.07MB Simrad multibeam vendor format
1539_20090216_214609_ShipName.all.mb56.gz 2.05MB Simrad multibeam vendor format
1540_20090216_221609_ShipName.all.mb56.gz 1.98MB Simrad multibeam vendor format
1541_20090216_224609_ShipName.all.mb56.gz 2.02MB Simrad multibeam vendor format
1542_20090216_231609_ShipName.all.mb56.gz 2.00MB Simrad multibeam vendor format
1543_20090216_234609_ShipName.all.mb56.gz 2.03MB Simrad multibeam vendor format
1544_20090217_001609_ShipName.all.mb56.gz 2.02MB Simrad multibeam vendor format
1545_20090217_004609_ShipName.all.mb56.gz 1.99MB Simrad multibeam vendor format
1546_20090217_011609_ShipName.all.mb56.gz 2.03MB Simrad multibeam vendor format
1547_20090217_014609_ShipName.all.mb56.gz 2.01MB Simrad multibeam vendor format
1548_20090217_021609_ShipName.all.mb56.gz 2.06MB Simrad multibeam vendor format
1549_20090217_024609_ShipName.all.mb56.gz 1.99MB Simrad multibeam vendor format
1550_20090217_031609_ShipName.all.mb56.gz 2.02MB Simrad multibeam vendor format
1551_20090217_034609_ShipName.all.mb56.gz 2.04MB Simrad multibeam vendor format
1552_20090217_041609_ShipName.all.mb56.gz 2.04MB Simrad multibeam vendor format
1553_20090217_044609_ShipName.all.mb56.gz 2.06MB Simrad multibeam vendor format
1554_20090217_051609_ShipName.all.mb56.gz 1.99MB Simrad multibeam vendor format
1555_20090217_054609_ShipName.all.mb56.gz 2.02MB Simrad multibeam vendor format
1556_20090217_061609_ShipName.all.mb56.gz 1.93MB Simrad multibeam vendor format
1557_20090217_064609_ShipName.all.mb56.gz 2.03MB Simrad multibeam vendor format
1558_20090217_071609_ShipName.all.mb56.gz 1.99MB Simrad multibeam vendor format
1559_20090217_074609_ShipName.all.mb56.gz 2.06MB Simrad multibeam vendor format
1560_20090217_081609_ShipName.all.mb56.gz 2.09MB Simrad multibeam vendor format
1561_20090217_084609_ShipName.all.mb56.gz 2.14MB Simrad multibeam vendor format
1562_20090217_091609_ShipName.all.mb56.gz 2.10MB Simrad multibeam vendor format
1563_20090217_094609_ShipName.all.mb56.gz 2.19MB Simrad multibeam vendor format
1564_20090217_101609_ShipName.all.mb56.gz 2.14MB Simrad multibeam vendor format
1565_20090217_104609_ShipName.all.mb56.gz 2.14MB Simrad multibeam vendor format
1566_20090217_111609_ShipName.all.mb56.gz 2.16MB Simrad multibeam vendor format
1567_20090217_114609_ShipName.all.mb56.gz 2.09MB Simrad multibeam vendor format
1568_20090217_121609_ShipName.all.mb56.gz 2.03MB Simrad multibeam vendor format
1569_20090217_124609_ShipName.all.mb56.gz 2.11MB Simrad multibeam vendor format
1570_20090217_131609_ShipName.all.mb56.gz 2.02MB Simrad multibeam vendor format
1571_20090217_134608_ShipName.all.mb56.gz 2.08MB Simrad multibeam vendor format
1572_20090217_141608_ShipName.all.mb56.gz 2.09MB Simrad multibeam vendor format
1573_20090217_144616_ShipName.all.mb56.gz 2.04MB Simrad multibeam vendor format
1574_20090217_151616_ShipName.all.mb56.gz 2.01MB Simrad multibeam vendor format
1575_20090217_154616_ShipName.all.mb56.gz 2.03MB Simrad multibeam vendor format
1576_20090217_161616_ShipName.all.mb56.gz 2.02MB Simrad multibeam vendor format
1577_20090217_164617_ShipName.all.mb56.gz 1.99MB Simrad multibeam vendor format
1578_20090217_171617_ShipName.all.mb56.gz 2.07MB Simrad multibeam vendor format
1579_20090217_174617_ShipName.all.mb56.gz 2.07MB Simrad multibeam vendor format
1580_20090217_181617_ShipName.all.mb56.gz 2.00MB Simrad multibeam vendor format
1581_20090217_184617_ShipName.all.mb56.gz 1.98MB Simrad multibeam vendor format
1582_20090217_191618_ShipName.all.mb56.gz 2.00MB Simrad multibeam vendor format
1583_20090217_194618_ShipName.all.mb56.gz 2.00MB Simrad multibeam vendor format
1584_20090217_201618_ShipName.all.mb56.gz 2.04MB Simrad multibeam vendor format
1585_20090217_204618_ShipName.all.mb56.gz 2.04MB Simrad multibeam vendor format
1586_20090217_211618_ShipName.all.mb56.gz 2.03MB Simrad multibeam vendor format
1587_20090217_214618_ShipName.all.mb56.gz 2.01MB Simrad multibeam vendor format
1588_20090217_221619_ShipName.all.mb56.gz 1.94MB Simrad multibeam vendor format
1589_20090217_224619_ShipName.all.mb56.gz 1.93MB Simrad multibeam vendor format
1590_20090217_231619_ShipName.all.mb56.gz 1.89MB Simrad multibeam vendor format
1591_20090217_234619_ShipName.all.mb56.gz 1.89MB Simrad multibeam vendor format
1592_20090218_001619_ShipName.all.mb56.gz 1.91MB Simrad multibeam vendor format
1593_20090218_004620_ShipName.all.mb56.gz 2.04MB Simrad multibeam vendor format
1594_20090218_011620_ShipName.all.mb56.gz 2.07MB Simrad multibeam vendor format
1595_20090218_014620_ShipName.all.mb56.gz 2.00MB Simrad multibeam vendor format
1596_20090218_021620_ShipName.all.mb56.gz 2.06MB Simrad multibeam vendor format
1597_20090218_024620_ShipName.all.mb56.gz 2.04MB Simrad multibeam vendor format
1598_20090218_031620_ShipName.all.mb56.gz 2.07MB Simrad multibeam vendor format
1599_20090218_034621_ShipName.all.mb56.gz 2.07MB Simrad multibeam vendor format
1600_20090218_041621_ShipName.all.mb56.gz 2.07MB Simrad multibeam vendor format
1601_20090218_044621_ShipName.all.mb56.gz 1.97MB Simrad multibeam vendor format
1602_20090218_051621_ShipName.all.mb56.gz 1.99MB Simrad multibeam vendor format
1603_20090218_054621_ShipName.all.mb56.gz 2.01MB Simrad multibeam vendor format
1604_20090218_061621_ShipName.all.mb56.gz 2.11MB Simrad multibeam vendor format
1605_20090218_064621_ShipName.all.mb56.gz 2.14MB Simrad multibeam vendor format
1606_20090218_071621_ShipName.all.mb56.gz 2.14MB Simrad multibeam vendor format
1607_20090218_074621_ShipName.all.mb56.gz 2.10MB Simrad multibeam vendor format
1608_20090218_081621_ShipName.all.mb56.gz 1.99MB Simrad multibeam vendor format
1609_20090218_084621_ShipName.all.mb56.gz 1.92MB Simrad multibeam vendor format
1610_20090218_091621_ShipName.all.mb56.gz 1.93MB Simrad multibeam vendor format
1611_20090218_094621_ShipName.all.mb56.gz 1.94MB Simrad multibeam vendor format
1612_20090218_101621_ShipName.all.mb56.gz 1.98MB Simrad multibeam vendor format
1613_20090218_104621_ShipName.all.mb56.gz 1.99MB Simrad multibeam vendor format
1614_20090218_111621_ShipName.all.mb56.gz 2.01MB Simrad multibeam vendor format
1615_20090218_114621_ShipName.all.mb56.gz 2.02MB Simrad multibeam vendor format
1616_20090218_121621_ShipName.all.mb56.gz 2.01MB Simrad multibeam vendor format
1617_20090218_124620_ShipName.all.mb56.gz 2.02MB Simrad multibeam vendor format
1618_20090218_131620_ShipName.all.mb56.gz 2.06MB Simrad multibeam vendor format
1619_20090218_134621_ShipName.all.mb56.gz 2.08MB Simrad multibeam vendor format
1620_20090218_141620_ShipName.all.mb56.gz 2.09MB Simrad multibeam vendor format
1621_20090218_144620_ShipName.all.mb56.gz 2.06MB Simrad multibeam vendor format
1622_20090218_151620_ShipName.all.mb56.gz 2.12MB Simrad multibeam vendor format
1623_20090218_154620_ShipName.all.mb56.gz 2.11MB Simrad multibeam vendor format
1624_20090218_161620_ShipName.all.mb56.gz 2.11MB Simrad multibeam vendor format
1625_20090218_164620_ShipName.all.mb56.gz 2.12MB Simrad multibeam vendor format
1626_20090218_171620_ShipName.all.mb56.gz 2.02MB Simrad multibeam vendor format
1627_20090218_174620_ShipName.all.mb56.gz 2.07MB Simrad multibeam vendor format
1628_20090218_181620_ShipName.all.mb56.gz 2.07MB Simrad multibeam vendor format
1629_20090218_184620_ShipName.all.mb56.gz 2.07MB Simrad multibeam vendor format
1630_20090218_191620_ShipName.all.mb56.gz 2.09MB Simrad multibeam vendor format
1631_20090218_194620_ShipName.all.mb56.gz 2.07MB Simrad multibeam vendor format
1632_20090218_201620_ShipName.all.mb56.gz 2.04MB Simrad multibeam vendor format
1633_20090218_204620_ShipName.all.mb56.gz 2.00MB Simrad multibeam vendor format
1634_20090218_211620_ShipName.all.mb56.gz 2.01MB Simrad multibeam vendor format
1635_20090218_214620_ShipName.all.mb56.gz 1.97MB Simrad multibeam vendor format
1636_20090218_221621_ShipName.all.mb56.gz 1.96MB Simrad multibeam vendor format
1637_20090218_224620_ShipName.all.mb56.gz 1.96MB Simrad multibeam vendor format
1638_20090218_231620_ShipName.all.mb56.gz 1.96MB Simrad multibeam vendor format
1639_20090218_234620_ShipName.all.mb56.gz 1.99MB Simrad multibeam vendor format
1640_20090219_001620_ShipName.all.mb56.gz 2.01MB Simrad multibeam vendor format
1641_20090219_004620_ShipName.all.mb56.gz 1.99MB Simrad multibeam vendor format
1642_20090219_011620_ShipName.all.mb56.gz 1.99MB Simrad multibeam vendor format
1643_20090219_014620_ShipName.all.mb56.gz 2.00MB Simrad multibeam vendor format
1644_20090219_021620_ShipName.all.mb56.gz 1.98MB Simrad multibeam vendor format
1645_20090219_024620_ShipName.all.mb56.gz 1.99MB Simrad multibeam vendor format
1646_20090219_031620_ShipName.all.mb56.gz 1.98MB Simrad multibeam vendor format
1647_20090219_034620_ShipName.all.mb56.gz 1.99MB Simrad multibeam vendor format
1648_20090219_041620_ShipName.all.mb56.gz 1.99MB Simrad multibeam vendor format
1649_20090219_044620_ShipName.all.mb56.gz 1.94MB Simrad multibeam vendor format
1650_20090219_051620_ShipName.all.mb56.gz 1.97MB Simrad multibeam vendor format
1651_20090219_054620_ShipName.all.mb56.gz 1.96MB Simrad multibeam vendor format
1652_20090219_061620_ShipName.all.mb56.gz 1.98MB Simrad multibeam vendor format
1653_20090219_064620_ShipName.all.mb56.gz 1.95MB Simrad multibeam vendor format
1654_20090219_071620_ShipName.all.mb56.gz 2.00MB Simrad multibeam vendor format
1655_20090219_074620_ShipName.all.mb56.gz 2.00MB Simrad multibeam vendor format
1656_20090219_081620_ShipName.all.mb56.gz 1.97MB Simrad multibeam vendor format
1657_20090219_084620_ShipName.all.mb56.gz 1.97MB Simrad multibeam vendor format
1658_20090219_091620_ShipName.all.mb56.gz 1.98MB Simrad multibeam vendor format
1659_20090219_094620_ShipName.all.mb56.gz 2.03MB Simrad multibeam vendor format
1660_20090219_101620_ShipName.all.mb56.gz 1.97MB Simrad multibeam vendor format
1661_20090219_104620_ShipName.all.mb56.gz 1.92MB Simrad multibeam vendor format
1662_20090219_111620_ShipName.all.mb56.gz 1.94MB Simrad multibeam vendor format
1663_20090219_114620_ShipName.all.mb56.gz 1.92MB Simrad multibeam vendor format
1664_20090219_121620_ShipName.all.mb56.gz 1.94MB Simrad multibeam vendor format
1665_20090219_124620_ShipName.all.mb56.gz 1.90MB Simrad multibeam vendor format
1666_20090219_131620_ShipName.all.mb56.gz 1.86MB Simrad multibeam vendor format
1667_20090219_134620_ShipName.all.mb56.gz 1.90MB Simrad multibeam vendor format
1668_20090219_141619_ShipName.all.mb56.gz 1.95MB Simrad multibeam vendor format
1669_20090219_144619_ShipName.all.mb56.gz 1.90MB Simrad multibeam vendor format
1670_20090219_151619_ShipName.all.mb56.gz 1.89MB Simrad multibeam vendor format
1671_20090219_154619_ShipName.all.mb56.gz 1.90MB Simrad multibeam vendor format
1672_20090219_161619_ShipName.all.mb56.gz 1.90MB Simrad multibeam vendor format
1673_20090219_164619_ShipName.all.mb56.gz 1.93MB Simrad multibeam vendor format
1674_20090219_171619_ShipName.all.mb56.gz 1.95MB Simrad multibeam vendor format
1675_20090219_174619_ShipName.all.mb56.gz 2.02MB Simrad multibeam vendor format
1676_20090219_181619_ShipName.all.mb56.gz 1.95MB Simrad multibeam vendor format
1677_20090219_184619_ShipName.all.mb56.gz 1.96MB Simrad multibeam vendor format
1678_20090219_191619_ShipName.all.mb56.gz 1.97MB Simrad multibeam vendor format
1679_20090219_194619_ShipName.all.mb56.gz 1.96MB Simrad multibeam vendor format
1680_20090219_201619_ShipName.all.mb56.gz 1.93MB Simrad multibeam vendor format
1681_20090219_204619_ShipName.all.mb56.gz 1.94MB Simrad multibeam vendor format
1682_20090219_211619_ShipName.all.mb56.gz 1.88MB Simrad multibeam vendor format
1683_20090219_214619_ShipName.all.mb56.gz 1.92MB Simrad multibeam vendor format
1684_20090219_221619_ShipName.all.mb56.gz 1.97MB Simrad multibeam vendor format
1685_20090219_224619_ShipName.all.mb56.gz 2.05MB Simrad multibeam vendor format
1686_20090219_231619_ShipName.all.mb56.gz 2.01MB Simrad multibeam vendor format
1687_20090219_234619_ShipName.all.mb56.gz 2.05MB Simrad multibeam vendor format
1688_20090220_001619_ShipName.all.mb56.gz 1.94MB Simrad multibeam vendor format
1689_20090220_004619_ShipName.all.mb56.gz 2.00MB Simrad multibeam vendor format
1690_20090220_011619_ShipName.all.mb56.gz 1.94MB Simrad multibeam vendor format
1691_20090220_014619_ShipName.all.mb56.gz 1.96MB Simrad multibeam vendor format
1692_20090220_021619_ShipName.all.mb56.gz 1.95MB Simrad multibeam vendor format
1693_20090220_024619_ShipName.all.mb56.gz 1.96MB Simrad multibeam vendor format
1694_20090220_031619_ShipName.all.mb56.gz 1.97MB Simrad multibeam vendor format
1695_20090220_034619_ShipName.all.mb56.gz 1.93MB Simrad multibeam vendor format
1696_20090220_041619_ShipName.all.mb56.gz 1.97MB Simrad multibeam vendor format
1697_20090220_044619_ShipName.all.mb56.gz 1.95MB Simrad multibeam vendor format
1698_20090220_051619_ShipName.all.mb56.gz 1.96MB Simrad multibeam vendor format
1699_20090220_054619_ShipName.all.mb56.gz 1.92MB Simrad multibeam vendor format
1700_20090220_061619_ShipName.all.mb56.gz 1.98MB Simrad multibeam vendor format
1701_20090220_064619_ShipName.all.mb56.gz 1.91MB Simrad multibeam vendor format
1702_20090220_071619_ShipName.all.mb56.gz 1.94MB Simrad multibeam vendor format
1703_20090220_074619_ShipName.all.mb56.gz 1.99MB Simrad multibeam vendor format
1704_20090220_081619_ShipName.all.mb56.gz 2.01MB Simrad multibeam vendor format
1705_20090220_084619_ShipName.all.mb56.gz 2.02MB Simrad multibeam vendor format
1706_20090220_091619_ShipName.all.mb56.gz 1.92MB Simrad multibeam vendor format
1707_20090220_094619_ShipName.all.mb56.gz 1.93MB Simrad multibeam vendor format
1708_20090220_101619_ShipName.all.mb56.gz 1.94MB Simrad multibeam vendor format
1709_20090220_104619_ShipName.all.mb56.gz 1.95MB Simrad multibeam vendor format
1710_20090220_111619_ShipName.all.mb56.gz 1.98MB Simrad multibeam vendor format
1711_20090220_114619_ShipName.all.mb56.gz 1.96MB Simrad multibeam vendor format
1712_20090220_121619_ShipName.all.mb56.gz 1.96MB Simrad multibeam vendor format
1713_20090220_124619_ShipName.all.mb56.gz 1.98MB Simrad multibeam vendor format
1714_20090220_131619_ShipName.all.mb56.gz 2.01MB Simrad multibeam vendor format
1715_20090220_134619_ShipName.all.mb56.gz 1.90MB Simrad multibeam vendor format
1716_20090220_141619_ShipName.all.mb56.gz 1.96MB Simrad multibeam vendor format
1717_20090220_144619_ShipName.all.mb56.gz 1.96MB Simrad multibeam vendor format
1718_20090220_151618_ShipName.all.mb56.gz 1.94MB Simrad multibeam vendor format
1719_20090220_154618_ShipName.all.mb56.gz 1.94MB Simrad multibeam vendor format
1720_20090220_161618_ShipName.all.mb56.gz 1.94MB Simrad multibeam vendor format
1721_20090220_164618_ShipName.all.mb56.gz 1.92MB Simrad multibeam vendor format
1722_20090220_171618_ShipName.all.mb56.gz 1.89MB Simrad multibeam vendor format
1723_20090220_174618_ShipName.all.mb56.gz 1.96MB Simrad multibeam vendor format
1724_20090220_181618_ShipName.all.mb56.gz 1.97MB Simrad multibeam vendor format
1725_20090220_184618_ShipName.all.mb56.gz 1.94MB Simrad multibeam vendor format
1726_20090220_191618_ShipName.all.mb56.gz 1.96MB Simrad multibeam vendor format
1727_20090220_194618_ShipName.all.mb56.gz 1.87MB Simrad multibeam vendor format
1728_20090220_201618_ShipName.all.mb56.gz 1.88MB Simrad multibeam vendor format
1729_20090220_204618_ShipName.all.mb56.gz 1.96MB Simrad multibeam vendor format
1730_20090220_211618_ShipName.all.mb56.gz 1.89MB Simrad multibeam vendor format
1731_20090220_214618_ShipName.all.mb56.gz 1.97MB Simrad multibeam vendor format
1732_20090220_221618_ShipName.all.mb56.gz 1.94MB Simrad multibeam vendor format
1733_20090220_224618_ShipName.all.mb56.gz 1.90MB Simrad multibeam vendor format
1734_20090220_231618_ShipName.all.mb56.gz 1.87MB Simrad multibeam vendor format
1735_20090220_234618_ShipName.all.mb56.gz 1.93MB Simrad multibeam vendor format
1736_20090221_001618_ShipName.all.mb56.gz 1.95MB Simrad multibeam vendor format
1737_20090221_004618_ShipName.all.mb56.gz 1.96MB Simrad multibeam vendor format
1738_20090221_011618_ShipName.all.mb56.gz 1.90MB Simrad multibeam vendor format
1739_20090221_014618_ShipName.all.mb56.gz 1.97MB Simrad multibeam vendor format
1740_20090221_021618_ShipName.all.mb56.gz 1.95MB Simrad multibeam vendor format
1741_20090221_024618_ShipName.all.mb56.gz 1.93MB Simrad multibeam vendor format
1742_20090221_031618_ShipName.all.mb56.gz 1.95MB Simrad multibeam vendor format
1743_20090221_034618_ShipName.all.mb56.gz 2.02MB Simrad multibeam vendor format
1744_20090221_041618_ShipName.all.mb56.gz 1.90MB Simrad multibeam vendor format
1745_20090221_044619_ShipName.all.mb56.gz 1.82MB Simrad multibeam vendor format
1746_20090221_051618_ShipName.all.mb56.gz 1.90MB Simrad multibeam vendor format
1747_20090221_054618_ShipName.all.mb56.gz 1.90MB Simrad multibeam vendor format
1748_20090221_061618_ShipName.all.mb56.gz 1.90MB Simrad multibeam vendor format
1749_20090221_064618_ShipName.all.mb56.gz 1.90MB Simrad multibeam vendor format
1750_20090221_071618_ShipName.all.mb56.gz 1.96MB Simrad multibeam vendor format
1751_20090221_074618_ShipName.all.mb56.gz 2.02MB Simrad multibeam vendor format
1752_20090221_081618_ShipName.all.mb56.gz 2.04MB Simrad multibeam vendor format
1753_20090221_084618_ShipName.all.mb56.gz 1.95MB Simrad multibeam vendor format
1754_20090221_091618_ShipName.all.mb56.gz 1.93MB Simrad multibeam vendor format
1755_20090221_094618_ShipName.all.mb56.gz 2.02MB Simrad multibeam vendor format
1756_20090221_101618_ShipName.all.mb56.gz 1.98MB Simrad multibeam vendor format
1757_20090221_104618_ShipName.all.mb56.gz 2.00MB Simrad multibeam vendor format
1758_20090221_111618_ShipName.all.mb56.gz 2.07MB Simrad multibeam vendor format
1759_20090221_114618_ShipName.all.mb56.gz 1.94MB Simrad multibeam vendor format
1760_20090221_121618_ShipName.all.mb56.gz 1.95MB Simrad multibeam vendor format
1761_20090221_124618_ShipName.all.mb56.gz 1.95MB Simrad multibeam vendor format
1762_20090221_131618_ShipName.all.mb56.gz 1.96MB Simrad multibeam vendor format
1763_20090221_134618_ShipName.all.mb56.gz 1.90MB Simrad multibeam vendor format
1764_20090221_141618_ShipName.all.mb56.gz 2.05MB Simrad multibeam vendor format
1765_20090221_144618_ShipName.all.mb56.gz 1.99MB Simrad multibeam vendor format
1766_20090221_151618_ShipName.all.mb56.gz 1.94MB Simrad multibeam vendor format
1767_20090221_154618_ShipName.all.mb56.gz 1.97MB Simrad multibeam vendor format
1768_20090221_161618_ShipName.all.mb56.gz 2.02MB Simrad multibeam vendor format
1769_20090221_164618_ShipName.all.mb56.gz 1.96MB Simrad multibeam vendor format
1770_20090221_171618_ShipName.all.mb56.gz 2.00MB Simrad multibeam vendor format
1771_20090221_174618_ShipName.all.mb56.gz 2.11MB Simrad multibeam vendor format
1772_20090221_181617_ShipName.all.mb56.gz 1.98MB Simrad multibeam vendor format
1773_20090221_184617_ShipName.all.mb56.gz 1.97MB Simrad multibeam vendor format
1774_20090221_191617_ShipName.all.mb56.gz 1.94MB Simrad multibeam vendor format
1775_20090221_194617_ShipName.all.mb56.gz 1.95MB Simrad multibeam vendor format
1776_20090221_201617_ShipName.all.mb56.gz 1.99MB Simrad multibeam vendor format
1777_20090221_204617_ShipName.all.mb56.gz 2.00MB Simrad multibeam vendor format
1778_20090221_211617_ShipName.all.mb56.gz 1.99MB Simrad multibeam vendor format
1779_20090221_214618_ShipName.all.mb56.gz 2.03MB Simrad multibeam vendor format
1780_20090221_221617_ShipName.all.mb56.gz 2.02MB Simrad multibeam vendor format
1781_20090221_224617_ShipName.all.mb56.gz 1.95MB Simrad multibeam vendor format
1782_20090221_231617_ShipName.all.mb56.gz 1.99MB Simrad multibeam vendor format
1783_20090221_234617_ShipName.all.mb56.gz 2.00MB Simrad multibeam vendor format
1784_20090222_001617_ShipName.all.mb56.gz 2.03MB Simrad multibeam vendor format
1785_20090222_004617_ShipName.all.mb56.gz 1.94MB Simrad multibeam vendor format
1786_20090222_011617_ShipName.all.mb56.gz 1.97MB Simrad multibeam vendor format
1787_20090222_014617_ShipName.all.mb56.gz 1.97MB Simrad multibeam vendor format
1788_20090222_021617_ShipName.all.mb56.gz 1.97MB Simrad multibeam vendor format
1789_20090222_024617_ShipName.all.mb56.gz 1.95MB Simrad multibeam vendor format
1790_20090222_031617_ShipName.all.mb56.gz 1.97MB Simrad multibeam vendor format
1791_20090222_034617_ShipName.all.mb56.gz 1.97MB Simrad multibeam vendor format
1792_20090222_041617_ShipName.all.mb56.gz 1.97MB Simrad multibeam vendor format
1793_20090222_044617_ShipName.all.mb56.gz 1.95MB Simrad multibeam vendor format
1794_20090222_051617_ShipName.all.mb56.gz 1.98MB Simrad multibeam vendor format
1795_20090222_054617_ShipName.all.mb56.gz 2.01MB Simrad multibeam vendor format
1796_20090222_061617_ShipName.all.mb56.gz 2.09MB Simrad multibeam vendor format
1797_20090222_064617_ShipName.all.mb56.gz 2.04MB Simrad multibeam vendor format
1798_20090222_071617_ShipName.all.mb56.gz 2.03MB Simrad multibeam vendor format
1799_20090222_074617_ShipName.all.mb56.gz 2.06MB Simrad multibeam vendor format
1800_20090222_081617_ShipName.all.mb56.gz 2.04MB Simrad multibeam vendor format
1801_20090222_084617_ShipName.all.mb56.gz 2.06MB Simrad multibeam vendor format
1802_20090222_091617_ShipName.all.mb56.gz 2.06MB Simrad multibeam vendor format
1803_20090222_094617_ShipName.all.mb56.gz 417.1KB Simrad multibeam vendor format
1804_20090222_101246_ShipName.all.mb56.gz 2.08MB Simrad multibeam vendor format
1805_20090222_104246_ShipName.all.mb56.gz 2.14MB Simrad multibeam vendor format
1806_20090222_111246_ShipName.all.mb56.gz 2.14MB Simrad multibeam vendor format
1807_20090222_114246_ShipName.all.mb56.gz 2.15MB Simrad multibeam vendor format
1808_20090222_121246_ShipName.all.mb56.gz 2.09MB Simrad multibeam vendor format
1809_20090222_124245_ShipName.all.mb56.gz 2.10MB Simrad multibeam vendor format
1810_20090222_131245_ShipName.all.mb56.gz 2.12MB Simrad multibeam vendor format
1811_20090222_134245_ShipName.all.mb56.gz 2.11MB Simrad multibeam vendor format
1812_20090222_141245_ShipName.all.mb56.gz 2.12MB Simrad multibeam vendor format
1813_20090222_144245_ShipName.all.mb56.gz 2.13MB Simrad multibeam vendor format
1814_20090222_151245_ShipName.all.mb56.gz 2.19MB Simrad multibeam vendor format
1815_20090222_154245_ShipName.all.mb56.gz 506.6KB Simrad multibeam vendor format

Full Resolution Bathymetry (processed): 1776

Files File Size Description
0003_20090112_093156_ShipName.all.mb57.gz 170.2KB Simrad multibeam processing format
0004_20090112_093634_ShipName.all.mb57.gz 2.20MB Simrad multibeam processing format
0005_20090112_100634_ShipName.all.mb57.gz 2.16MB Simrad multibeam processing format
0006_20090112_103634_ShipName.all.mb57.gz 2.16MB Simrad multibeam processing format
0007_20090112_110633_ShipName.all.mb57.gz 2.08MB Simrad multibeam processing format
0008_20090112_113633_ShipName.all.mb57.gz 2.04MB Simrad multibeam processing format
0009_20090112_120633_ShipName.all.mb57.gz 2.09MB Simrad multibeam processing format
0010_20090112_123633_ShipName.all.mb57.gz 2.09MB Simrad multibeam processing format
0011_20090112_130633_ShipName.all.mb57.gz 2.12MB Simrad multibeam processing format
0012_20090112_133633_ShipName.all.mb57.gz 2.20MB Simrad multibeam processing format
0013_20090112_140633_ShipName.all.mb57.gz 2.15MB Simrad multibeam processing format
0014_20090112_143633_ShipName.all.mb57.gz 2.18MB Simrad multibeam processing format
0015_20090112_150633_ShipName.all.mb57.gz 2.32MB Simrad multibeam processing format
0016_20090112_153633_ShipName.all.mb57.gz 425.6KB Simrad multibeam processing format
0017_20090112_154245_ShipName.all.mb57.gz 1.28MB Simrad multibeam processing format
0018_20090112_160410_ShipName.all.mb57.gz 1.86MB Simrad multibeam processing format
0019_20090112_163410_ShipName.all.mb57.gz 38.9KB Simrad multibeam processing format
0020_20090112_163459_ShipName.all.mb57.gz 0.72MB Simrad multibeam processing format
0021_20090112_185107_ShipName.all.mb57.gz 2.20MB Simrad multibeam processing format
0022_20090112_192107_ShipName.all.mb57.gz 0.89MB Simrad multibeam processing format
0024_20090112_193639_ShipName.all.mb57.gz 152.5KB Simrad multibeam processing format
0025_20090112_195829_ShipName.all.mb57.gz 2.36MB Simrad multibeam processing format
0026_20090112_202829_ShipName.all.mb57.gz 2.30MB Simrad multibeam processing format
0027_20090112_205829_ShipName.all.mb57.gz 2.33MB Simrad multibeam processing format
0028_20090112_212829_ShipName.all.mb57.gz 2.31MB Simrad multibeam processing format
0029_20090112_215829_ShipName.all.mb57.gz 2.26MB Simrad multibeam processing format
0030_20090112_222829_ShipName.all.mb57.gz 2.28MB Simrad multibeam processing format
0031_20090112_225829_ShipName.all.mb57.gz 2.28MB Simrad multibeam processing format
0032_20090112_232829_ShipName.all.mb57.gz 2.21MB Simrad multibeam processing format
0033_20090112_235829_ShipName.all.mb57.gz 2.24MB Simrad multibeam processing format
0034_20090113_002829_ShipName.all.mb57.gz 2.27MB Simrad multibeam processing format
0035_20090113_005829_ShipName.all.mb57.gz 2.18MB Simrad multibeam processing format
0036_20090113_012829_ShipName.all.mb57.gz 2.20MB Simrad multibeam processing format
0037_20090113_015829_ShipName.all.mb57.gz 2.21MB Simrad multibeam processing format
0038_20090113_022829_ShipName.all.mb57.gz 2.31MB Simrad multibeam processing format
0039_20090113_025829_ShipName.all.mb57.gz 2.25MB Simrad multibeam processing format
0040_20090113_032829_ShipName.all.mb57.gz 2.24MB Simrad multibeam processing format
0041_20090113_035829_ShipName.all.mb57.gz 2.22MB Simrad multibeam processing format
0042_20090113_042829_ShipName.all.mb57.gz 2.27MB Simrad multibeam processing format
0043_20090113_045829_ShipName.all.mb57.gz 2.11MB Simrad multibeam processing format
0044_20090113_052829_ShipName.all.mb57.gz 1.76MB Simrad multibeam processing format
0045_20090113_055829_ShipName.all.mb57.gz 1.96MB Simrad multibeam processing format
0046_20090113_062829_ShipName.all.mb57.gz 1.94MB Simrad multibeam processing format
0047_20090113_065829_ShipName.all.mb57.gz 1.92MB Simrad multibeam processing format
0048_20090113_072829_ShipName.all.mb57.gz 2.08MB Simrad multibeam processing format
0049_20090113_075829_ShipName.all.mb57.gz 1.96MB Simrad multibeam processing format
0050_20090113_082829_ShipName.all.mb57.gz 1.81MB Simrad multibeam processing format
0051_20090113_085829_ShipName.all.mb57.gz 1.90MB Simrad multibeam processing format
0052_20090113_092829_ShipName.all.mb57.gz 2.04MB Simrad multibeam processing format
0053_20090113_095829_ShipName.all.mb57.gz 2.10MB Simrad multibeam processing format
0054_20090113_102828_ShipName.all.mb57.gz 2.38MB Simrad multibeam processing format
0055_20090113_105828_ShipName.all.mb57.gz 2.19MB Simrad multibeam processing format
0056_20090113_112828_ShipName.all.mb57.gz 1.87MB Simrad multibeam processing format
0057_20090113_115828_ShipName.all.mb57.gz 1.84MB Simrad multibeam processing format
0058_20090113_122828_ShipName.all.mb57.gz 2.00MB Simrad multibeam processing format
0059_20090113_125828_ShipName.all.mb57.gz 2.08MB Simrad multibeam processing format
0060_20090113_132828_ShipName.all.mb57.gz 1.98MB Simrad multibeam processing format
0061_20090113_135828_ShipName.all.mb57.gz 1.80MB Simrad multibeam processing format
0062_20090113_142828_ShipName.all.mb57.gz 1.81MB Simrad multibeam processing format
0063_20090113_145828_ShipName.all.mb57.gz 2.19MB Simrad multibeam processing format
0064_20090113_152828_ShipName.all.mb57.gz 2.07MB Simrad multibeam processing format
0065_20090113_155828_ShipName.all.mb57.gz 2.25MB Simrad multibeam processing format
0066_20090113_162828_ShipName.all.mb57.gz 2.30MB Simrad multibeam processing format
0067_20090113_165828_ShipName.all.mb57.gz 2.27MB Simrad multibeam processing format
0068_20090113_172828_ShipName.all.mb57.gz 2.42MB Simrad multibeam processing format
0069_20090113_175828_ShipName.all.mb57.gz 2.29MB Simrad multibeam processing format
0070_20090113_182828_ShipName.all.mb57.gz 2.23MB Simrad multibeam processing format
0071_20090113_185828_ShipName.all.mb57.gz 2.13MB Simrad multibeam processing format
0072_20090113_192828_ShipName.all.mb57.gz 2.00MB Simrad multibeam processing format
0073_20090113_195828_ShipName.all.mb57.gz 2.17MB Simrad multibeam processing format
0074_20090113_202828_ShipName.all.mb57.gz 1.79MB Simrad multibeam processing format
0075_20090113_205828_ShipName.all.mb57.gz 0.67MB Simrad multibeam processing format
0076_20090113_210954_ShipName.all.mb57.gz 2.15MB Simrad multibeam processing format
0077_20090113_213954_ShipName.all.mb57.gz 2.21MB Simrad multibeam processing format
0078_20090113_220954_ShipName.all.mb57.gz 2.18MB Simrad multibeam processing format
0079_20090113_223954_ShipName.all.mb57.gz 2.16MB Simrad multibeam processing format
0080_20090113_230954_ShipName.all.mb57.gz 2.35MB Simrad multibeam processing format
0081_20090113_233954_ShipName.all.mb57.gz 2.27MB Simrad multibeam processing format
0082_20090114_000954_ShipName.all.mb57.gz 2.30MB Simrad multibeam processing format
0083_20090114_003954_ShipName.mb57.gz 2.32MB Simrad multibeam processing format
0084_20090114_010954_ShipName.mb57.gz 2.26MB Simrad multibeam processing format
0085_20090114_013954_ShipName.mb57.gz 2.25MB Simrad multibeam processing format
0086_20090114_020954_ShipName.mb57.gz 2.37MB Simrad multibeam processing format
0087_20090114_023954_ShipName.mb57.gz 2.22MB Simrad multibeam processing format
0088_20090114_030954_ShipName.mb57.gz 2.26MB Simrad multibeam processing format
0089_20090114_033954_ShipName.mb57.gz 2.27MB Simrad multibeam processing format
0090_20090114_040954_ShipName.mb57.gz 2.42MB Simrad multibeam processing format
0091_20090114_043954_ShipName.mb57.gz 2.19MB Simrad multibeam processing format
0092_20090114_050954_ShipName.mb57.gz 2.09MB Simrad multibeam processing format
0093_20090114_053954_ShipName.mb57.gz 2.07MB Simrad multibeam processing format
0094_20090114_060953_ShipName.mb57.gz 2.07MB Simrad multibeam processing format
0095_20090114_063953_ShipName.mb57.gz 2.29MB Simrad multibeam processing format
0096_20090114_070953_ShipName.mb57.gz 2.29MB Simrad multibeam processing format
0097_20090114_073953_ShipName.mb57.gz 2.29MB Simrad multibeam processing format
0098_20090114_080953_ShipName.mb57.gz 2.24MB Simrad multibeam processing format
0099_20090114_083953_ShipName.mb57.gz 2.02MB Simrad multibeam processing format
0100_20090114_090953_ShipName.mb57.gz 2.20MB Simrad multibeam processing format
0101_20090114_093953_ShipName.mb57.gz 2.05MB Simrad multibeam processing format
0102_20090114_100953_ShipName.mb57.gz 2.02MB Simrad multibeam processing format
0103_20090114_103953_ShipName.mb57.gz 1.97MB Simrad multibeam processing format
0104_20090114_110953_ShipName.mb57.gz 1.81MB Simrad multibeam processing format
0104_20090114_113801_ShipName.mb57.gz 2.08MB Simrad multibeam processing format
0105_20090114_120801_ShipName.mb57.gz 2.38MB Simrad multibeam processing format
0106_20090114_123801_ShipName.mb57.gz 1.56MB Simrad multibeam processing format
0107_20090114_150916_ShipName.mb57.gz 2.37MB Simrad multibeam processing format
0108_20090114_153917_ShipName.mb57.gz 2.35MB Simrad multibeam processing format
0109_20090114_160917_ShipName.mb57.gz 0.72MB Simrad multibeam processing format
0110_20090115_013400_ShipName.mb57.gz 2.34MB Simrad multibeam processing format
0111_20090115_020400_ShipName.mb57.gz 2.45MB Simrad multibeam processing format
0112_20090115_023400_ShipName.mb57.gz 2.33MB Simrad multibeam processing format
0113_20090115_030400_ShipName.all.mb57.gz 2.31MB Simrad multibeam processing format
0114_20090115_033400_ShipName.all.mb57.gz 2.29MB Simrad multibeam processing format
0115_20090115_040400_ShipName.all.mb57.gz 2.36MB Simrad multibeam processing format
0116_20090115_043400_ShipName.all.mb57.gz 2.31MB Simrad multibeam processing format
0117_20090115_050400_ShipName.all.mb57.gz 2.29MB Simrad multibeam processing format
0118_20090115_053400_ShipName.all.mb57.gz 2.32MB Simrad multibeam processing format
0119_20090115_060400_ShipName.all.mb57.gz 2.40MB Simrad multibeam processing format
0120_20090115_063400_ShipName.all.mb57.gz 2.25MB Simrad multibeam processing format
0121_20090115_070400_ShipName.all.mb57.gz 2.23MB Simrad multibeam processing format
0122_20090115_073400_ShipName.all.mb57.gz 2.22MB Simrad multibeam processing format
0123_20090115_080400_ShipName.all.mb57.gz 2.23MB Simrad multibeam processing format
0124_20090115_083400_ShipName.all.mb57.gz 2.23MB Simrad multibeam processing format
0125_20090115_090400_ShipName.all.mb57.gz 2.27MB Simrad multibeam processing format
0126_20090115_093400_ShipName.all.mb57.gz 2.25MB Simrad multibeam processing format
0127_20090115_100400_ShipName.all.mb57.gz 2.26MB Simrad multibeam processing format
0128_20090115_103400_ShipName.all.mb57.gz 2.32MB Simrad multibeam processing format
0129_20090115_110400_ShipName.all.mb57.gz 2.25MB Simrad multibeam processing format
0130_20090115_113400_ShipName.all.mb57.gz 2.15MB Simrad multibeam processing format
0131_20090115_120400_ShipName.all.mb57.gz 2.17MB Simrad multibeam processing format
0132_20090115_123400_ShipName.all.mb57.gz 2.18MB Simrad multibeam processing format
0133_20090115_130400_ShipName.all.mb57.gz 2.27MB Simrad multibeam processing format
0134_20090115_133400_ShipName.all.mb57.gz 2.19MB Simrad multibeam processing format
0135_20090115_140400_ShipName.all.mb57.gz 2.19MB Simrad multibeam processing format
0136_20090115_143400_ShipName.all.mb57.gz 2.20MB Simrad multibeam processing format
0137_20090115_150400_ShipName.all.mb57.gz 2.20MB Simrad multibeam processing format
0138_20090115_153400_ShipName.all.mb57.gz 2.22MB Simrad multibeam processing format
0139_20090115_160400_ShipName.all.mb57.gz 2.18MB Simrad multibeam processing format
0140_20090115_163400_ShipName.all.mb57.gz 2.24MB Simrad multibeam processing format
0141_20090115_170400_ShipName.all.mb57.gz 2.21MB Simrad multibeam processing format
0142_20090115_173400_ShipName.all.mb57.gz 2.22MB Simrad multibeam processing format
0143_20090115_180400_ShipName.all.mb57.gz 2.23MB Simrad multibeam processing format
0144_20090115_183400_ShipName.all.mb57.gz 2.36MB Simrad multibeam processing format
0145_20090115_190400_ShipName.all.mb57.gz 2.27MB Simrad multibeam processing format
0146_20090115_193400_ShipName.all.mb57.gz 2.15MB Simrad multibeam processing format
0147_20090115_200400_ShipName.all.mb57.gz 2.15MB Simrad multibeam processing format
0148_20090115_203400_ShipName.all.mb57.gz 2.12MB Simrad multibeam processing format
0149_20090115_210400_ShipName.all.mb57.gz 2.26MB Simrad multibeam processing format
0150_20090115_213359_ShipName.all.mb57.gz 2.24MB Simrad multibeam processing format
0151_20090115_220359_ShipName.all.mb57.gz 2.27MB Simrad multibeam processing format
0152_20090115_223359_ShipName.all.mb57.gz 2.23MB Simrad multibeam processing format
0153_20090115_230359_ShipName.all.mb57.gz 2.31MB Simrad multibeam processing format
0154_20090115_233359_ShipName.mb57.gz 2.23MB Simrad multibeam processing format
0155_20090116_000759_ShipName.mb57.gz 0.64MB Simrad multibeam processing format
0156_20090116_001927_ShipName.mb57.gz 192.8KB Simrad multibeam processing format
0157_20090116_002421_ShipName.mb57.gz 72.0KB Simrad multibeam processing format
0158_20090116_002642_ShipName.mb57.gz 0.58MB Simrad multibeam processing format
0159_20090116_003646_ShipName.mb57.gz 76.4KB Simrad multibeam processing format
0160_20090116_003820_ShipName.mb57.gz 2.03MB Simrad multibeam processing format
0161_20090116_010820_ShipName.mb57.gz 2.29MB Simrad multibeam processing format
0162_20090116_013820_ShipName.mb57.gz 2.25MB Simrad multibeam processing format
0163_20090116_020820_ShipName.mb57.gz 2.23MB Simrad multibeam processing format
0164_20090116_023821_ShipName.mb57.gz 2.24MB Simrad multibeam processing format
0165_20090116_030820_ShipName.mb57.gz 2.17MB Simrad multibeam processing format
0166_20090116_033820_ShipName.mb57.gz 2.22MB Simrad multibeam processing format
0167_20090116_040820_ShipName.mb57.gz 2.07MB Simrad multibeam processing format
0168_20090116_043820_ShipName.mb57.gz 2.03MB Simrad multibeam processing format
0169_20090116_050820_ShipName.mb57.gz 2.22MB Simrad multibeam processing format
0170_20090116_053820_ShipName.all.mb57.gz 2.12MB Simrad multibeam processing format
0171_20090116_060820_ShipName.all.mb57.gz 2.27MB Simrad multibeam processing format
0172_20090116_063820_ShipName.all.mb57.gz 2.23MB Simrad multibeam processing format
0173_20090116_070820_ShipName.all.mb57.gz 2.29MB Simrad multibeam processing format
0174_20090116_073820_ShipName.all.mb57.gz 2.33MB Simrad multibeam processing format
0175_20090116_080820_ShipName.all.mb57.gz 2.33MB Simrad multibeam processing format
0176_20090116_083820_ShipName.all.mb57.gz 2.20MB Simrad multibeam processing format
0177_20090116_090820_ShipName.all.mb57.gz 2.27MB Simrad multibeam processing format
0178_20090116_093820_ShipName.all.mb57.gz 2.29MB Simrad multibeam processing format
0179_20090116_100820_ShipName.all.mb57.gz 2.17MB Simrad multibeam processing format
0180_20090116_103820_ShipName.all.mb57.gz 2.29MB Simrad multibeam processing format
0181_20090116_110820_ShipName.all.mb57.gz 2.25MB Simrad multibeam processing format
0182_20090116_113820_ShipName.all.mb57.gz 2.24MB Simrad multibeam processing format
0183_20090116_120820_ShipName.all.mb57.gz 2.32MB Simrad multibeam processing format
0184_20090116_123820_ShipName.all.mb57.gz 2.36MB Simrad multibeam processing format
0185_20090116_130820_ShipName.all.mb57.gz 2.28MB Simrad multibeam processing format
0186_20090116_133820_ShipName.all.mb57.gz 2.39MB Simrad multibeam processing format
0187_20090116_140820_ShipName.all.mb57.gz 2.33MB Simrad multibeam processing format
0188_20090116_143820_ShipName.all.mb57.gz 2.27MB Simrad multibeam processing format
0189_20090116_150820_ShipName.all.mb57.gz 2.26MB Simrad multibeam processing format
0190_20090116_153820_ShipName.all.mb57.gz 2.30MB Simrad multibeam processing format
0191_20090116_160820_ShipName.all.mb57.gz 2.29MB Simrad multibeam processing format
0192_20090116_163820_ShipName.all.mb57.gz 2.29MB Simrad multibeam processing format
0193_20090116_170820_ShipName.all.mb57.gz 2.23MB Simrad multibeam processing format
0194_20090116_173820_ShipName.all.mb57.gz 2.18MB Simrad multibeam processing format
0195_20090116_180820_ShipName.all.mb57.gz 2.28MB Simrad multibeam processing format
0196_20090116_183820_ShipName.all.mb57.gz 2.26MB Simrad multibeam processing format
0197_20090116_190820_ShipName.all.mb57.gz 2.22MB Simrad multibeam processing format
0198_20090116_193820_ShipName.all.mb57.gz 2.21MB Simrad multibeam processing format
0199_20090116_200820_ShipName.all.mb57.gz 2.20MB Simrad multibeam processing format
0200_20090116_203820_ShipName.all.mb57.gz 2.38MB Simrad multibeam processing format
0201_20090116_210820_ShipName.all.mb57.gz 2.37MB Simrad multibeam processing format
0202_20090116_213819_ShipName.all.mb57.gz 2.30MB Simrad multibeam processing format
0203_20090116_220819_ShipName.all.mb57.gz 2.30MB Simrad multibeam processing format
0204_20090116_223819_ShipName.all.mb57.gz 2.26MB Simrad multibeam processing format
0205_20090116_230819_ShipName.all.mb57.gz 2.21MB Simrad multibeam processing format
0206_20090116_233819_ShipName.all.mb57.gz 2.19MB Simrad multibeam processing format
0207_20090117_000819_ShipName.all.mb57.gz 2.37MB Simrad multibeam processing format
0208_20090117_003819_ShipName.all.mb57.gz 2.24MB Simrad multibeam processing format
0209_20090117_010819_ShipName.all.mb57.gz 2.38MB Simrad multibeam processing format
0210_20090117_013819_ShipName.all.mb57.gz 2.38MB Simrad multibeam processing format
0211_20090117_020819_ShipName.all.mb57.gz 2.31MB Simrad multibeam processing format
0212_20090117_023819_ShipName.all.mb57.gz 2.08MB Simrad multibeam processing format
0213_20090117_030819_ShipName.all.mb57.gz 2.32MB Simrad multibeam processing format
0214_20090117_033819_ShipName.all.mb57.gz 2.34MB Simrad multibeam processing format
0215_20090117_040819_ShipName.all.mb57.gz 2.38MB Simrad multibeam processing format
0216_20090117_043819_ShipName.all.mb57.gz 2.27MB Simrad multibeam processing format
0217_20090117_050819_ShipName.all.mb57.gz 2.22MB Simrad multibeam processing format
0218_20090117_053819_ShipName.all.mb57.gz 2.28MB Simrad multibeam processing format
0219_20090117_060819_ShipName.all.mb57.gz 2.19MB Simrad multibeam processing format
0220_20090117_063819_ShipName.all.mb57.gz 2.06MB Simrad multibeam processing format
0221_20090117_070819_ShipName.all.mb57.gz 1.95MB Simrad multibeam processing format
0222_20090117_073819_ShipName.all.mb57.gz 2.31MB Simrad multibeam processing format
0223_20090117_080819_ShipName.all.mb57.gz 1.73MB Simrad multibeam processing format
0224_20090117_083819_ShipName.all.mb57.gz 1.75MB Simrad multibeam processing format
0225_20090117_090819_ShipName.all.mb57.gz 1.64MB Simrad multibeam processing format
0226_20090117_093819_ShipName.all.mb57.gz 1.68MB Simrad multibeam processing format
0227_20090117_100819_ShipName.all.mb57.gz 1.99MB Simrad multibeam processing format
0228_20090117_103819_ShipName.all.mb57.gz 2.10MB Simrad multibeam processing format
0229_20090117_110819_ShipName.all.mb57.gz 1.87MB Simrad multibeam processing format
0230_20090117_113819_ShipName.all.mb57.gz 2.26MB Simrad multibeam processing format
0231_20090117_120819_ShipName.all.mb57.gz 2.30MB Simrad multibeam processing format
0232_20090117_123819_ShipName.all.mb57.gz 2.28MB Simrad multibeam processing format
0233_20090117_130819_ShipName.all.mb57.gz 2.22MB Simrad multibeam processing format
0234_20090117_133819_ShipName.all.mb57.gz 2.33MB Simrad multibeam processing format
0235_20090117_140819_ShipName.all.mb57.gz 2.24MB Simrad multibeam processing format
0236_20090117_143819_ShipName.all.mb57.gz 2.18MB Simrad multibeam processing format
0237_20090117_150819_ShipName.all.mb57.gz 2.20MB Simrad multibeam processing format
0238_20090117_153820_ShipName.all.mb57.gz 2.22MB Simrad multibeam processing format
0239_20090117_160820_ShipName.all.mb57.gz 2.20MB Simrad multibeam processing format
0240_20090117_163820_ShipName.all.mb57.gz 2.18MB Simrad multibeam processing format
0241_20090117_170820_ShipName.all.mb57.gz 2.24MB Simrad multibeam processing format
0242_20090117_173821_ShipName.all.mb57.gz 2.23MB Simrad multibeam processing format
0243_20090117_180821_ShipName.all.mb57.gz 2.29MB Simrad multibeam processing format
0244_20090117_183821_ShipName.all.mb57.gz 2.28MB Simrad multibeam processing format
0245_20090117_190821_ShipName.all.mb57.gz 2.19MB Simrad multibeam processing format
0246_20090117_193822_ShipName.all.mb57.gz 14.8KB Simrad multibeam processing format
0247_20090117_193912_ShipName.all.mb57.gz 118.6KB Simrad multibeam processing format
0248_20090117_194338_ShipName.mb57.gz 0.51MB Simrad multibeam processing format
0249_20090117_201343_ShipName.mb57.gz 0.80MB Simrad multibeam processing format
0250_20090117_202622_ShipName.mb57.gz 1.66MB Simrad multibeam processing format
0251_20090117_204803_ShipName.mb57.gz 2.15MB Simrad multibeam processing format
0252_20090117_211804_ShipName.mb57.gz 2.11MB Simrad multibeam processing format
0253_20090117_214804_ShipName.mb57.gz 2.22MB Simrad multibeam processing format
0254_20090117_221804_ShipName.mb57.gz 2.24MB Simrad multibeam processing format
0255_20090117_224805_ShipName.mb57.gz 2.17MB Simrad multibeam processing format
0256_20090117_231805_ShipName.mb57.gz 2.01MB Simrad multibeam processing format
0257_20090117_234805_ShipName.mb57.gz 2.06MB Simrad multibeam processing format
0258_20090118_001805_ShipName.mb57.gz 2.11MB Simrad multibeam processing format
0259_20090118_004806_ShipName.mb57.gz 2.19MB Simrad multibeam processing format
0260_20090118_011806_ShipName.mb57.gz 2.21MB Simrad multibeam processing format
0261_20090118_014806_ShipName.mb57.gz 2.19MB Simrad multibeam processing format
0262_20090118_021806_ShipName.all.mb57.gz 2.31MB Simrad multibeam processing format
0263_20090118_024807_ShipName.all.mb57.gz 2.17MB Simrad multibeam processing format
0264_20090118_031807_ShipName.all.mb57.gz 2.35MB Simrad multibeam processing format
0265_20090118_034806_ShipName.all.mb57.gz 2.28MB Simrad multibeam processing format
0266_20090118_041806_ShipName.all.mb57.gz 2.23MB Simrad multibeam processing format
0267_20090118_044806_ShipName.all.mb57.gz 2.12MB Simrad multibeam processing format
0268_20090118_051806_ShipName.all.mb57.gz 2.14MB Simrad multibeam processing format
0269_20090118_054806_ShipName.all.mb57.gz 2.17MB Simrad multibeam processing format
0270_20090118_061806_ShipName.all.mb57.gz 2.15MB Simrad multibeam processing format
0271_20090118_064806_ShipName.all.mb57.gz 2.09MB Simrad multibeam processing format
0272_20090118_071806_ShipName.all.mb57.gz 2.17MB Simrad multibeam processing format
0273_20090118_074806_ShipName.all.mb57.gz 2.13MB Simrad multibeam processing format
0274_20090118_081806_ShipName.all.mb57.gz 2.15MB Simrad multibeam processing format
0275_20090118_084806_ShipName.all.mb57.gz 2.18MB Simrad multibeam processing format
0276_20090118_091806_ShipName.all.mb57.gz 2.13MB Simrad multibeam processing format
0277_20090118_094806_ShipName.all.mb57.gz 2.09MB Simrad multibeam processing format
0278_20090118_101806_ShipName.all.mb57.gz 2.12MB Simrad multibeam processing format
0279_20090118_104806_ShipName.all.mb57.gz 2.06MB Simrad multibeam processing format
0280_20090118_111806_ShipName.all.mb57.gz 2.05MB Simrad multibeam processing format
0281_20090118_114806_ShipName.all.mb57.gz 2.06MB Simrad multibeam processing format
0282_20090118_121806_ShipName.all.mb57.gz 2.06MB Simrad multibeam processing format
0283_20090118_124806_ShipName.all.mb57.gz 2.04MB Simrad multibeam processing format
0284_20090118_131806_ShipName.all.mb57.gz 2.02MB Simrad multibeam processing format
0285_20090118_134806_ShipName.all.mb57.gz 2.00MB Simrad multibeam processing format
0286_20090118_141806_ShipName.all.mb57.gz 2.05MB Simrad multibeam processing format
0287_20090118_144806_ShipName.all.mb57.gz 2.04MB Simrad multibeam processing format
0288_20090118_151806_ShipName.all.mb57.gz 2.04MB Simrad multibeam processing format
0289_20090118_154806_ShipName.all.mb57.gz 2.06MB Simrad multibeam processing format
0290_20090118_161806_ShipName.all.mb57.gz 2.09MB Simrad multibeam processing format
0290_20090118_161806_ShipName.mb57.gz 2.09MB Simrad multibeam processing format
0291_20090118_164806_ShipName.all.mb57.gz 2.09MB Simrad multibeam processing format
0291_20090118_164806_ShipName.mb57.gz 2.09MB Simrad multibeam processing format
0292_20090118_171806_ShipName.mb57.gz 2.11MB Simrad multibeam processing format
0293_20090118_174806_ShipName.mb57.gz 2.08MB Simrad multibeam processing format
0294_20090118_181806_ShipName.mb57.gz 2.12MB Simrad multibeam processing format
0295_20090118_184806_ShipName.mb57.gz 2.11MB Simrad multibeam processing format
0296_20090118_191806_ShipName.mb57.gz 2.02MB Simrad multibeam processing format
0297_20090118_194806_ShipName.mb57.gz 2.01MB Simrad multibeam processing format
0298_20090118_201806_ShipName.mb57.gz 2.08MB Simrad multibeam processing format
0299_20090118_204806_ShipName.mb57.gz 2.25MB Simrad multibeam processing format
0300_20090118_211806_ShipName.mb57.gz 2.03MB Simrad multibeam processing format
0301_20090118_214806_ShipName.mb57.gz 2.13MB Simrad multibeam processing format
0302_20090118_221806_ShipName.mb57.gz 2.10MB Simrad multibeam processing format
0303_20090118_224806_ShipName.mb57.gz 2.09MB Simrad multibeam processing format
0304_20090118_23180